<?xml version="1.0" encoding="UTF-8" standalone="no" ?>
<gpx xmlns="http://www.topografix.com/GPX/1/1" xmlns:xsi="http://www.w3.org/2001/XMLSchema-instance" xsi:schemaLocation="http://www.topografix.com/GPX/1/1 http://www.topografix.com/GPX/1/1/gpx.xsd" version="1.1" creator="VisuGPX - https://www.visugpx.com">
  <metadata>
    <name>Montchardon</name>
    <desc><![CDATA[ça pique les %]]></desc>
  </metadata>
  <trk>
    <name><![CDATA[Montchardon]]></name>
    <cmt><![CDATA[Thierry Jacques]]></cmt>
    <trkseg>
      <trkpt lat="45.1164" lon="4.96671">
        <ele>205.65199279785</ele>
        <time>2009-07-25T11:26:24Z</time>
      </trkpt>
      <trkpt lat="45.11694" lon="4.96781">
        <ele>205.47999572754</ele>
        <time>2009-07-25T11:26:43Z</time>
      </trkpt>
      <trkpt lat="45.11723" lon="4.96828">
        <ele>205.04200744629</ele>
        <time>2009-07-25T11:26:52Z</time>
      </trkpt>
      <trkpt lat="45.11731" lon="4.96854">
        <ele>206.20799255371</ele>
        <time>2009-07-25T11:26:56Z</time>
      </trkpt>
      <trkpt lat="45.11765" lon="4.96896">
        <ele>206.04699707031</ele>
        <time>2009-07-25T11:27:05Z</time>
      </trkpt>
      <trkpt lat="45.11825" lon="4.9699">
        <ele>205.96200561523</ele>
        <time>2009-07-25T11:27:22Z</time>
      </trkpt>
      <trkpt lat="45.11837" lon="4.97007">
        <ele>207.52000427246</ele>
        <time>2009-07-25T11:27:25Z</time>
      </trkpt>
      <trkpt lat="45.11871" lon="4.97051">
        <ele>208.07699584961</ele>
        <time>2009-07-25T11:27:33Z</time>
      </trkpt>
      <trkpt lat="45.11877" lon="4.97101">
        <ele>206.44799804688</ele>
        <time>2009-07-25T11:27:39Z</time>
      </trkpt>
      <trkpt lat="45.11872" lon="4.97127">
        <ele>205.69599914551</ele>
        <time>2009-07-25T11:27:42Z</time>
      </trkpt>
      <trkpt lat="45.11886" lon="4.97241">
        <ele>205.06399536133</ele>
        <time>2009-07-25T11:27:54Z</time>
      </trkpt>
      <trkpt lat="45.11917" lon="4.97413">
        <ele>205.44099426269</ele>
        <time>2009-07-25T11:28:13Z</time>
      </trkpt>
      <trkpt lat="45.11942" lon="4.97554">
        <ele>207.00700378418</ele>
        <time>2009-07-25T11:28:31Z</time>
      </trkpt>
      <trkpt lat="45.11963" lon="4.97683">
        <ele>206.9880065918</ele>
        <time>2009-07-25T11:28:48Z</time>
      </trkpt>
      <trkpt lat="45.11988" lon="4.97828">
        <ele>208.3869934082</ele>
        <time>2009-07-25T11:29:07Z</time>
      </trkpt>
      <trkpt lat="45.12014" lon="4.97963">
        <ele>209.00399780273</ele>
        <time>2009-07-25T11:29:24Z</time>
      </trkpt>
      <trkpt lat="45.12053" lon="4.98112">
        <ele>212.15699768066</ele>
        <time>2009-07-25T11:29:44Z</time>
      </trkpt>
      <trkpt lat="45.12063" lon="4.9825">
        <ele>212.3690032959</ele>
        <time>2009-07-25T11:30:01Z</time>
      </trkpt>
      <trkpt lat="45.12041" lon="4.9838">
        <ele>214.12699890137</ele>
        <time>2009-07-25T11:30:18Z</time>
      </trkpt>
      <trkpt lat="45.12018" lon="4.98402">
        <ele>213.18600463867</ele>
        <time>2009-07-25T11:30:24Z</time>
      </trkpt>
      <trkpt lat="45.11992" lon="4.98393">
        <ele>212.35600280762</ele>
        <time>2009-07-25T11:30:28Z</time>
      </trkpt>
      <trkpt lat="45.11969" lon="4.98419">
        <ele>212.17999267578</ele>
        <time>2009-07-25T11:30:34Z</time>
      </trkpt>
      <trkpt lat="45.11977" lon="4.98437">
        <ele>212.65299987793</ele>
        <time>2009-07-25T11:30:37Z</time>
      </trkpt>
      <trkpt lat="45.11973" lon="4.98434">
        <ele>213.19799804688</ele>
        <time>2009-07-25T11:30:41Z</time>
      </trkpt>
      <trkpt lat="45.11974" lon="4.98433">
        <ele>213.27900695801</ele>
        <time>2009-07-25T11:30:43Z</time>
      </trkpt>
      <trkpt lat="45.11977" lon="4.98436">
        <ele>213.80599975586</ele>
        <time>2009-07-25T11:33:01Z</time>
      </trkpt>
      <trkpt lat="45.11977" lon="4.98436">
        <ele>214.01499938965</ele>
        <time>2009-07-25T11:33:02Z</time>
      </trkpt>
      <trkpt lat="45.11975" lon="4.98429">
        <ele>212.90199279785</ele>
        <time>2009-07-25T11:42:53Z</time>
      </trkpt>
      <trkpt lat="45.11975" lon="4.98423">
        <ele>212.88400268555</ele>
        <time>2009-07-25T11:42:55Z</time>
      </trkpt>
      <trkpt lat="45.1198" lon="4.98392">
        <ele>211.80999755859</ele>
        <time>2009-07-25T11:43:03Z</time>
      </trkpt>
      <trkpt lat="45.12016" lon="4.98403">
        <ele>213.16900634766</ele>
        <time>2009-07-25T11:43:14Z</time>
      </trkpt>
      <trkpt lat="45.12027" lon="4.98421">
        <ele>214.04299926758</ele>
        <time>2009-07-25T11:43:19Z</time>
      </trkpt>
      <trkpt lat="45.12025" lon="4.98437">
        <ele>213.99200439453</ele>
        <time>2009-07-25T11:43:22Z</time>
      </trkpt>
      <trkpt lat="45.12023" lon="4.98449">
        <ele>214.45599365234</ele>
        <time>2009-07-25T11:43:24Z</time>
      </trkpt>
      <trkpt lat="45.12014" lon="4.98567">
        <ele>213.71800231934</ele>
        <time>2009-07-25T11:43:41Z</time>
      </trkpt>
      <trkpt lat="45.12015" lon="4.98612">
        <ele>213.43800354004</ele>
        <time>2009-07-25T11:43:47Z</time>
      </trkpt>
      <trkpt lat="45.1204" lon="4.98766">
        <ele>213.125</ele>
        <time>2009-07-25T11:44:07Z</time>
      </trkpt>
      <trkpt lat="45.12082" lon="4.98881">
        <ele>214.46499633789</ele>
        <time>2009-07-25T11:44:23Z</time>
      </trkpt>
      <trkpt lat="45.12157" lon="4.99">
        <ele>216.90100097656</ele>
        <time>2009-07-25T11:44:43Z</time>
      </trkpt>
      <trkpt lat="45.12188" lon="4.99035">
        <ele>219.39500427246</ele>
        <time>2009-07-25T11:44:51Z</time>
      </trkpt>
      <trkpt lat="45.122" lon="4.99048">
        <ele>219.91000366211</ele>
        <time>2009-07-25T11:44:54Z</time>
      </trkpt>
      <trkpt lat="45.12207" lon="4.99109">
        <ele>219.31700134277</ele>
        <time>2009-07-25T11:45:03Z</time>
      </trkpt>
      <trkpt lat="45.12188" lon="4.99184">
        <ele>217.85299682617</ele>
        <time>2009-07-25T11:45:12Z</time>
      </trkpt>
      <trkpt lat="45.12146" lon="4.99336">
        <ele>217.18899536133</ele>
        <time>2009-07-25T11:45:30Z</time>
      </trkpt>
      <trkpt lat="45.12121" lon="4.99422">
        <ele>217.35400390625</ele>
        <time>2009-07-25T11:45:40Z</time>
      </trkpt>
      <trkpt lat="45.12057" lon="4.99548">
        <ele>219.63800048828</ele>
        <time>2009-07-25T11:45:58Z</time>
      </trkpt>
      <trkpt lat="45.11994" lon="4.9966">
        <ele>220.05799865723</ele>
        <time>2009-07-25T11:46:14Z</time>
      </trkpt>
      <trkpt lat="45.11962" lon="4.99725">
        <ele>219.17100524902</ele>
        <time>2009-07-25T11:46:23Z</time>
      </trkpt>
      <trkpt lat="45.11958" lon="4.99758">
        <ele>219.45100402832</ele>
        <time>2009-07-25T11:46:27Z</time>
      </trkpt>
      <trkpt lat="45.11959" lon="4.99819">
        <ele>218.77400207519</ele>
        <time>2009-07-25T11:46:34Z</time>
      </trkpt>
      <trkpt lat="45.11958" lon="4.99845">
        <ele>220.64700317383</ele>
        <time>2009-07-25T11:46:37Z</time>
      </trkpt>
      <trkpt lat="45.11964" lon="4.99877">
        <ele>219.20899963379</ele>
        <time>2009-07-25T11:46:41Z</time>
      </trkpt>
      <trkpt lat="45.1202" lon="4.9997">
        <ele>218.08700561523</ele>
        <time>2009-07-25T11:46:56Z</time>
      </trkpt>
      <trkpt lat="45.12045" lon="5.00017">
        <ele>218.35099792481</ele>
        <time>2009-07-25T11:47:03Z</time>
      </trkpt>
      <trkpt lat="45.12083" lon="5.00135">
        <ele>221.55000305176</ele>
        <time>2009-07-25T11:47:19Z</time>
      </trkpt>
      <trkpt lat="45.12085" lon="5.00141">
        <ele>221.72300720215</ele>
        <time>2009-07-25T11:47:20Z</time>
      </trkpt>
      <trkpt lat="45.1211" lon="5.00231">
        <ele>222.53100585938</ele>
        <time>2009-07-25T11:47:32Z</time>
      </trkpt>
      <trkpt lat="45.12139" lon="5.00293">
        <ele>222.25199890137</ele>
        <time>2009-07-25T11:47:41Z</time>
      </trkpt>
      <trkpt lat="45.12151" lon="5.00313">
        <ele>222.88299560547</ele>
        <time>2009-07-25T11:47:44Z</time>
      </trkpt>
      <trkpt lat="45.12245" lon="5.00412">
        <ele>222.34399414062</ele>
        <time>2009-07-25T11:48:02Z</time>
      </trkpt>
      <trkpt lat="45.123" lon="5.00497">
        <ele>225.15600585938</ele>
        <time>2009-07-25T11:48:17Z</time>
      </trkpt>
      <trkpt lat="45.1237" lon="5.0059">
        <ele>225.60699462891</ele>
        <time>2009-07-25T11:48:34Z</time>
      </trkpt>
      <trkpt lat="45.12439" lon="5.00657">
        <ele>227.19400024414</ele>
        <time>2009-07-25T11:48:49Z</time>
      </trkpt>
      <trkpt lat="45.12482" lon="5.00703">
        <ele>228.28199768066</ele>
        <time>2009-07-25T11:48:59Z</time>
      </trkpt>
      <trkpt lat="45.12536" lon="5.00772">
        <ele>229.5950012207</ele>
        <time>2009-07-25T11:49:12Z</time>
      </trkpt>
      <trkpt lat="45.12592" lon="5.00867">
        <ele>229.43699645996</ele>
        <time>2009-07-25T11:49:27Z</time>
      </trkpt>
      <trkpt lat="45.12613" lon="5.00901">
        <ele>229.61700439453</ele>
        <time>2009-07-25T11:49:32Z</time>
      </trkpt>
      <trkpt lat="45.12689" lon="5.01022">
        <ele>229.44900512695</ele>
        <time>2009-07-25T11:49:51Z</time>
      </trkpt>
      <trkpt lat="45.12746" lon="5.01075">
        <ele>231.33999633789</ele>
        <time>2009-07-25T11:50:04Z</time>
      </trkpt>
      <trkpt lat="45.12832" lon="5.01142">
        <ele>234.10200500488</ele>
        <time>2009-07-25T11:50:23Z</time>
      </trkpt>
      <trkpt lat="45.12891" lon="5.01229">
        <ele>234.83500671387</ele>
        <time>2009-07-25T11:50:39Z</time>
      </trkpt>
      <trkpt lat="45.12971" lon="5.01383">
        <ele>235.78100585938</ele>
        <time>2009-07-25T11:51:02Z</time>
      </trkpt>
      <trkpt lat="45.13037" lon="5.01507">
        <ele>237.7200012207</ele>
        <time>2009-07-25T11:51:22Z</time>
      </trkpt>
      <trkpt lat="45.13053" lon="5.01558">
        <ele>238.67799377441</ele>
        <time>2009-07-25T11:51:29Z</time>
      </trkpt>
      <trkpt lat="45.13071" lon="5.01615">
        <ele>239.55999755859</ele>
        <time>2009-07-25T11:51:37Z</time>
      </trkpt>
      <trkpt lat="45.13078" lon="5.01637">
        <ele>239.43800354004</ele>
        <time>2009-07-25T11:51:40Z</time>
      </trkpt>
      <trkpt lat="45.13083" lon="5.01676">
        <ele>239.39100646973</ele>
        <time>2009-07-25T11:51:45Z</time>
      </trkpt>
      <trkpt lat="45.13083" lon="5.01735">
        <ele>238.18899536133</ele>
        <time>2009-07-25T11:51:52Z</time>
      </trkpt>
      <trkpt lat="45.13085" lon="5.01795">
        <ele>237.91400146484</ele>
        <time>2009-07-25T11:51:59Z</time>
      </trkpt>
      <trkpt lat="45.1312" lon="5.01904">
        <ele>239.68499755859</ele>
        <time>2009-07-25T11:52:14Z</time>
      </trkpt>
      <trkpt lat="45.13158" lon="5.01998">
        <ele>242.18600463867</ele>
        <time>2009-07-25T11:52:29Z</time>
      </trkpt>
      <trkpt lat="45.13153" lon="5.02049">
        <ele>242.15899658203</ele>
        <time>2009-07-25T11:52:36Z</time>
      </trkpt>
      <trkpt lat="45.13148" lon="5.02063">
        <ele>242.44599914551</ele>
        <time>2009-07-25T11:52:38Z</time>
      </trkpt>
      <trkpt lat="45.13141" lon="5.02075">
        <ele>242.64700317383</ele>
        <time>2009-07-25T11:52:40Z</time>
      </trkpt>
      <trkpt lat="45.13113" lon="5.02097">
        <ele>243.01699829102</ele>
        <time>2009-07-25T11:52:46Z</time>
      </trkpt>
      <trkpt lat="45.13102" lon="5.02101">
        <ele>242.99800109863</ele>
        <time>2009-07-25T11:52:48Z</time>
      </trkpt>
      <trkpt lat="45.13018" lon="5.02091">
        <ele>244.49200439453</ele>
        <time>2009-07-25T11:53:03Z</time>
      </trkpt>
      <trkpt lat="45.12911" lon="5.02073">
        <ele>247.22900390625</ele>
        <time>2009-07-25T11:53:21Z</time>
      </trkpt>
      <trkpt lat="45.12894" lon="5.02071">
        <ele>248.26499938965</ele>
        <time>2009-07-25T11:53:24Z</time>
      </trkpt>
      <trkpt lat="45.12883" lon="5.02096">
        <ele>248.75100708008</ele>
        <time>2009-07-25T11:53:30Z</time>
      </trkpt>
      <trkpt lat="45.12887" lon="5.02107">
        <ele>248.83099365234</ele>
        <time>2009-07-25T11:53:32Z</time>
      </trkpt>
      <trkpt lat="45.12934" lon="5.022">
        <ele>246.54299926758</ele>
        <time>2009-07-25T11:53:47Z</time>
      </trkpt>
      <trkpt lat="45.12992" lon="5.02283">
        <ele>246.62600708008</ele>
        <time>2009-07-25T11:54:01Z</time>
      </trkpt>
      <trkpt lat="45.13021" lon="5.0232">
        <ele>245.81599426269</ele>
        <time>2009-07-25T11:54:08Z</time>
      </trkpt>
      <trkpt lat="45.13041" lon="5.0235">
        <ele>245.59300231934</ele>
        <time>2009-07-25T11:54:13Z</time>
      </trkpt>
      <trkpt lat="45.13054" lon="5.02375">
        <ele>246.77299499512</ele>
        <time>2009-07-25T11:54:17Z</time>
      </trkpt>
      <trkpt lat="45.13063" lon="5.02402">
        <ele>246.83000183106</ele>
        <time>2009-07-25T11:54:21Z</time>
      </trkpt>
      <trkpt lat="45.13066" lon="5.02504">
        <ele>246.55599975586</ele>
        <time>2009-07-25T11:54:34Z</time>
      </trkpt>
      <trkpt lat="45.13081" lon="5.02598">
        <ele>247.63999938965</ele>
        <time>2009-07-25T11:54:46Z</time>
      </trkpt>
      <trkpt lat="45.131" lon="5.02659">
        <ele>249.96899414062</ele>
        <time>2009-07-25T11:54:55Z</time>
      </trkpt>
      <trkpt lat="45.13122" lon="5.027">
        <ele>252.63600158691</ele>
        <time>2009-07-25T11:55:03Z</time>
      </trkpt>
      <trkpt lat="45.1313" lon="5.02714">
        <ele>254.07800292969</ele>
        <time>2009-07-25T11:55:06Z</time>
      </trkpt>
      <trkpt lat="45.13141" lon="5.02736">
        <ele>255.63499450684</ele>
        <time>2009-07-25T11:55:11Z</time>
      </trkpt>
      <trkpt lat="45.13158" lon="5.02767">
        <ele>257.43399047852</ele>
        <time>2009-07-25T11:55:18Z</time>
      </trkpt>
      <trkpt lat="45.13184" lon="5.02809">
        <ele>260.67700195312</ele>
        <time>2009-07-25T11:55:28Z</time>
      </trkpt>
      <trkpt lat="45.13208" lon="5.02865">
        <ele>263.01901245117</ele>
        <time>2009-07-25T11:55:40Z</time>
      </trkpt>
      <trkpt lat="45.1321" lon="5.02875">
        <ele>264.26400756836</ele>
        <time>2009-07-25T11:55:42Z</time>
      </trkpt>
      <trkpt lat="45.13211" lon="5.02892">
        <ele>264.60998535156</ele>
        <time>2009-07-25T11:55:45Z</time>
      </trkpt>
      <trkpt lat="45.13205" lon="5.02949">
        <ele>266.8630065918</ele>
        <time>2009-07-25T11:55:55Z</time>
      </trkpt>
      <trkpt lat="45.13199" lon="5.02966">
        <ele>267.60598754883</ele>
        <time>2009-07-25T11:55:58Z</time>
      </trkpt>
      <trkpt lat="45.13178" lon="5.0302">
        <ele>269.48400878906</ele>
        <time>2009-07-25T11:56:08Z</time>
      </trkpt>
      <trkpt lat="45.13173" lon="5.03039">
        <ele>269.60000610352</ele>
        <time>2009-07-25T11:56:11Z</time>
      </trkpt>
      <trkpt lat="45.1316" lon="5.0317">
        <ele>273.71899414062</ele>
        <time>2009-07-25T11:56:31Z</time>
      </trkpt>
      <trkpt lat="45.13152" lon="5.0327">
        <ele>278.35000610352</ele>
        <time>2009-07-25T11:56:49Z</time>
      </trkpt>
      <trkpt lat="45.13152" lon="5.03304">
        <ele>279.9460144043</ele>
        <time>2009-07-25T11:56:55Z</time>
      </trkpt>
      <trkpt lat="45.13156" lon="5.03384">
        <ele>281.50100708008</ele>
        <time>2009-07-25T11:57:09Z</time>
      </trkpt>
      <trkpt lat="45.13158" lon="5.03408">
        <ele>281.76400756836</ele>
        <time>2009-07-25T11:57:14Z</time>
      </trkpt>
      <trkpt lat="45.1316" lon="5.03431">
        <ele>282.32800292969</ele>
        <time>2009-07-25T11:57:19Z</time>
      </trkpt>
      <trkpt lat="45.13163" lon="5.0346">
        <ele>281.10299682617</ele>
        <time>2009-07-25T11:57:25Z</time>
      </trkpt>
      <trkpt lat="45.13169" lon="5.0349">
        <ele>281.08099365234</ele>
        <time>2009-07-25T11:57:31Z</time>
      </trkpt>
      <trkpt lat="45.13177" lon="5.03508">
        <ele>280.62799072266</ele>
        <time>2009-07-25T11:57:35Z</time>
      </trkpt>
      <trkpt lat="45.13191" lon="5.03531">
        <ele>280.72601318359</ele>
        <time>2009-07-25T11:57:41Z</time>
      </trkpt>
      <trkpt lat="45.13208" lon="5.03552">
        <ele>280.44900512695</ele>
        <time>2009-07-25T11:57:47Z</time>
      </trkpt>
      <trkpt lat="45.13218" lon="5.03569">
        <ele>279.9880065918</ele>
        <time>2009-07-25T11:57:51Z</time>
      </trkpt>
      <trkpt lat="45.13221" lon="5.03594">
        <ele>280.64001464844</ele>
        <time>2009-07-25T11:57:56Z</time>
      </trkpt>
      <trkpt lat="45.13221" lon="5.03638">
        <ele>281.45700073242</ele>
        <time>2009-07-25T11:58:04Z</time>
      </trkpt>
      <trkpt lat="45.13215" lon="5.03695">
        <ele>282.30899047852</ele>
        <time>2009-07-25T11:58:13Z</time>
      </trkpt>
      <trkpt lat="45.13205" lon="5.03781">
        <ele>283.70300292969</ele>
        <time>2009-07-25T11:58:27Z</time>
      </trkpt>
      <trkpt lat="45.13202" lon="5.03793">
        <ele>283.625</ele>
        <time>2009-07-25T11:58:29Z</time>
      </trkpt>
      <trkpt lat="45.1319" lon="5.03818">
        <ele>283.48699951172</ele>
        <time>2009-07-25T11:58:33Z</time>
      </trkpt>
      <trkpt lat="45.13137" lon="5.03873">
        <ele>282.97900390625</ele>
        <time>2009-07-25T11:58:44Z</time>
      </trkpt>
      <trkpt lat="45.13113" lon="5.03916">
        <ele>282.81900024414</ele>
        <time>2009-07-25T11:58:50Z</time>
      </trkpt>
      <trkpt lat="45.13103" lon="5.03978">
        <ele>285.99700927734</ele>
        <time>2009-07-25T11:58:59Z</time>
      </trkpt>
      <trkpt lat="45.13103" lon="5.04006">
        <ele>287.46099853516</ele>
        <time>2009-07-25T11:59:04Z</time>
      </trkpt>
      <trkpt lat="45.13105" lon="5.04027">
        <ele>288.8210144043</ele>
        <time>2009-07-25T11:59:08Z</time>
      </trkpt>
      <trkpt lat="45.13107" lon="5.04037">
        <ele>289.30099487305</ele>
        <time>2009-07-25T11:59:10Z</time>
      </trkpt>
      <trkpt lat="45.13113" lon="5.04067">
        <ele>290.72100830078</ele>
        <time>2009-07-25T11:59:16Z</time>
      </trkpt>
      <trkpt lat="45.13123" lon="5.04111">
        <ele>292.81900024414</ele>
        <time>2009-07-25T11:59:25Z</time>
      </trkpt>
      <trkpt lat="45.1313" lon="5.0414">
        <ele>294.52200317383</ele>
        <time>2009-07-25T11:59:31Z</time>
      </trkpt>
      <trkpt lat="45.13131" lon="5.0415">
        <ele>295.35598754883</ele>
        <time>2009-07-25T11:59:33Z</time>
      </trkpt>
      <trkpt lat="45.13135" lon="5.04186">
        <ele>296.53399658203</ele>
        <time>2009-07-25T11:59:40Z</time>
      </trkpt>
      <trkpt lat="45.13136" lon="5.04228">
        <ele>299.36999511719</ele>
        <time>2009-07-25T11:59:48Z</time>
      </trkpt>
      <trkpt lat="45.13135" lon="5.04262">
        <ele>301.21200561523</ele>
        <time>2009-07-25T11:59:54Z</time>
      </trkpt>
      <trkpt lat="45.13111" lon="5.04369">
        <ele>297.30499267578</ele>
        <time>2009-07-25T12:00:09Z</time>
      </trkpt>
      <trkpt lat="45.13094" lon="5.04416">
        <ele>295.62600708008</ele>
        <time>2009-07-25T12:00:14Z</time>
      </trkpt>
      <trkpt lat="45.1307" lon="5.04479">
        <ele>293.76800537109</ele>
        <time>2009-07-25T12:00:20Z</time>
      </trkpt>
      <trkpt lat="45.13057" lon="5.04513">
        <ele>292.37899780273</ele>
        <time>2009-07-25T12:00:23Z</time>
      </trkpt>
      <trkpt lat="45.13034" lon="5.04577">
        <ele>290.96499633789</ele>
        <time>2009-07-25T12:00:29Z</time>
      </trkpt>
      <trkpt lat="45.13027" lon="5.04594">
        <ele>291.2200012207</ele>
        <time>2009-07-25T12:00:32Z</time>
      </trkpt>
      <trkpt lat="45.13016" lon="5.04624">
        <ele>290.79299926758</ele>
        <time>2009-07-25T12:00:39Z</time>
      </trkpt>
      <trkpt lat="45.12994" lon="5.04691">
        <ele>292.3210144043</ele>
        <time>2009-07-25T12:00:52Z</time>
      </trkpt>
      <trkpt lat="45.12973" lon="5.0475">
        <ele>295.43499755859</ele>
        <time>2009-07-25T12:01:06Z</time>
      </trkpt>
      <trkpt lat="45.12962" lon="5.04814">
        <ele>298.36898803711</ele>
        <time>2009-07-25T12:01:19Z</time>
      </trkpt>
      <trkpt lat="45.12961" lon="5.04819">
        <ele>298.63900756836</ele>
        <time>2009-07-25T12:01:20Z</time>
      </trkpt>
      <trkpt lat="45.12947" lon="5.04891">
        <ele>301.25299072266</ele>
        <time>2009-07-25T12:01:33Z</time>
      </trkpt>
      <trkpt lat="45.12936" lon="5.04951">
        <ele>303.97500610352</ele>
        <time>2009-07-25T12:01:44Z</time>
      </trkpt>
      <trkpt lat="45.1292" lon="5.05031">
        <ele>306.45901489258</ele>
        <time>2009-07-25T12:01:58Z</time>
      </trkpt>
      <trkpt lat="45.12907" lon="5.05118">
        <ele>306.54000854492</ele>
        <time>2009-07-25T12:02:12Z</time>
      </trkpt>
      <trkpt lat="45.12907" lon="5.05165">
        <ele>305.83599853516</ele>
        <time>2009-07-25T12:02:18Z</time>
      </trkpt>
      <trkpt lat="45.12915" lon="5.05219">
        <ele>303.39801025391</ele>
        <time>2009-07-25T12:02:24Z</time>
      </trkpt>
      <trkpt lat="45.12922" lon="5.05252">
        <ele>302.37100219727</ele>
        <time>2009-07-25T12:02:28Z</time>
      </trkpt>
      <trkpt lat="45.1293" lon="5.0528">
        <ele>303.04000854492</ele>
        <time>2009-07-25T12:02:32Z</time>
      </trkpt>
      <trkpt lat="45.12957" lon="5.0538">
        <ele>304.10900878906</ele>
        <time>2009-07-25T12:02:47Z</time>
      </trkpt>
      <trkpt lat="45.12974" lon="5.05409">
        <ele>305.3450012207</ele>
        <time>2009-07-25T12:02:53Z</time>
      </trkpt>
      <trkpt lat="45.13027" lon="5.05447">
        <ele>308.88800048828</ele>
        <time>2009-07-25T12:03:07Z</time>
      </trkpt>
      <trkpt lat="45.13049" lon="5.05464">
        <ele>309.76000976562</ele>
        <time>2009-07-25T12:03:13Z</time>
      </trkpt>
      <trkpt lat="45.13084" lon="5.05511">
        <ele>313.67700195312</ele>
        <time>2009-07-25T12:03:26Z</time>
      </trkpt>
      <trkpt lat="45.13099" lon="5.05546">
        <ele>315.60598754883</ele>
        <time>2009-07-25T12:03:34Z</time>
      </trkpt>
      <trkpt lat="45.13101" lon="5.05551">
        <ele>316.12200927734</ele>
        <time>2009-07-25T12:03:35Z</time>
      </trkpt>
      <trkpt lat="45.13114" lon="5.05576">
        <ele>317.48498535156</ele>
        <time>2009-07-25T12:03:41Z</time>
      </trkpt>
      <trkpt lat="45.13148" lon="5.0561">
        <ele>319.88800048828</ele>
        <time>2009-07-25T12:03:54Z</time>
      </trkpt>
      <trkpt lat="45.13174" lon="5.05643">
        <ele>320.48199462891</ele>
        <time>2009-07-25T12:04:05Z</time>
      </trkpt>
      <trkpt lat="45.13191" lon="5.05664">
        <ele>321.54800415039</ele>
        <time>2009-07-25T12:04:12Z</time>
      </trkpt>
      <trkpt lat="45.13199" lon="5.05677">
        <ele>321.52200317383</ele>
        <time>2009-07-25T12:04:16Z</time>
      </trkpt>
      <trkpt lat="45.1321" lon="5.05698">
        <ele>320.68399047852</ele>
        <time>2009-07-25T12:04:21Z</time>
      </trkpt>
      <trkpt lat="45.13226" lon="5.05737">
        <ele>320.31900024414</ele>
        <time>2009-07-25T12:04:28Z</time>
      </trkpt>
      <trkpt lat="45.13246" lon="5.05802">
        <ele>321.27099609375</ele>
        <time>2009-07-25T12:04:39Z</time>
      </trkpt>
      <trkpt lat="45.13265" lon="5.05857">
        <ele>321.47900390625</ele>
        <time>2009-07-25T12:04:48Z</time>
      </trkpt>
      <trkpt lat="45.13277" lon="5.0597">
        <ele>322.83999633789</ele>
        <time>2009-07-25T12:05:05Z</time>
      </trkpt>
      <trkpt lat="45.13281" lon="5.06039">
        <ele>322.66400146484</ele>
        <time>2009-07-25T12:05:15Z</time>
      </trkpt>
      <trkpt lat="45.13283" lon="5.06056">
        <ele>322.12200927734</ele>
        <time>2009-07-25T12:05:17Z</time>
      </trkpt>
      <trkpt lat="45.13283" lon="5.06082">
        <ele>320.92700195312</ele>
        <time>2009-07-25T12:05:20Z</time>
      </trkpt>
      <trkpt lat="45.1328" lon="5.06098">
        <ele>319.67199707031</ele>
        <time>2009-07-25T12:05:22Z</time>
      </trkpt>
      <trkpt lat="45.13271" lon="5.0612">
        <ele>320.53298950195</ele>
        <time>2009-07-25T12:05:25Z</time>
      </trkpt>
      <trkpt lat="45.13236" lon="5.06255">
        <ele>320.39599609375</ele>
        <time>2009-07-25T12:05:43Z</time>
      </trkpt>
      <trkpt lat="45.13224" lon="5.06307">
        <ele>319.39001464844</ele>
        <time>2009-07-25T12:05:50Z</time>
      </trkpt>
      <trkpt lat="45.13219" lon="5.06322">
        <ele>318.84201049805</ele>
        <time>2009-07-25T12:05:52Z</time>
      </trkpt>
      <trkpt lat="45.13195" lon="5.06363">
        <ele>315.96099853516</ele>
        <time>2009-07-25T12:05:57Z</time>
      </trkpt>
      <trkpt lat="45.13173" lon="5.064">
        <ele>313.1369934082</ele>
        <time>2009-07-25T12:06:01Z</time>
      </trkpt>
      <trkpt lat="45.13163" lon="5.06416">
        <ele>312.14599609375</ele>
        <time>2009-07-25T12:06:03Z</time>
      </trkpt>
      <trkpt lat="45.13158" lon="5.06423">
        <ele>311.95999145508</ele>
        <time>2009-07-25T12:06:04Z</time>
      </trkpt>
      <trkpt lat="45.13142" lon="5.06445">
        <ele>312.67401123047</ele>
        <time>2009-07-25T12:06:11Z</time>
      </trkpt>
      <trkpt lat="45.13141" lon="5.06446">
        <ele>312.92498779297</ele>
        <time>2009-07-25T12:06:12Z</time>
      </trkpt>
      <trkpt lat="45.13145" lon="5.06467">
        <ele>312.14401245117</ele>
        <time>2009-07-25T12:06:17Z</time>
      </trkpt>
      <trkpt lat="45.1315" lon="5.06476">
        <ele>312.49301147461</ele>
        <time>2009-07-25T12:06:19Z</time>
      </trkpt>
      <trkpt lat="45.13158" lon="5.06491">
        <ele>313.17098999023</ele>
        <time>2009-07-25T12:06:22Z</time>
      </trkpt>
      <trkpt lat="45.13193" lon="5.06542">
        <ele>314.08599853516</ele>
        <time>2009-07-25T12:06:33Z</time>
      </trkpt>
      <trkpt lat="45.13224" lon="5.06583">
        <ele>315.3330078125</ele>
        <time>2009-07-25T12:06:42Z</time>
      </trkpt>
      <trkpt lat="45.13301" lon="5.06675">
        <ele>317.73498535156</ele>
        <time>2009-07-25T12:07:03Z</time>
      </trkpt>
      <trkpt lat="45.13354" lon="5.06738">
        <ele>321.1789855957</ele>
        <time>2009-07-25T12:07:18Z</time>
      </trkpt>
      <trkpt lat="45.13382" lon="5.06771">
        <ele>321.53399658203</ele>
        <time>2009-07-25T12:07:26Z</time>
      </trkpt>
      <trkpt lat="45.13421" lon="5.06814">
        <ele>322.39199829102</ele>
        <time>2009-07-25T12:07:37Z</time>
      </trkpt>
      <trkpt lat="45.13448" lon="5.06841">
        <ele>323.95300292969</ele>
        <time>2009-07-25T12:07:44Z</time>
      </trkpt>
      <trkpt lat="45.13471" lon="5.06861">
        <ele>324.94198608398</ele>
        <time>2009-07-25T12:07:50Z</time>
      </trkpt>
      <trkpt lat="45.13494" lon="5.06881">
        <ele>325.62600708008</ele>
        <time>2009-07-25T12:07:56Z</time>
      </trkpt>
      <trkpt lat="45.13548" lon="5.06927">
        <ele>325.92098999023</ele>
        <time>2009-07-25T12:08:10Z</time>
      </trkpt>
      <trkpt lat="45.13624" lon="5.06987">
        <ele>327.08999633789</ele>
        <time>2009-07-25T12:08:30Z</time>
      </trkpt>
      <trkpt lat="45.13701" lon="5.07031">
        <ele>328.81698608398</ele>
        <time>2009-07-25T12:08:48Z</time>
      </trkpt>
      <trkpt lat="45.13796" lon="5.07114">
        <ele>330.87600708008</ele>
        <time>2009-07-25T12:09:10Z</time>
      </trkpt>
      <trkpt lat="45.13876" lon="5.07195">
        <ele>332.83401489258</ele>
        <time>2009-07-25T12:09:30Z</time>
      </trkpt>
      <trkpt lat="45.13954" lon="5.07272">
        <ele>336.36599731445</ele>
        <time>2009-07-25T12:09:50Z</time>
      </trkpt>
      <trkpt lat="45.14018" lon="5.07337">
        <ele>339.47100830078</ele>
        <time>2009-07-25T12:10:08Z</time>
      </trkpt>
      <trkpt lat="45.14085" lon="5.074">
        <ele>343.94000244141</ele>
        <time>2009-07-25T12:10:27Z</time>
      </trkpt>
      <trkpt lat="45.14127" lon="5.07443">
        <ele>345.4700012207</ele>
        <time>2009-07-25T12:10:40Z</time>
      </trkpt>
      <trkpt lat="45.14144" lon="5.0746">
        <ele>346.14199829102</ele>
        <time>2009-07-25T12:10:45Z</time>
      </trkpt>
      <trkpt lat="45.14188" lon="5.07509">
        <ele>349.4880065918</ele>
        <time>2009-07-25T12:10:58Z</time>
      </trkpt>
      <trkpt lat="45.14231" lon="5.07572">
        <ele>352.77099609375</ele>
        <time>2009-07-25T12:11:11Z</time>
      </trkpt>
      <trkpt lat="45.14295" lon="5.07646">
        <ele>353.63101196289</ele>
        <time>2009-07-25T12:11:29Z</time>
      </trkpt>
      <trkpt lat="45.1433" lon="5.07685">
        <ele>355.2080078125</ele>
        <time>2009-07-25T12:11:39Z</time>
      </trkpt>
      <trkpt lat="45.14359" lon="5.07719">
        <ele>355.52600097656</ele>
        <time>2009-07-25T12:11:47Z</time>
      </trkpt>
      <trkpt lat="45.14393" lon="5.07758">
        <ele>356.11700439453</ele>
        <time>2009-07-25T12:11:56Z</time>
      </trkpt>
      <trkpt lat="45.14414" lon="5.07782">
        <ele>356.10400390625</ele>
        <time>2009-07-25T12:12:01Z</time>
      </trkpt>
      <trkpt lat="45.14418" lon="5.07786">
        <ele>356.10598754883</ele>
        <time>2009-07-25T12:12:02Z</time>
      </trkpt>
      <trkpt lat="45.14427" lon="5.07796">
        <ele>356.07501220703</ele>
        <time>2009-07-25T12:12:04Z</time>
      </trkpt>
      <trkpt lat="45.1445" lon="5.07822">
        <ele>355.23999023438</ele>
        <time>2009-07-25T12:12:09Z</time>
      </trkpt>
      <trkpt lat="45.14514" lon="5.07896">
        <ele>353.35900878906</ele>
        <time>2009-07-25T12:12:23Z</time>
      </trkpt>
      <trkpt lat="45.14556" lon="5.07955">
        <ele>352.1960144043</ele>
        <time>2009-07-25T12:12:33Z</time>
      </trkpt>
      <trkpt lat="45.14616" lon="5.08034">
        <ele>353.83700561523</ele>
        <time>2009-07-25T12:12:48Z</time>
      </trkpt>
      <trkpt lat="45.14669" lon="5.08105">
        <ele>355.05999755859</ele>
        <time>2009-07-25T12:13:02Z</time>
      </trkpt>
      <trkpt lat="45.14727" lon="5.08177">
        <ele>358.21499633789</ele>
        <time>2009-07-25T12:13:17Z</time>
      </trkpt>
      <trkpt lat="45.14785" lon="5.08248">
        <ele>356.59600830078</ele>
        <time>2009-07-25T12:13:32Z</time>
      </trkpt>
      <trkpt lat="45.1486" lon="5.08338">
        <ele>354.07800292969</ele>
        <time>2009-07-25T12:13:47Z</time>
      </trkpt>
      <trkpt lat="45.14942" lon="5.08384">
        <ele>353.44400024414</ele>
        <time>2009-07-25T12:13:59Z</time>
      </trkpt>
      <trkpt lat="45.1496" lon="5.08395">
        <ele>353.3039855957</ele>
        <time>2009-07-25T12:14:02Z</time>
      </trkpt>
      <trkpt lat="45.14972" lon="5.08401">
        <ele>353.87100219727</ele>
        <time>2009-07-25T12:14:04Z</time>
      </trkpt>
      <trkpt lat="45.15004" lon="5.08419">
        <ele>355.23199462891</ele>
        <time>2009-07-25T12:14:10Z</time>
      </trkpt>
      <trkpt lat="45.15049" lon="5.08442">
        <ele>357.47500610352</ele>
        <time>2009-07-25T12:14:20Z</time>
      </trkpt>
      <trkpt lat="45.15065" lon="5.08452">
        <ele>358.26800537109</ele>
        <time>2009-07-25T12:14:24Z</time>
      </trkpt>
      <trkpt lat="45.15086" lon="5.08464">
        <ele>359.41598510742</ele>
        <time>2009-07-25T12:14:29Z</time>
      </trkpt>
      <trkpt lat="45.15112" lon="5.08479">
        <ele>361.33200073242</ele>
        <time>2009-07-25T12:14:36Z</time>
      </trkpt>
      <trkpt lat="45.15135" lon="5.08494">
        <ele>362.85299682617</ele>
        <time>2009-07-25T12:14:43Z</time>
      </trkpt>
      <trkpt lat="45.15165" lon="5.08509">
        <ele>365.16299438477</ele>
        <time>2009-07-25T12:14:51Z</time>
      </trkpt>
      <trkpt lat="45.152" lon="5.08529">
        <ele>367.41900634766</ele>
        <time>2009-07-25T12:15:01Z</time>
      </trkpt>
      <trkpt lat="45.15204" lon="5.08531">
        <ele>367.82998657227</ele>
        <time>2009-07-25T12:15:02Z</time>
      </trkpt>
      <trkpt lat="45.15261" lon="5.08562">
        <ele>372.14700317383</ele>
        <time>2009-07-25T12:15:18Z</time>
      </trkpt>
      <trkpt lat="45.15328" lon="5.08598">
        <ele>376.83801269531</ele>
        <time>2009-07-25T12:15:37Z</time>
      </trkpt>
      <trkpt lat="45.15358" lon="5.08615">
        <ele>378.56298828125</ele>
        <time>2009-07-25T12:15:46Z</time>
      </trkpt>
      <trkpt lat="45.154" lon="5.08653">
        <ele>382.52801513672</ele>
        <time>2009-07-25T12:16:00Z</time>
      </trkpt>
      <trkpt lat="45.15444" lon="5.0872">
        <ele>385.95199584961</ele>
        <time>2009-07-25T12:16:17Z</time>
      </trkpt>
      <trkpt lat="45.15471" lon="5.08763">
        <ele>388.83099365234</ele>
        <time>2009-07-25T12:16:28Z</time>
      </trkpt>
      <trkpt lat="45.15516" lon="5.0883">
        <ele>393.68499755859</ele>
        <time>2009-07-25T12:16:46Z</time>
      </trkpt>
      <trkpt lat="45.15555" lon="5.08883">
        <ele>395.89199829102</ele>
        <time>2009-07-25T12:17:02Z</time>
      </trkpt>
      <trkpt lat="45.1558" lon="5.08917">
        <ele>395.71200561523</ele>
        <time>2009-07-25T12:17:11Z</time>
      </trkpt>
      <trkpt lat="45.15598" lon="5.0894">
        <ele>395.54000854492</ele>
        <time>2009-07-25T12:17:17Z</time>
      </trkpt>
      <trkpt lat="45.15601" lon="5.08944">
        <ele>395.76000976562</ele>
        <time>2009-07-25T12:17:18Z</time>
      </trkpt>
      <trkpt lat="45.15621" lon="5.08969">
        <ele>394.62200927734</ele>
        <time>2009-07-25T12:17:24Z</time>
      </trkpt>
      <trkpt lat="45.15644" lon="5.09">
        <ele>393.05200195312</ele>
        <time>2009-07-25T12:17:31Z</time>
      </trkpt>
      <trkpt lat="45.15658" lon="5.09018">
        <ele>393.01098632812</ele>
        <time>2009-07-25T12:17:35Z</time>
      </trkpt>
      <trkpt lat="45.15684" lon="5.09052">
        <ele>393.82699584961</ele>
        <time>2009-07-25T12:17:43Z</time>
      </trkpt>
      <trkpt lat="45.15736" lon="5.09122">
        <ele>395.88198852539</ele>
        <time>2009-07-25T12:18:00Z</time>
      </trkpt>
      <trkpt lat="45.15739" lon="5.09126">
        <ele>396.01300048828</ele>
        <time>2009-07-25T12:18:01Z</time>
      </trkpt>
      <trkpt lat="45.1582" lon="5.0923">
        <ele>394.44500732422</ele>
        <time>2009-07-25T12:18:27Z</time>
      </trkpt>
      <trkpt lat="45.15851" lon="5.09272">
        <ele>394.23699951172</ele>
        <time>2009-07-25T12:18:39Z</time>
      </trkpt>
      <trkpt lat="45.1589" lon="5.09327">
        <ele>395.64001464844</ele>
        <time>2009-07-25T12:18:55Z</time>
      </trkpt>
      <trkpt lat="45.15932" lon="5.09383">
        <ele>398.32998657227</ele>
        <time>2009-07-25T12:19:12Z</time>
      </trkpt>
      <trkpt lat="45.1595" lon="5.09408">
        <ele>399.29299926758</ele>
        <time>2009-07-25T12:19:20Z</time>
      </trkpt>
      <trkpt lat="45.15964" lon="5.09427">
        <ele>400.13900756836</ele>
        <time>2009-07-25T12:19:26Z</time>
      </trkpt>
      <trkpt lat="45.15993" lon="5.09468">
        <ele>402.39099121094</ele>
        <time>2009-07-25T12:19:39Z</time>
      </trkpt>
      <trkpt lat="45.16029" lon="5.09524">
        <ele>405.25900268555</ele>
        <time>2009-07-25T12:19:55Z</time>
      </trkpt>
      <trkpt lat="45.16069" lon="5.09572">
        <ele>405.87600708008</ele>
        <time>2009-07-25T12:20:11Z</time>
      </trkpt>
      <trkpt lat="45.16095" lon="5.0959">
        <ele>409.04901123047</ele>
        <time>2009-07-25T12:20:20Z</time>
      </trkpt>
      <trkpt lat="45.1614" lon="5.09612">
        <ele>411.63598632812</ele>
        <time>2009-07-25T12:20:34Z</time>
      </trkpt>
      <trkpt lat="45.16188" lon="5.096">
        <ele>413.72198486328</ele>
        <time>2009-07-25T12:20:49Z</time>
      </trkpt>
      <trkpt lat="45.1622" lon="5.0958">
        <ele>415.26501464844</ele>
        <time>2009-07-25T12:21:00Z</time>
      </trkpt>
      <trkpt lat="45.16257" lon="5.0955">
        <ele>417.95599365234</ele>
        <time>2009-07-25T12:21:13Z</time>
      </trkpt>
      <trkpt lat="45.16293" lon="5.09536">
        <ele>421.00900268555</ele>
        <time>2009-07-25T12:21:25Z</time>
      </trkpt>
      <trkpt lat="45.1633" lon="5.09574">
        <ele>423.25500488281</ele>
        <time>2009-07-25T12:21:39Z</time>
      </trkpt>
      <trkpt lat="45.16376" lon="5.09602">
        <ele>426.54098510742</ele>
        <time>2009-07-25T12:21:54Z</time>
      </trkpt>
      <trkpt lat="45.16426" lon="5.09615">
        <ele>429.39300537109</ele>
        <time>2009-07-25T12:22:09Z</time>
      </trkpt>
      <trkpt lat="45.1646" lon="5.09644">
        <ele>431.30599975586</ele>
        <time>2009-07-25T12:22:21Z</time>
      </trkpt>
      <trkpt lat="45.16442" lon="5.09669">
        <ele>432.87298583984</ele>
        <time>2009-07-25T12:22:29Z</time>
      </trkpt>
      <trkpt lat="45.16391" lon="5.09706">
        <ele>435.69900512695</ele>
        <time>2009-07-25T12:22:45Z</time>
      </trkpt>
      <trkpt lat="45.16391" lon="5.0976">
        <ele>437.61401367188</ele>
        <time>2009-07-25T12:22:56Z</time>
      </trkpt>
      <trkpt lat="45.16427" lon="5.09785">
        <ele>440.5530090332</ele>
        <time>2009-07-25T12:23:08Z</time>
      </trkpt>
      <trkpt lat="45.1647" lon="5.09805">
        <ele>442.49600219727</ele>
        <time>2009-07-25T12:23:20Z</time>
      </trkpt>
      <trkpt lat="45.16523" lon="5.09849">
        <ele>445.95199584961</ele>
        <time>2009-07-25T12:23:37Z</time>
      </trkpt>
      <trkpt lat="45.16559" lon="5.0989">
        <ele>448.90399169922</ele>
        <time>2009-07-25T12:23:51Z</time>
      </trkpt>
      <trkpt lat="45.16589" lon="5.09918">
        <ele>450.61999511719</ele>
        <time>2009-07-25T12:24:02Z</time>
      </trkpt>
      <trkpt lat="45.16628" lon="5.09962">
        <ele>453.4700012207</ele>
        <time>2009-07-25T12:24:15Z</time>
      </trkpt>
      <trkpt lat="45.16668" lon="5.10003">
        <ele>456.14401245117</ele>
        <time>2009-07-25T12:24:28Z</time>
      </trkpt>
      <trkpt lat="45.16722" lon="5.10028">
        <ele>457.70401000977</ele>
        <time>2009-07-25T12:24:42Z</time>
      </trkpt>
      <trkpt lat="45.16774" lon="5.10078">
        <ele>459.70199584961</ele>
        <time>2009-07-25T12:24:57Z</time>
      </trkpt>
      <trkpt lat="45.16806" lon="5.10149">
        <ele>461.40100097656</ele>
        <time>2009-07-25T12:25:11Z</time>
      </trkpt>
      <trkpt lat="45.16824" lon="5.10193">
        <ele>461.65100097656</ele>
        <time>2009-07-25T12:25:20Z</time>
      </trkpt>
      <trkpt lat="45.16845" lon="5.1024">
        <ele>463.81100463867</ele>
        <time>2009-07-25T12:25:31Z</time>
      </trkpt>
      <trkpt lat="45.16883" lon="5.10308">
        <ele>464.82299804688</ele>
        <time>2009-07-25T12:25:48Z</time>
      </trkpt>
      <trkpt lat="45.16915" lon="5.10366">
        <ele>465.72198486328</ele>
        <time>2009-07-25T12:26:01Z</time>
      </trkpt>
      <trkpt lat="45.16942" lon="5.10409">
        <ele>466.28900146484</ele>
        <time>2009-07-25T12:26:11Z</time>
      </trkpt>
      <trkpt lat="45.16971" lon="5.10449">
        <ele>465.82299804688</ele>
        <time>2009-07-25T12:26:21Z</time>
      </trkpt>
      <trkpt lat="45.17007" lon="5.10497">
        <ele>466.38400268555</ele>
        <time>2009-07-25T12:26:34Z</time>
      </trkpt>
      <trkpt lat="45.17033" lon="5.10537">
        <ele>467.85699462891</ele>
        <time>2009-07-25T12:26:44Z</time>
      </trkpt>
      <trkpt lat="45.17072" lon="5.10592">
        <ele>469.45401000977</ele>
        <time>2009-07-25T12:26:57Z</time>
      </trkpt>
      <trkpt lat="45.17102" lon="5.10637">
        <ele>472.07000732422</ele>
        <time>2009-07-25T12:27:09Z</time>
      </trkpt>
      <trkpt lat="45.17139" lon="5.10699">
        <ele>473.69299316406</ele>
        <time>2009-07-25T12:27:26Z</time>
      </trkpt>
      <trkpt lat="45.17165" lon="5.10745">
        <ele>474.97100830078</ele>
        <time>2009-07-25T12:27:39Z</time>
      </trkpt>
      <trkpt lat="45.17182" lon="5.10788">
        <ele>476.18301391602</ele>
        <time>2009-07-25T12:27:49Z</time>
      </trkpt>
      <trkpt lat="45.172" lon="5.10851">
        <ele>477.24499511719</ele>
        <time>2009-07-25T12:28:03Z</time>
      </trkpt>
      <trkpt lat="45.17213" lon="5.10893">
        <ele>476.38800048828</ele>
        <time>2009-07-25T12:28:12Z</time>
      </trkpt>
      <trkpt lat="45.17236" lon="5.10961">
        <ele>474.96200561523</ele>
        <time>2009-07-25T12:28:24Z</time>
      </trkpt>
      <trkpt lat="45.17239" lon="5.10968">
        <ele>474.94100952148</ele>
        <time>2009-07-25T12:28:25Z</time>
      </trkpt>
      <trkpt lat="45.17262" lon="5.10998">
        <ele>473.1960144043</ele>
        <time>2009-07-25T12:28:31Z</time>
      </trkpt>
      <trkpt lat="45.17274" lon="5.1101">
        <ele>474.72399902344</ele>
        <time>2009-07-25T12:28:34Z</time>
      </trkpt>
      <trkpt lat="45.17294" lon="5.11024">
        <ele>474.99301147461</ele>
        <time>2009-07-25T12:28:39Z</time>
      </trkpt>
      <trkpt lat="45.17328" lon="5.11062">
        <ele>478.26400756836</ele>
        <time>2009-07-25T12:28:52Z</time>
      </trkpt>
      <trkpt lat="45.17338" lon="5.11085">
        <ele>478.9880065918</ele>
        <time>2009-07-25T12:28:58Z</time>
      </trkpt>
      <trkpt lat="45.17361" lon="5.11135">
        <ele>480.91299438477</ele>
        <time>2009-07-25T12:29:09Z</time>
      </trkpt>
      <trkpt lat="45.17376" lon="5.11165">
        <ele>482.11801147461</ele>
        <time>2009-07-25T12:29:15Z</time>
      </trkpt>
      <trkpt lat="45.174" lon="5.11208">
        <ele>482.61999511719</ele>
        <time>2009-07-25T12:29:23Z</time>
      </trkpt>
      <trkpt lat="45.17449" lon="5.11331">
        <ele>483.42401123047</ele>
        <time>2009-07-25T12:29:40Z</time>
      </trkpt>
      <trkpt lat="45.17496" lon="5.11494">
        <ele>484.80899047852</ele>
        <time>2009-07-25T12:30:00Z</time>
      </trkpt>
      <trkpt lat="45.17522" lon="5.11578">
        <ele>486.04000854492</ele>
        <time>2009-07-25T12:30:11Z</time>
      </trkpt>
      <trkpt lat="45.17559" lon="5.11657">
        <ele>486.36700439453</ele>
        <time>2009-07-25T12:30:23Z</time>
      </trkpt>
      <trkpt lat="45.17609" lon="5.11776">
        <ele>487.76901245117</ele>
        <time>2009-07-25T12:30:41Z</time>
      </trkpt>
      <trkpt lat="45.17627" lon="5.11852">
        <ele>488.53399658203</ele>
        <time>2009-07-25T12:30:52Z</time>
      </trkpt>
      <trkpt lat="45.17648" lon="5.11931">
        <ele>489.59399414062</ele>
        <time>2009-07-25T12:31:04Z</time>
      </trkpt>
      <trkpt lat="45.17653" lon="5.11951">
        <ele>489.34100341797</ele>
        <time>2009-07-25T12:31:07Z</time>
      </trkpt>
      <trkpt lat="45.17666" lon="5.12008">
        <ele>489.28201293945</ele>
        <time>2009-07-25T12:31:15Z</time>
      </trkpt>
      <trkpt lat="45.17699" lon="5.12117">
        <ele>489.93200683594</ele>
        <time>2009-07-25T12:31:30Z</time>
      </trkpt>
      <trkpt lat="45.17756" lon="5.12207">
        <ele>491.48400878906</ele>
        <time>2009-07-25T12:31:46Z</time>
      </trkpt>
      <trkpt lat="45.17794" lon="5.12269">
        <ele>491.93301391602</ele>
        <time>2009-07-25T12:31:57Z</time>
      </trkpt>
      <trkpt lat="45.17809" lon="5.12309">
        <ele>493.69400024414</ele>
        <time>2009-07-25T12:32:03Z</time>
      </trkpt>
      <trkpt lat="45.17822" lon="5.12355">
        <ele>493.04598999023</ele>
        <time>2009-07-25T12:32:10Z</time>
      </trkpt>
      <trkpt lat="45.17835" lon="5.12405">
        <ele>493.83999633789</ele>
        <time>2009-07-25T12:32:18Z</time>
      </trkpt>
      <trkpt lat="45.17842" lon="5.12431">
        <ele>494.76000976562</ele>
        <time>2009-07-25T12:32:22Z</time>
      </trkpt>
      <trkpt lat="45.17847" lon="5.12448">
        <ele>494.48001098633</ele>
        <time>2009-07-25T12:32:25Z</time>
      </trkpt>
      <trkpt lat="45.17853" lon="5.12471">
        <ele>496.21701049805</ele>
        <time>2009-07-25T12:32:29Z</time>
      </trkpt>
      <trkpt lat="45.17884" lon="5.12591">
        <ele>498.67599487305</ele>
        <time>2009-07-25T12:32:48Z</time>
      </trkpt>
      <trkpt lat="45.17904" lon="5.12663">
        <ele>499.19100952148</ele>
        <time>2009-07-25T12:33:00Z</time>
      </trkpt>
      <trkpt lat="45.17918" lon="5.12701">
        <ele>499.56600952148</ele>
        <time>2009-07-25T12:33:06Z</time>
      </trkpt>
      <trkpt lat="45.17937" lon="5.12752">
        <ele>499.67599487305</ele>
        <time>2009-07-25T12:33:14Z</time>
      </trkpt>
      <trkpt lat="45.17981" lon="5.12854">
        <ele>500.81799316406</ele>
        <time>2009-07-25T12:33:30Z</time>
      </trkpt>
      <trkpt lat="45.18021" lon="5.12971">
        <ele>503.33200073242</ele>
        <time>2009-07-25T12:33:48Z</time>
      </trkpt>
      <trkpt lat="45.18034" lon="5.1309">
        <ele>504.72100830078</ele>
        <time>2009-07-25T12:34:04Z</time>
      </trkpt>
      <trkpt lat="45.18053" lon="5.13229">
        <ele>506.67498779297</ele>
        <time>2009-07-25T12:34:23Z</time>
      </trkpt>
      <trkpt lat="45.18071" lon="5.13283">
        <ele>506.63500976562</ele>
        <time>2009-07-25T12:34:31Z</time>
      </trkpt>
      <trkpt lat="45.18077" lon="5.13303">
        <ele>506.59698486328</ele>
        <time>2009-07-25T12:34:34Z</time>
      </trkpt>
      <trkpt lat="45.18094" lon="5.13355">
        <ele>507.40399169922</ele>
        <time>2009-07-25T12:34:42Z</time>
      </trkpt>
      <trkpt lat="45.18126" lon="5.13447">
        <ele>508.20300292969</ele>
        <time>2009-07-25T12:34:57Z</time>
      </trkpt>
      <trkpt lat="45.18163" lon="5.13482">
        <ele>507.37100219727</ele>
        <time>2009-07-25T12:35:06Z</time>
      </trkpt>
      <trkpt lat="45.1821" lon="5.13515">
        <ele>506.62200927734</ele>
        <time>2009-07-25T12:35:14Z</time>
      </trkpt>
      <trkpt lat="45.1827" lon="5.13558">
        <ele>506.79501342773</ele>
        <time>2009-07-25T12:35:24Z</time>
      </trkpt>
      <trkpt lat="45.18355" lon="5.1362">
        <ele>506.39401245117</ele>
        <time>2009-07-25T12:35:39Z</time>
      </trkpt>
      <trkpt lat="45.18416" lon="5.13692">
        <ele>506.75299072266</ele>
        <time>2009-07-25T12:35:52Z</time>
      </trkpt>
      <trkpt lat="45.18473" lon="5.13845">
        <ele>506.05899047852</ele>
        <time>2009-07-25T12:36:11Z</time>
      </trkpt>
      <trkpt lat="45.18504" lon="5.13926">
        <ele>504.60000610352</ele>
        <time>2009-07-25T12:36:20Z</time>
      </trkpt>
      <trkpt lat="45.18562" lon="5.14081">
        <ele>501.73199462891</ele>
        <time>2009-07-25T12:36:36Z</time>
      </trkpt>
      <trkpt lat="45.18597" lon="5.14171">
        <ele>499.95300292969</ele>
        <time>2009-07-25T12:36:45Z</time>
      </trkpt>
      <trkpt lat="45.18624" lon="5.14204">
        <ele>499.68899536133</ele>
        <time>2009-07-25T12:36:50Z</time>
      </trkpt>
      <trkpt lat="45.1865" lon="5.14224">
        <ele>496.79501342773</ele>
        <time>2009-07-25T12:36:54Z</time>
      </trkpt>
      <trkpt lat="45.18686" lon="5.14247">
        <ele>496.34298706055</ele>
        <time>2009-07-25T12:36:59Z</time>
      </trkpt>
      <trkpt lat="45.187" lon="5.14257">
        <ele>495.70300292969</ele>
        <time>2009-07-25T12:37:01Z</time>
      </trkpt>
      <trkpt lat="45.18717" lon="5.14267">
        <ele>494.48498535156</ele>
        <time>2009-07-25T12:37:03Z</time>
      </trkpt>
      <trkpt lat="45.18782" lon="5.14253">
        <ele>487.75601196289</ele>
        <time>2009-07-25T12:37:10Z</time>
      </trkpt>
      <trkpt lat="45.18798" lon="5.1419">
        <ele>484.29998779297</ele>
        <time>2009-07-25T12:37:14Z</time>
      </trkpt>
      <trkpt lat="45.18796" lon="5.14173">
        <ele>483.59201049805</ele>
        <time>2009-07-25T12:37:15Z</time>
      </trkpt>
      <trkpt lat="45.18789" lon="5.14107">
        <ele>479.22299194336</ele>
        <time>2009-07-25T12:37:19Z</time>
      </trkpt>
      <trkpt lat="45.18767" lon="5.14046">
        <ele>475.79501342773</ele>
        <time>2009-07-25T12:37:23Z</time>
      </trkpt>
      <trkpt lat="45.18753" lon="5.13945">
        <ele>469.62399291992</ele>
        <time>2009-07-25T12:37:29Z</time>
      </trkpt>
      <trkpt lat="45.18793" lon="5.13848">
        <ele>463.90399169922</ele>
        <time>2009-07-25T12:37:35Z</time>
      </trkpt>
      <trkpt lat="45.18845" lon="5.13846">
        <ele>458.84698486328</ele>
        <time>2009-07-25T12:37:40Z</time>
      </trkpt>
      <trkpt lat="45.18854" lon="5.13856">
        <ele>458.24499511719</ele>
        <time>2009-07-25T12:37:41Z</time>
      </trkpt>
      <trkpt lat="45.18898" lon="5.13903">
        <ele>454.25799560547</ele>
        <time>2009-07-25T12:37:46Z</time>
      </trkpt>
      <trkpt lat="45.18954" lon="5.13962">
        <ele>448.9469909668</ele>
        <time>2009-07-25T12:37:52Z</time>
      </trkpt>
      <trkpt lat="45.19013" lon="5.14022">
        <ele>443.02499389648</ele>
        <time>2009-07-25T12:37:58Z</time>
      </trkpt>
      <trkpt lat="45.19133" lon="5.14128">
        <ele>431.89498901367</ele>
        <time>2009-07-25T12:38:09Z</time>
      </trkpt>
      <trkpt lat="45.19187" lon="5.1418">
        <ele>425.64498901367</ele>
        <time>2009-07-25T12:38:14Z</time>
      </trkpt>
      <trkpt lat="45.19234" lon="5.14202">
        <ele>421.58499145508</ele>
        <time>2009-07-25T12:38:18Z</time>
      </trkpt>
      <trkpt lat="45.19315" lon="5.14214">
        <ele>415.37298583984</ele>
        <time>2009-07-25T12:38:25Z</time>
      </trkpt>
      <trkpt lat="45.19359" lon="5.14218">
        <ele>413.31600952148</ele>
        <time>2009-07-25T12:38:29Z</time>
      </trkpt>
      <trkpt lat="45.19425" lon="5.1423">
        <ele>408.43200683594</ele>
        <time>2009-07-25T12:38:35Z</time>
      </trkpt>
      <trkpt lat="45.19473" lon="5.14247">
        <ele>404.54000854492</ele>
        <time>2009-07-25T12:38:40Z</time>
      </trkpt>
      <trkpt lat="45.19489" lon="5.14252">
        <ele>402.81799316406</ele>
        <time>2009-07-25T12:38:42Z</time>
      </trkpt>
      <trkpt lat="45.19502" lon="5.14257">
        <ele>402.14700317383</ele>
        <time>2009-07-25T12:38:44Z</time>
      </trkpt>
      <trkpt lat="45.19508" lon="5.1426">
        <ele>401.83599853516</ele>
        <time>2009-07-25T12:38:45Z</time>
      </trkpt>
      <trkpt lat="45.19518" lon="5.14274">
        <ele>401.85299682617</ele>
        <time>2009-07-25T12:38:50Z</time>
      </trkpt>
      <trkpt lat="45.19506" lon="5.14304">
        <ele>401.91500854492</ele>
        <time>2009-07-25T12:39:01Z</time>
      </trkpt>
      <trkpt lat="45.19512" lon="5.14339">
        <ele>402.7200012207</ele>
        <time>2009-07-25T12:39:11Z</time>
      </trkpt>
      <trkpt lat="45.19517" lon="5.14357">
        <ele>403.51300048828</ele>
        <time>2009-07-25T12:39:15Z</time>
      </trkpt>
      <trkpt lat="45.19522" lon="5.14367">
        <ele>404.45300292969</ele>
        <time>2009-07-25T12:39:18Z</time>
      </trkpt>
      <trkpt lat="45.1953" lon="5.14375">
        <ele>405.40399169922</ele>
        <time>2009-07-25T12:39:21Z</time>
      </trkpt>
      <trkpt lat="45.19532" lon="5.14378">
        <ele>405.60501098633</ele>
        <time>2009-07-25T12:39:22Z</time>
      </trkpt>
      <trkpt lat="45.19534" lon="5.14381">
        <ele>405.98001098633</ele>
        <time>2009-07-25T12:39:23Z</time>
      </trkpt>
      <trkpt lat="45.19539" lon="5.14385">
        <ele>406.62399291992</ele>
        <time>2009-07-25T12:39:25Z</time>
      </trkpt>
      <trkpt lat="45.19542" lon="5.14388">
        <ele>406.7080078125</ele>
        <time>2009-07-25T12:39:26Z</time>
      </trkpt>
      <trkpt lat="45.19571" lon="5.14417">
        <ele>408.49798583984</ele>
        <time>2009-07-25T12:39:37Z</time>
      </trkpt>
      <trkpt lat="45.19584" lon="5.14439">
        <ele>410.34698486328</ele>
        <time>2009-07-25T12:39:43Z</time>
      </trkpt>
      <trkpt lat="45.1959" lon="5.14474">
        <ele>411.05499267578</ele>
        <time>2009-07-25T12:39:50Z</time>
      </trkpt>
      <trkpt lat="45.19591" lon="5.14486">
        <ele>412.02600097656</ele>
        <time>2009-07-25T12:39:52Z</time>
      </trkpt>
      <trkpt lat="45.19592" lon="5.14497">
        <ele>411.99200439453</ele>
        <time>2009-07-25T12:39:54Z</time>
      </trkpt>
      <trkpt lat="45.19593" lon="5.14522">
        <ele>412.29501342773</ele>
        <time>2009-07-25T12:39:58Z</time>
      </trkpt>
      <trkpt lat="45.19592" lon="5.14545">
        <ele>412.19299316406</ele>
        <time>2009-07-25T12:40:02Z</time>
      </trkpt>
      <trkpt lat="45.19593" lon="5.14604">
        <ele>409.77801513672</ele>
        <time>2009-07-25T12:40:10Z</time>
      </trkpt>
      <trkpt lat="45.19603" lon="5.14641">
        <ele>409.17199707031</ele>
        <time>2009-07-25T12:40:15Z</time>
      </trkpt>
      <trkpt lat="45.19615" lon="5.14659">
        <ele>411.02700805664</ele>
        <time>2009-07-25T12:40:18Z</time>
      </trkpt>
      <trkpt lat="45.19619" lon="5.14664">
        <ele>410.5710144043</ele>
        <time>2009-07-25T12:40:19Z</time>
      </trkpt>
      <trkpt lat="45.19642" lon="5.14687">
        <ele>410.66299438477</ele>
        <time>2009-07-25T12:40:24Z</time>
      </trkpt>
      <trkpt lat="45.19664" lon="5.14704">
        <ele>411.60998535156</ele>
        <time>2009-07-25T12:40:29Z</time>
      </trkpt>
      <trkpt lat="45.19709" lon="5.14751">
        <ele>413.19198608398</ele>
        <time>2009-07-25T12:40:43Z</time>
      </trkpt>
      <trkpt lat="45.19721" lon="5.14785">
        <ele>414.49200439453</ele>
        <time>2009-07-25T12:40:49Z</time>
      </trkpt>
      <trkpt lat="45.19727" lon="5.14884">
        <ele>415.77200317383</ele>
        <time>2009-07-25T12:41:05Z</time>
      </trkpt>
      <trkpt lat="45.19731" lon="5.14988">
        <ele>417.37399291992</ele>
        <time>2009-07-25T12:41:22Z</time>
      </trkpt>
      <trkpt lat="45.19749" lon="5.15114">
        <ele>418.10699462891</ele>
        <time>2009-07-25T12:41:42Z</time>
      </trkpt>
      <trkpt lat="45.19762" lon="5.15167">
        <ele>418.91101074219</ele>
        <time>2009-07-25T12:41:51Z</time>
      </trkpt>
      <trkpt lat="45.19805" lon="5.15311">
        <ele>421.0719909668</ele>
        <time>2009-07-25T12:42:14Z</time>
      </trkpt>
      <trkpt lat="45.19845" lon="5.15441">
        <ele>422.51998901367</ele>
        <time>2009-07-25T12:42:33Z</time>
      </trkpt>
      <trkpt lat="45.19883" lon="5.15578">
        <ele>423.19900512695</ele>
        <time>2009-07-25T12:42:53Z</time>
      </trkpt>
      <trkpt lat="45.19904" lon="5.15756">
        <ele>423.45199584961</ele>
        <time>2009-07-25T12:43:16Z</time>
      </trkpt>
      <trkpt lat="45.199" lon="5.15892">
        <ele>423.07699584961</ele>
        <time>2009-07-25T12:43:30Z</time>
      </trkpt>
      <trkpt lat="45.19893" lon="5.16003">
        <ele>421.20599365234</ele>
        <time>2009-07-25T12:43:42Z</time>
      </trkpt>
      <trkpt lat="45.19884" lon="5.1604">
        <ele>420.57501220703</ele>
        <time>2009-07-25T12:43:46Z</time>
      </trkpt>
      <trkpt lat="45.19828" lon="5.16207">
        <ele>418.59600830078</ele>
        <time>2009-07-25T12:44:04Z</time>
      </trkpt>
      <trkpt lat="45.19802" lon="5.16338">
        <ele>419.36599731445</ele>
        <time>2009-07-25T12:44:18Z</time>
      </trkpt>
      <trkpt lat="45.19799" lon="5.16386">
        <ele>421.16500854492</ele>
        <time>2009-07-25T12:44:24Z</time>
      </trkpt>
      <trkpt lat="45.19793" lon="5.16437">
        <ele>422.7380065918</ele>
        <time>2009-07-25T12:44:31Z</time>
      </trkpt>
      <trkpt lat="45.19782" lon="5.16506">
        <ele>424.21099853516</ele>
        <time>2009-07-25T12:44:41Z</time>
      </trkpt>
      <trkpt lat="45.19779" lon="5.16541">
        <ele>426.07901000977</ele>
        <time>2009-07-25T12:44:46Z</time>
      </trkpt>
      <trkpt lat="45.1978" lon="5.16554">
        <ele>426.77301025391</ele>
        <time>2009-07-25T12:44:48Z</time>
      </trkpt>
      <trkpt lat="45.19792" lon="5.16607">
        <ele>428.62100219727</ele>
        <time>2009-07-25T12:44:56Z</time>
      </trkpt>
      <trkpt lat="45.19807" lon="5.16653">
        <ele>429.94900512695</ele>
        <time>2009-07-25T12:45:03Z</time>
      </trkpt>
      <trkpt lat="45.19854" lon="5.16778">
        <ele>432.44400024414</ele>
        <time>2009-07-25T12:45:23Z</time>
      </trkpt>
      <trkpt lat="45.19888" lon="5.16885">
        <ele>432.86199951172</ele>
        <time>2009-07-25T12:45:40Z</time>
      </trkpt>
      <trkpt lat="45.1988" lon="5.17026">
        <ele>434.95300292969</ele>
        <time>2009-07-25T12:46:00Z</time>
      </trkpt>
      <trkpt lat="45.19875" lon="5.17157">
        <ele>437.78201293945</ele>
        <time>2009-07-25T12:46:18Z</time>
      </trkpt>
      <trkpt lat="45.19874" lon="5.17218">
        <ele>438.19400024414</ele>
        <time>2009-07-25T12:46:26Z</time>
      </trkpt>
      <trkpt lat="45.19869" lon="5.1724">
        <ele>438.73400878906</ele>
        <time>2009-07-25T12:46:29Z</time>
      </trkpt>
      <trkpt lat="45.19833" lon="5.17335">
        <ele>439.54000854492</ele>
        <time>2009-07-25T12:46:44Z</time>
      </trkpt>
      <trkpt lat="45.19797" lon="5.17425">
        <ele>441.09698486328</ele>
        <time>2009-07-25T12:46:57Z</time>
      </trkpt>
      <trkpt lat="45.19775" lon="5.17559">
        <ele>442.39498901367</ele>
        <time>2009-07-25T12:47:14Z</time>
      </trkpt>
      <trkpt lat="45.19776" lon="5.17567">
        <ele>442.12701416016</ele>
        <time>2009-07-25T12:47:15Z</time>
      </trkpt>
      <trkpt lat="45.19777" lon="5.17591">
        <ele>443.21600341797</ele>
        <time>2009-07-25T12:47:18Z</time>
      </trkpt>
      <trkpt lat="45.19774" lon="5.17614">
        <ele>443.75698852539</ele>
        <time>2009-07-25T12:47:21Z</time>
      </trkpt>
      <trkpt lat="45.19747" lon="5.17702">
        <ele>444.78601074219</ele>
        <time>2009-07-25T12:47:33Z</time>
      </trkpt>
      <trkpt lat="45.19708" lon="5.17845">
        <ele>446.32699584961</ele>
        <time>2009-07-25T12:47:52Z</time>
      </trkpt>
      <trkpt lat="45.19706" lon="5.17853">
        <ele>446.54800415039</ele>
        <time>2009-07-25T12:47:53Z</time>
      </trkpt>
      <trkpt lat="45.1971" lon="5.17892">
        <ele>446.83200073242</ele>
        <time>2009-07-25T12:47:58Z</time>
      </trkpt>
      <trkpt lat="45.19715" lon="5.17906">
        <ele>447.78900146484</ele>
        <time>2009-07-25T12:48:00Z</time>
      </trkpt>
      <trkpt lat="45.19729" lon="5.17956">
        <ele>449.16000366211</ele>
        <time>2009-07-25T12:48:07Z</time>
      </trkpt>
      <trkpt lat="45.1973" lon="5.17971">
        <ele>449.61599731445</ele>
        <time>2009-07-25T12:48:09Z</time>
      </trkpt>
      <trkpt lat="45.19729" lon="5.17993">
        <ele>450.30599975586</ele>
        <time>2009-07-25T12:48:12Z</time>
      </trkpt>
      <trkpt lat="45.19728" lon="5.18046">
        <ele>451.4460144043</ele>
        <time>2009-07-25T12:48:19Z</time>
      </trkpt>
      <trkpt lat="45.19717" lon="5.1819">
        <ele>454.92098999023</ele>
        <time>2009-07-25T12:48:37Z</time>
      </trkpt>
      <trkpt lat="45.19686" lon="5.18353">
        <ele>458.02398681641</ele>
        <time>2009-07-25T12:48:58Z</time>
      </trkpt>
      <trkpt lat="45.19659" lon="5.18429">
        <ele>460.4169921875</ele>
        <time>2009-07-25T12:49:09Z</time>
      </trkpt>
      <trkpt lat="45.19657" lon="5.18451">
        <ele>460.70401000977</ele>
        <time>2009-07-25T12:49:12Z</time>
      </trkpt>
      <trkpt lat="45.19657" lon="5.18467">
        <ele>460.82901000977</ele>
        <time>2009-07-25T12:49:14Z</time>
      </trkpt>
      <trkpt lat="45.19653" lon="5.18579">
        <ele>462.29800415039</ele>
        <time>2009-07-25T12:49:29Z</time>
      </trkpt>
      <trkpt lat="45.19656" lon="5.18731">
        <ele>466.67001342773</ele>
        <time>2009-07-25T12:49:49Z</time>
      </trkpt>
      <trkpt lat="45.1965" lon="5.18845">
        <ele>470.11099243164</ele>
        <time>2009-07-25T12:50:04Z</time>
      </trkpt>
      <trkpt lat="45.1964" lon="5.18962">
        <ele>473.10800170898</ele>
        <time>2009-07-25T12:50:19Z</time>
      </trkpt>
      <trkpt lat="45.19625" lon="5.19119">
        <ele>476.47698974609</ele>
        <time>2009-07-25T12:50:39Z</time>
      </trkpt>
      <trkpt lat="45.19612" lon="5.19272">
        <ele>480.59399414062</ele>
        <time>2009-07-25T12:50:59Z</time>
      </trkpt>
      <trkpt lat="45.19609" lon="5.19385">
        <ele>481.66400146484</ele>
        <time>2009-07-25T12:51:11Z</time>
      </trkpt>
      <trkpt lat="45.19607" lon="5.19526">
        <ele>484.15200805664</ele>
        <time>2009-07-25T12:51:25Z</time>
      </trkpt>
      <trkpt lat="45.19606" lon="5.19717">
        <ele>486.87899780273</ele>
        <time>2009-07-25T12:51:45Z</time>
      </trkpt>
      <trkpt lat="45.19624" lon="5.19857">
        <ele>489.87701416016</ele>
        <time>2009-07-25T12:52:01Z</time>
      </trkpt>
      <trkpt lat="45.19629" lon="5.19936">
        <ele>490.84899902344</ele>
        <time>2009-07-25T12:52:11Z</time>
      </trkpt>
      <trkpt lat="45.1963" lon="5.19989">
        <ele>491.18301391602</ele>
        <time>2009-07-25T12:52:21Z</time>
      </trkpt>
      <trkpt lat="45.19641" lon="5.19991">
        <ele>491.85000610352</ele>
        <time>2009-07-25T12:52:28Z</time>
      </trkpt>
      <trkpt lat="45.19637" lon="5.19987">
        <ele>491.49099731445</ele>
        <time>2009-07-25T12:52:31Z</time>
      </trkpt>
      <trkpt lat="45.19635" lon="5.19985">
        <ele>491.42401123047</ele>
        <time>2009-07-25T12:52:32Z</time>
      </trkpt>
      <trkpt lat="45.19629" lon="5.19976">
        <ele>491.06600952148</ele>
        <time>2009-07-25T12:52:38Z</time>
      </trkpt>
      <trkpt lat="45.19625" lon="5.19977">
        <ele>491.42098999023</ele>
        <time>2009-07-25T12:52:43Z</time>
      </trkpt>
      <trkpt lat="45.19625" lon="5.19985">
        <ele>491.41500854492</ele>
        <time>2009-07-25T12:53:40Z</time>
      </trkpt>
      <trkpt lat="45.19629" lon="5.20016">
        <ele>490.8030090332</ele>
        <time>2009-07-25T12:53:47Z</time>
      </trkpt>
      <trkpt lat="45.1963" lon="5.20029">
        <ele>490.33898925781</ele>
        <time>2009-07-25T12:53:49Z</time>
      </trkpt>
      <trkpt lat="45.1963" lon="5.20103">
        <ele>486.56900024414</ele>
        <time>2009-07-25T12:53:57Z</time>
      </trkpt>
      <trkpt lat="45.19645" lon="5.20144">
        <ele>484.52499389648</ele>
        <time>2009-07-25T12:54:01Z</time>
      </trkpt>
      <trkpt lat="45.19651" lon="5.20153">
        <ele>483.84698486328</ele>
        <time>2009-07-25T12:54:02Z</time>
      </trkpt>
      <trkpt lat="45.19666" lon="5.20172">
        <ele>482.33401489258</ele>
        <time>2009-07-25T12:54:04Z</time>
      </trkpt>
      <trkpt lat="45.19659" lon="5.20217">
        <ele>479.5419921875</ele>
        <time>2009-07-25T12:54:08Z</time>
      </trkpt>
      <trkpt lat="45.19637" lon="5.20226">
        <ele>478.49899291992</ele>
        <time>2009-07-25T12:54:10Z</time>
      </trkpt>
      <trkpt lat="45.19614" lon="5.20229">
        <ele>476.76000976562</ele>
        <time>2009-07-25T12:54:12Z</time>
      </trkpt>
      <trkpt lat="45.1958" lon="5.20267">
        <ele>472.93200683594</ele>
        <time>2009-07-25T12:54:16Z</time>
      </trkpt>
      <trkpt lat="45.19548" lon="5.20339">
        <ele>468.00399780273</ele>
        <time>2009-07-25T12:54:21Z</time>
      </trkpt>
      <trkpt lat="45.19534" lon="5.20407">
        <ele>464.12799072266</ele>
        <time>2009-07-25T12:54:25Z</time>
      </trkpt>
      <trkpt lat="45.19529" lon="5.20482">
        <ele>460.51300048828</ele>
        <time>2009-07-25T12:54:29Z</time>
      </trkpt>
      <trkpt lat="45.1948" lon="5.20594">
        <ele>453.45498657227</ele>
        <time>2009-07-25T12:54:36Z</time>
      </trkpt>
      <trkpt lat="45.19415" lon="5.20634">
        <ele>450.42999267578</ele>
        <time>2009-07-25T12:54:41Z</time>
      </trkpt>
      <trkpt lat="45.19345" lon="5.20652">
        <ele>447.9049987793</ele>
        <time>2009-07-25T12:54:46Z</time>
      </trkpt>
      <trkpt lat="45.19304" lon="5.20663">
        <ele>446.56100463867</ele>
        <time>2009-07-25T12:54:49Z</time>
      </trkpt>
      <trkpt lat="45.19278" lon="5.20673">
        <ele>445.47198486328</ele>
        <time>2009-07-25T12:54:51Z</time>
      </trkpt>
      <trkpt lat="45.19175" lon="5.20762">
        <ele>439.75399780273</ele>
        <time>2009-07-25T12:55:00Z</time>
      </trkpt>
      <trkpt lat="45.1912" lon="5.20816">
        <ele>437.59600830078</ele>
        <time>2009-07-25T12:55:05Z</time>
      </trkpt>
      <trkpt lat="45.19088" lon="5.20871">
        <ele>435.87200927734</ele>
        <time>2009-07-25T12:55:09Z</time>
      </trkpt>
      <trkpt lat="45.19049" lon="5.20978">
        <ele>433.76599121094</ele>
        <time>2009-07-25T12:55:16Z</time>
      </trkpt>
      <trkpt lat="45.19034" lon="5.21005">
        <ele>431.52301025391</ele>
        <time>2009-07-25T12:55:18Z</time>
      </trkpt>
      <trkpt lat="45.18993" lon="5.21043">
        <ele>427.01501464844</ele>
        <time>2009-07-25T12:55:22Z</time>
      </trkpt>
      <trkpt lat="45.18911" lon="5.21104">
        <ele>425.35198974609</ele>
        <time>2009-07-25T12:55:29Z</time>
      </trkpt>
      <trkpt lat="45.1886" lon="5.21126">
        <ele>420.17300415039</ele>
        <time>2009-07-25T12:55:33Z</time>
      </trkpt>
      <trkpt lat="45.18819" lon="5.21135">
        <ele>417.20599365234</ele>
        <time>2009-07-25T12:55:36Z</time>
      </trkpt>
      <trkpt lat="45.18792" lon="5.21141">
        <ele>415.39401245117</ele>
        <time>2009-07-25T12:55:38Z</time>
      </trkpt>
      <trkpt lat="45.18669" lon="5.2119">
        <ele>409.48999023438</ele>
        <time>2009-07-25T12:55:47Z</time>
      </trkpt>
      <trkpt lat="45.18656" lon="5.21197">
        <ele>396.63101196289</ele>
        <time>2009-07-25T12:55:48Z</time>
      </trkpt>
      <trkpt lat="45.18642" lon="5.21206">
        <ele>410.50900268555</ele>
        <time>2009-07-25T12:55:49Z</time>
      </trkpt>
      <trkpt lat="45.18546" lon="5.21263">
        <ele>400.44299316406</ele>
        <time>2009-07-25T12:55:56Z</time>
      </trkpt>
      <trkpt lat="45.18488" lon="5.213">
        <ele>394.77600097656</ele>
        <time>2009-07-25T12:56:00Z</time>
      </trkpt>
      <trkpt lat="45.18338" lon="5.21387">
        <ele>386.12899780273</ele>
        <time>2009-07-25T12:56:10Z</time>
      </trkpt>
      <trkpt lat="45.18307" lon="5.21403">
        <ele>384.85299682617</ele>
        <time>2009-07-25T12:56:12Z</time>
      </trkpt>
      <trkpt lat="45.18224" lon="5.21434">
        <ele>377.01901245117</ele>
        <time>2009-07-25T12:56:17Z</time>
      </trkpt>
      <trkpt lat="45.18104" lon="5.21412">
        <ele>370.20098876953</ele>
        <time>2009-07-25T12:56:24Z</time>
      </trkpt>
      <trkpt lat="45.18088" lon="5.2141">
        <ele>369.06900024414</ele>
        <time>2009-07-25T12:56:25Z</time>
      </trkpt>
      <trkpt lat="45.18025" lon="5.21419">
        <ele>367.85598754883</ele>
        <time>2009-07-25T12:56:29Z</time>
      </trkpt>
      <trkpt lat="45.17967" lon="5.21396">
        <ele>365.00698852539</ele>
        <time>2009-07-25T12:56:33Z</time>
      </trkpt>
      <trkpt lat="45.17954" lon="5.21386">
        <ele>364.59698486328</ele>
        <time>2009-07-25T12:56:34Z</time>
      </trkpt>
      <trkpt lat="45.17917" lon="5.21353">
        <ele>363.74798583984</ele>
        <time>2009-07-25T12:56:37Z</time>
      </trkpt>
      <trkpt lat="45.17863" lon="5.21346">
        <ele>360.49200439453</ele>
        <time>2009-07-25T12:56:41Z</time>
      </trkpt>
      <trkpt lat="45.17836" lon="5.21354">
        <ele>359.75399780273</ele>
        <time>2009-07-25T12:56:43Z</time>
      </trkpt>
      <trkpt lat="45.17772" lon="5.21366">
        <ele>360.58700561523</ele>
        <time>2009-07-25T12:56:48Z</time>
      </trkpt>
      <trkpt lat="45.17732" lon="5.21397">
        <ele>361.72399902344</ele>
        <time>2009-07-25T12:56:52Z</time>
      </trkpt>
      <trkpt lat="45.17701" lon="5.21446">
        <ele>360.91500854492</ele>
        <time>2009-07-25T12:56:56Z</time>
      </trkpt>
      <trkpt lat="45.17652" lon="5.21462">
        <ele>357.94500732422</ele>
        <time>2009-07-25T12:57:01Z</time>
      </trkpt>
      <trkpt lat="45.17641" lon="5.21458">
        <ele>357.18099975586</ele>
        <time>2009-07-25T12:57:02Z</time>
      </trkpt>
      <trkpt lat="45.17609" lon="5.21445">
        <ele>356.24899291992</ele>
        <time>2009-07-25T12:57:05Z</time>
      </trkpt>
      <trkpt lat="45.17545" lon="5.21476">
        <ele>356.34698486328</ele>
        <time>2009-07-25T12:57:12Z</time>
      </trkpt>
      <trkpt lat="45.17521" lon="5.21494">
        <ele>357.19500732422</ele>
        <time>2009-07-25T12:57:15Z</time>
      </trkpt>
      <trkpt lat="45.17493" lon="5.21525">
        <ele>358.36700439453</ele>
        <time>2009-07-25T12:57:20Z</time>
      </trkpt>
      <trkpt lat="45.17479" lon="5.21557">
        <ele>358.64700317383</ele>
        <time>2009-07-25T12:57:25Z</time>
      </trkpt>
      <trkpt lat="45.17462" lon="5.21595">
        <ele>359.22399902344</ele>
        <time>2009-07-25T12:57:31Z</time>
      </trkpt>
      <trkpt lat="45.17458" lon="5.21608">
        <ele>359.18600463867</ele>
        <time>2009-07-25T12:57:33Z</time>
      </trkpt>
      <trkpt lat="45.17434" lon="5.21654">
        <ele>357.97299194336</ele>
        <time>2009-07-25T12:57:40Z</time>
      </trkpt>
      <trkpt lat="45.17418" lon="5.2169">
        <ele>356.75299072266</ele>
        <time>2009-07-25T12:57:45Z</time>
      </trkpt>
      <trkpt lat="45.17352" lon="5.21823">
        <ele>354.88500976562</ele>
        <time>2009-07-25T12:58:01Z</time>
      </trkpt>
      <trkpt lat="45.17345" lon="5.21838">
        <ele>353.86999511719</ele>
        <time>2009-07-25T12:58:03Z</time>
      </trkpt>
      <trkpt lat="45.17334" lon="5.21894">
        <ele>353.24798583984</ele>
        <time>2009-07-25T12:58:09Z</time>
      </trkpt>
      <trkpt lat="45.17336" lon="5.22049">
        <ele>352.20199584961</ele>
        <time>2009-07-25T12:58:23Z</time>
      </trkpt>
      <trkpt lat="45.17337" lon="5.22129">
        <ele>352.16799926758</ele>
        <time>2009-07-25T12:58:31Z</time>
      </trkpt>
      <trkpt lat="45.17337" lon="5.22236">
        <ele>352.78698730469</ele>
        <time>2009-07-25T12:58:42Z</time>
      </trkpt>
      <trkpt lat="45.17337" lon="5.22246">
        <ele>352.57699584961</ele>
        <time>2009-07-25T12:58:43Z</time>
      </trkpt>
      <trkpt lat="45.17329" lon="5.22282">
        <ele>352.37100219727</ele>
        <time>2009-07-25T12:58:47Z</time>
      </trkpt>
      <trkpt lat="45.17316" lon="5.22306">
        <ele>351.90301513672</ele>
        <time>2009-07-25T12:58:50Z</time>
      </trkpt>
      <trkpt lat="45.17235" lon="5.22414">
        <ele>353.04400634766</ele>
        <time>2009-07-25T12:59:06Z</time>
      </trkpt>
      <trkpt lat="45.17215" lon="5.2244">
        <ele>353.15200805664</ele>
        <time>2009-07-25T12:59:10Z</time>
      </trkpt>
      <trkpt lat="45.17179" lon="5.2249">
        <ele>354.25900268555</ele>
        <time>2009-07-25T12:59:18Z</time>
      </trkpt>
      <trkpt lat="45.17167" lon="5.22518">
        <ele>355.12600708008</ele>
        <time>2009-07-25T12:59:22Z</time>
      </trkpt>
      <trkpt lat="45.17163" lon="5.22554">
        <ele>356.34799194336</ele>
        <time>2009-07-25T12:59:27Z</time>
      </trkpt>
      <trkpt lat="45.17164" lon="5.22602">
        <ele>357.75201416016</ele>
        <time>2009-07-25T12:59:34Z</time>
      </trkpt>
      <trkpt lat="45.17163" lon="5.22609">
        <ele>358.12899780273</ele>
        <time>2009-07-25T12:59:35Z</time>
      </trkpt>
      <trkpt lat="45.17148" lon="5.22659">
        <ele>359.94100952148</ele>
        <time>2009-07-25T12:59:43Z</time>
      </trkpt>
      <trkpt lat="45.17138" lon="5.22682">
        <ele>360.92098999023</ele>
        <time>2009-07-25T12:59:47Z</time>
      </trkpt>
      <trkpt lat="45.17115" lon="5.22725">
        <ele>362.59600830078</ele>
        <time>2009-07-25T12:59:55Z</time>
      </trkpt>
      <trkpt lat="45.17092" lon="5.22779">
        <ele>365.01599121094</ele>
        <time>2009-07-25T13:00:06Z</time>
      </trkpt>
      <trkpt lat="45.17076" lon="5.22835">
        <ele>367.49398803711</ele>
        <time>2009-07-25T13:00:16Z</time>
      </trkpt>
      <trkpt lat="45.17066" lon="5.22855">
        <ele>368.89898681641</ele>
        <time>2009-07-25T13:00:20Z</time>
      </trkpt>
      <trkpt lat="45.17011" lon="5.2292">
        <ele>372.11898803711</ele>
        <time>2009-07-25T13:00:37Z</time>
      </trkpt>
      <trkpt lat="45.16968" lon="5.22969">
        <ele>372.9049987793</ele>
        <time>2009-07-25T13:00:50Z</time>
      </trkpt>
      <trkpt lat="45.16946" lon="5.22995">
        <ele>373.65701293945</ele>
        <time>2009-07-25T13:00:56Z</time>
      </trkpt>
      <trkpt lat="45.16916" lon="5.2303">
        <ele>374.20901489258</ele>
        <time>2009-07-25T13:01:05Z</time>
      </trkpt>
      <trkpt lat="45.16857" lon="5.23071">
        <ele>375.45999145508</ele>
        <time>2009-07-25T13:01:17Z</time>
      </trkpt>
      <trkpt lat="45.16758" lon="5.2313">
        <ele>377.34100341797</ele>
        <time>2009-07-25T13:01:34Z</time>
      </trkpt>
      <trkpt lat="45.16648" lon="5.23195">
        <ele>375.49700927734</ele>
        <time>2009-07-25T13:01:50Z</time>
      </trkpt>
      <trkpt lat="45.16557" lon="5.2325">
        <ele>372.86099243164</ele>
        <time>2009-07-25T13:02:01Z</time>
      </trkpt>
      <trkpt lat="45.16468" lon="5.23335">
        <ele>365.03298950195</ele>
        <time>2009-07-25T13:02:11Z</time>
      </trkpt>
      <trkpt lat="45.16438" lon="5.23365">
        <ele>362.64700317383</ele>
        <time>2009-07-25T13:02:14Z</time>
      </trkpt>
      <trkpt lat="45.16357" lon="5.23445">
        <ele>359.60101318359</ele>
        <time>2009-07-25T13:02:22Z</time>
      </trkpt>
      <trkpt lat="45.16301" lon="5.23499">
        <ele>360.4469909668</ele>
        <time>2009-07-25T13:02:28Z</time>
      </trkpt>
      <trkpt lat="45.16208" lon="5.23573">
        <ele>355.93301391602</ele>
        <time>2009-07-25T13:02:38Z</time>
      </trkpt>
      <trkpt lat="45.1619" lon="5.23593">
        <ele>354.57998657227</ele>
        <time>2009-07-25T13:02:40Z</time>
      </trkpt>
      <trkpt lat="45.16077" lon="5.23679">
        <ele>349.68798828125</ele>
        <time>2009-07-25T13:02:51Z</time>
      </trkpt>
      <trkpt lat="45.16036" lon="5.2371">
        <ele>352.47900390625</ele>
        <time>2009-07-25T13:02:55Z</time>
      </trkpt>
      <trkpt lat="45.16019" lon="5.23733">
        <ele>347.96798706055</ele>
        <time>2009-07-25T13:02:57Z</time>
      </trkpt>
      <trkpt lat="45.1599" lon="5.23762">
        <ele>346.16198730469</ele>
        <time>2009-07-25T13:03:00Z</time>
      </trkpt>
      <trkpt lat="45.15878" lon="5.23823">
        <ele>340.82299804688</ele>
        <time>2009-07-25T13:03:10Z</time>
      </trkpt>
      <trkpt lat="45.158" lon="5.23866">
        <ele>337.1789855957</ele>
        <time>2009-07-25T13:03:17Z</time>
      </trkpt>
      <trkpt lat="45.15768" lon="5.23935">
        <ele>332.61599731445</ele>
        <time>2009-07-25T13:03:22Z</time>
      </trkpt>
      <trkpt lat="45.15769" lon="5.23953">
        <ele>332.68899536133</ele>
        <time>2009-07-25T13:03:23Z</time>
      </trkpt>
      <trkpt lat="45.15744" lon="5.24059">
        <ele>328.99301147461</ele>
        <time>2009-07-25T13:03:30Z</time>
      </trkpt>
      <trkpt lat="45.15711" lon="5.24094">
        <ele>327.55999755859</ele>
        <time>2009-07-25T13:03:33Z</time>
      </trkpt>
      <trkpt lat="45.15606" lon="5.24179">
        <ele>324.01998901367</ele>
        <time>2009-07-25T13:03:43Z</time>
      </trkpt>
      <trkpt lat="45.1555" lon="5.24287">
        <ele>319.93798828125</ele>
        <time>2009-07-25T13:03:51Z</time>
      </trkpt>
      <trkpt lat="45.15507" lon="5.24317">
        <ele>317.56600952148</ele>
        <time>2009-07-25T13:03:55Z</time>
      </trkpt>
      <trkpt lat="45.15447" lon="5.2436">
        <ele>314.61199951172</ele>
        <time>2009-07-25T13:04:01Z</time>
      </trkpt>
      <trkpt lat="45.15429" lon="5.24377">
        <ele>314.0719909668</ele>
        <time>2009-07-25T13:04:03Z</time>
      </trkpt>
      <trkpt lat="45.15409" lon="5.24413">
        <ele>312.60598754883</ele>
        <time>2009-07-25T13:04:06Z</time>
      </trkpt>
      <trkpt lat="45.15406" lon="5.24428">
        <ele>312.74099731445</ele>
        <time>2009-07-25T13:04:07Z</time>
      </trkpt>
      <trkpt lat="45.15394" lon="5.24487">
        <ele>311.43798828125</ele>
        <time>2009-07-25T13:04:11Z</time>
      </trkpt>
      <trkpt lat="45.15383" lon="5.24511">
        <ele>310.73999023438</ele>
        <time>2009-07-25T13:04:13Z</time>
      </trkpt>
      <trkpt lat="45.15358" lon="5.24557">
        <ele>308.79598999023</ele>
        <time>2009-07-25T13:04:17Z</time>
      </trkpt>
      <trkpt lat="45.15335" lon="5.24603">
        <ele>307.51098632812</ele>
        <time>2009-07-25T13:04:21Z</time>
      </trkpt>
      <trkpt lat="45.1531" lon="5.24651">
        <ele>305.99798583984</ele>
        <time>2009-07-25T13:04:25Z</time>
      </trkpt>
      <trkpt lat="45.15295" lon="5.24675">
        <ele>305.15301513672</ele>
        <time>2009-07-25T13:04:27Z</time>
      </trkpt>
      <trkpt lat="45.15258" lon="5.24715">
        <ele>302.46398925781</ele>
        <time>2009-07-25T13:04:31Z</time>
      </trkpt>
      <trkpt lat="45.15168" lon="5.24787">
        <ele>299.32800292969</ele>
        <time>2009-07-25T13:04:40Z</time>
      </trkpt>
      <trkpt lat="45.15158" lon="5.24848">
        <ele>298.99798583984</ele>
        <time>2009-07-25T13:04:45Z</time>
      </trkpt>
      <trkpt lat="45.15173" lon="5.24891">
        <ele>301.78799438477</ele>
        <time>2009-07-25T13:04:49Z</time>
      </trkpt>
      <trkpt lat="45.15199" lon="5.24918">
        <ele>304.59899902344</ele>
        <time>2009-07-25T13:04:55Z</time>
      </trkpt>
      <trkpt lat="45.15227" lon="5.24917">
        <ele>306.66299438477</ele>
        <time>2009-07-25T13:05:02Z</time>
      </trkpt>
      <trkpt lat="45.15253" lon="5.24915">
        <ele>308.78698730469</ele>
        <time>2009-07-25T13:05:09Z</time>
      </trkpt>
      <trkpt lat="45.15279" lon="5.2491">
        <ele>310.50799560547</ele>
        <time>2009-07-25T13:05:16Z</time>
      </trkpt>
      <trkpt lat="45.15297" lon="5.24913">
        <ele>312.05499267578</ele>
        <time>2009-07-25T13:05:22Z</time>
      </trkpt>
      <trkpt lat="45.15317" lon="5.24911">
        <ele>313.57800292969</ele>
        <time>2009-07-25T13:05:28Z</time>
      </trkpt>
      <trkpt lat="45.15335" lon="5.24908">
        <ele>315.52398681641</ele>
        <time>2009-07-25T13:05:34Z</time>
      </trkpt>
      <trkpt lat="45.15376" lon="5.24904">
        <ele>318.56399536133</ele>
        <time>2009-07-25T13:05:47Z</time>
      </trkpt>
      <trkpt lat="45.15427" lon="5.24927">
        <ele>321.96899414062</ele>
        <time>2009-07-25T13:06:03Z</time>
      </trkpt>
      <trkpt lat="45.15466" lon="5.24968">
        <ele>324.77600097656</ele>
        <time>2009-07-25T13:06:16Z</time>
      </trkpt>
      <trkpt lat="45.15499" lon="5.25012">
        <ele>328.13101196289</ele>
        <time>2009-07-25T13:06:28Z</time>
      </trkpt>
      <trkpt lat="45.15534" lon="5.25071">
        <ele>331.08099365234</ele>
        <time>2009-07-25T13:06:38Z</time>
      </trkpt>
      <trkpt lat="45.15554" lon="5.25108">
        <ele>333.3869934082</ele>
        <time>2009-07-25T13:06:44Z</time>
      </trkpt>
      <trkpt lat="45.15564" lon="5.25126">
        <ele>335.2200012207</ele>
        <time>2009-07-25T13:06:47Z</time>
      </trkpt>
      <trkpt lat="45.15574" lon="5.2515">
        <ele>335.20999145508</ele>
        <time>2009-07-25T13:06:51Z</time>
      </trkpt>
      <trkpt lat="45.1558" lon="5.25195">
        <ele>339.75799560547</ele>
        <time>2009-07-25T13:06:58Z</time>
      </trkpt>
      <trkpt lat="45.15581" lon="5.25202">
        <ele>340.13500976562</ele>
        <time>2009-07-25T13:06:59Z</time>
      </trkpt>
      <trkpt lat="45.15581" lon="5.25216">
        <ele>340.92098999023</ele>
        <time>2009-07-25T13:07:01Z</time>
      </trkpt>
      <trkpt lat="45.15575" lon="5.25254">
        <ele>342.94400024414</ele>
        <time>2009-07-25T13:07:06Z</time>
      </trkpt>
      <trkpt lat="45.15571" lon="5.25269">
        <ele>343.64801025391</ele>
        <time>2009-07-25T13:07:08Z</time>
      </trkpt>
      <trkpt lat="45.15529" lon="5.25345">
        <ele>349.59298706055</ele>
        <time>2009-07-25T13:07:21Z</time>
      </trkpt>
      <trkpt lat="45.15526" lon="5.2535">
        <ele>349.89199829102</ele>
        <time>2009-07-25T13:07:22Z</time>
      </trkpt>
      <trkpt lat="45.15517" lon="5.25365">
        <ele>351.1549987793</ele>
        <time>2009-07-25T13:07:25Z</time>
      </trkpt>
      <trkpt lat="45.15507" lon="5.25382">
        <ele>352.74301147461</ele>
        <time>2009-07-25T13:07:28Z</time>
      </trkpt>
      <trkpt lat="45.15458" lon="5.25461">
        <ele>356.31698608398</ele>
        <time>2009-07-25T13:07:41Z</time>
      </trkpt>
      <trkpt lat="45.1544" lon="5.25492">
        <ele>357.43099975586</ele>
        <time>2009-07-25T13:07:46Z</time>
      </trkpt>
      <trkpt lat="45.15437" lon="5.25546">
        <ele>358.26599121094</ele>
        <time>2009-07-25T13:07:53Z</time>
      </trkpt>
      <trkpt lat="45.15448" lon="5.25597">
        <ele>358.91101074219</ele>
        <time>2009-07-25T13:07:59Z</time>
      </trkpt>
      <trkpt lat="45.15467" lon="5.2564">
        <ele>361.03698730469</ele>
        <time>2009-07-25T13:08:04Z</time>
      </trkpt>
      <trkpt lat="45.15533" lon="5.25748">
        <ele>361.05899047852</ele>
        <time>2009-07-25T13:08:18Z</time>
      </trkpt>
      <trkpt lat="45.15548" lon="5.25769">
        <ele>360.82299804688</ele>
        <time>2009-07-25T13:08:21Z</time>
      </trkpt>
      <trkpt lat="45.15577" lon="5.25801">
        <ele>358.11599731445</ele>
        <time>2009-07-25T13:08:26Z</time>
      </trkpt>
      <trkpt lat="45.15604" lon="5.25831">
        <ele>355.33099365234</ele>
        <time>2009-07-25T13:08:30Z</time>
      </trkpt>
      <trkpt lat="45.15654" lon="5.25921">
        <ele>349.00100708008</ele>
        <time>2009-07-25T13:08:38Z</time>
      </trkpt>
      <trkpt lat="45.15665" lon="5.25966">
        <ele>345.47299194336</ele>
        <time>2009-07-25T13:08:41Z</time>
      </trkpt>
      <trkpt lat="45.15649" lon="5.26014">
        <ele>344.18701171875</ele>
        <time>2009-07-25T13:08:44Z</time>
      </trkpt>
      <trkpt lat="45.15612" lon="5.26174">
        <ele>333.78399658203</ele>
        <time>2009-07-25T13:08:53Z</time>
      </trkpt>
      <trkpt lat="45.15606" lon="5.26256">
        <ele>328.22799682617</ele>
        <time>2009-07-25T13:08:57Z</time>
      </trkpt>
      <trkpt lat="45.15593" lon="5.26316">
        <ele>324.35198974609</ele>
        <time>2009-07-25T13:09:00Z</time>
      </trkpt>
      <trkpt lat="45.15561" lon="5.2639">
        <ele>320.36401367188</ele>
        <time>2009-07-25T13:09:04Z</time>
      </trkpt>
      <trkpt lat="45.15512" lon="5.26526">
        <ele>312.89599609375</ele>
        <time>2009-07-25T13:09:11Z</time>
      </trkpt>
      <trkpt lat="45.15501" lon="5.26611">
        <ele>309.08099365234</ele>
        <time>2009-07-25T13:09:15Z</time>
      </trkpt>
      <trkpt lat="45.15487" lon="5.26647">
        <ele>308.06698608398</ele>
        <time>2009-07-25T13:09:17Z</time>
      </trkpt>
      <trkpt lat="45.15472" lon="5.26681">
        <ele>308.03799438477</ele>
        <time>2009-07-25T13:09:19Z</time>
      </trkpt>
      <trkpt lat="45.15416" lon="5.2679">
        <ele>309.56399536133</ele>
        <time>2009-07-25T13:09:26Z</time>
      </trkpt>
      <trkpt lat="45.15388" lon="5.26836">
        <ele>308.93899536133</ele>
        <time>2009-07-25T13:09:30Z</time>
      </trkpt>
      <trkpt lat="45.15302" lon="5.26922">
        <ele>308.17199707031</ele>
        <time>2009-07-25T13:09:41Z</time>
      </trkpt>
      <trkpt lat="45.15206" lon="5.27023">
        <ele>306.37600708008</ele>
        <time>2009-07-25T13:09:55Z</time>
      </trkpt>
      <trkpt lat="45.15111" lon="5.27121">
        <ele>305.23901367188</ele>
        <time>2009-07-25T13:10:10Z</time>
      </trkpt>
      <trkpt lat="45.1501" lon="5.27225">
        <ele>303.59799194336</ele>
        <time>2009-07-25T13:10:27Z</time>
      </trkpt>
      <trkpt lat="45.14939" lon="5.27296">
        <ele>303.28201293945</ele>
        <time>2009-07-25T13:10:41Z</time>
      </trkpt>
      <trkpt lat="45.14886" lon="5.27351">
        <ele>302.46499633789</ele>
        <time>2009-07-25T13:10:52Z</time>
      </trkpt>
      <trkpt lat="45.14831" lon="5.27408">
        <ele>302.30099487305</ele>
        <time>2009-07-25T13:11:06Z</time>
      </trkpt>
      <trkpt lat="45.14801" lon="5.27433">
        <ele>302.09298706055</ele>
        <time>2009-07-25T13:11:14Z</time>
      </trkpt>
      <trkpt lat="45.14716" lon="5.2749">
        <ele>300.97100830078</ele>
        <time>2009-07-25T13:11:34Z</time>
      </trkpt>
      <trkpt lat="45.14677" lon="5.27514">
        <ele>299.5830078125</ele>
        <time>2009-07-25T13:11:42Z</time>
      </trkpt>
      <trkpt lat="45.14616" lon="5.27557">
        <ele>298.16299438477</ele>
        <time>2009-07-25T13:11:54Z</time>
      </trkpt>
      <trkpt lat="45.14579" lon="5.27587">
        <ele>297.0530090332</ele>
        <time>2009-07-25T13:12:03Z</time>
      </trkpt>
      <trkpt lat="45.14564" lon="5.27611">
        <ele>296.53201293945</ele>
        <time>2009-07-25T13:12:10Z</time>
      </trkpt>
      <trkpt lat="45.1457" lon="5.276">
        <ele>296.26501464844</ele>
        <time>2009-07-25T13:12:18Z</time>
      </trkpt>
      <trkpt lat="45.14573" lon="5.27595">
        <ele>296.47299194336</ele>
        <time>2009-07-25T13:12:20Z</time>
      </trkpt>
      <trkpt lat="45.14572" lon="5.27592">
        <ele>297.32000732422</ele>
        <time>2009-07-25T13:12:25Z</time>
      </trkpt>
      <trkpt lat="45.14581" lon="5.27605">
        <ele>296.9169921875</ele>
        <time>2009-07-25T13:13:53Z</time>
      </trkpt>
      <trkpt lat="45.14565" lon="5.27626">
        <ele>295.90600585938</ele>
        <time>2009-07-25T13:13:58Z</time>
      </trkpt>
      <trkpt lat="45.14562" lon="5.27631">
        <ele>295.76400756836</ele>
        <time>2009-07-25T13:13:59Z</time>
      </trkpt>
      <trkpt lat="45.14556" lon="5.27643">
        <ele>294.82901000977</ele>
        <time>2009-07-25T13:14:01Z</time>
      </trkpt>
      <trkpt lat="45.14552" lon="5.2765">
        <ele>294.83499145508</ele>
        <time>2009-07-25T13:14:02Z</time>
      </trkpt>
      <trkpt lat="45.14514" lon="5.27769">
        <ele>291.29998779297</ele>
        <time>2009-07-25T13:14:15Z</time>
      </trkpt>
      <trkpt lat="45.14487" lon="5.2784">
        <ele>289.54501342773</ele>
        <time>2009-07-25T13:14:22Z</time>
      </trkpt>
      <trkpt lat="45.14415" lon="5.27988">
        <ele>287.87100219727</ele>
        <time>2009-07-25T13:14:39Z</time>
      </trkpt>
      <trkpt lat="45.14357" lon="5.28113">
        <ele>288.51901245117</ele>
        <time>2009-07-25T13:14:55Z</time>
      </trkpt>
      <trkpt lat="45.14354" lon="5.28133">
        <ele>288.05200195312</ele>
        <time>2009-07-25T13:14:59Z</time>
      </trkpt>
      <trkpt lat="45.14349" lon="5.28205">
        <ele>288.03298950195</ele>
        <time>2009-07-25T13:15:08Z</time>
      </trkpt>
      <trkpt lat="45.14344" lon="5.2823">
        <ele>289.49200439453</ele>
        <time>2009-07-25T13:15:11Z</time>
      </trkpt>
      <trkpt lat="45.14333" lon="5.28286">
        <ele>288.92300415039</ele>
        <time>2009-07-25T13:15:19Z</time>
      </trkpt>
      <trkpt lat="45.14304" lon="5.28344">
        <ele>288.22500610352</ele>
        <time>2009-07-25T13:15:27Z</time>
      </trkpt>
      <trkpt lat="45.14292" lon="5.28371">
        <ele>287.92999267578</ele>
        <time>2009-07-25T13:15:31Z</time>
      </trkpt>
      <trkpt lat="45.14257" lon="5.28479">
        <ele>288.50900268555</ele>
        <time>2009-07-25T13:15:46Z</time>
      </trkpt>
      <trkpt lat="45.14238" lon="5.28505">
        <ele>289.23599243164</ele>
        <time>2009-07-25T13:15:50Z</time>
      </trkpt>
      <trkpt lat="45.14207" lon="5.28619">
        <ele>287.51998901367</ele>
        <time>2009-07-25T13:16:04Z</time>
      </trkpt>
      <trkpt lat="45.14205" lon="5.28628">
        <ele>287.60699462891</ele>
        <time>2009-07-25T13:16:05Z</time>
      </trkpt>
      <trkpt lat="45.14195" lon="5.28654">
        <ele>287.35699462891</ele>
        <time>2009-07-25T13:16:08Z</time>
      </trkpt>
      <trkpt lat="45.14137" lon="5.28748">
        <ele>285.70700073242</ele>
        <time>2009-07-25T13:16:19Z</time>
      </trkpt>
      <trkpt lat="45.14068" lon="5.28805">
        <ele>284.70599365234</ele>
        <time>2009-07-25T13:16:30Z</time>
      </trkpt>
      <trkpt lat="45.14049" lon="5.28819">
        <ele>283.72399902344</ele>
        <time>2009-07-25T13:16:33Z</time>
      </trkpt>
      <trkpt lat="45.14023" lon="5.28829">
        <ele>283.75698852539</ele>
        <time>2009-07-25T13:16:37Z</time>
      </trkpt>
      <trkpt lat="45.14005" lon="5.2884">
        <ele>282.1669921875</ele>
        <time>2009-07-25T13:16:40Z</time>
      </trkpt>
      <trkpt lat="45.13998" lon="5.28845">
        <ele>282.23199462891</ele>
        <time>2009-07-25T13:16:41Z</time>
      </trkpt>
      <trkpt lat="45.13897" lon="5.28936">
        <ele>281.52801513672</ele>
        <time>2009-07-25T13:16:57Z</time>
      </trkpt>
      <trkpt lat="45.13796" lon="5.29029">
        <ele>277.97100830078</ele>
        <time>2009-07-25T13:17:11Z</time>
      </trkpt>
      <trkpt lat="45.13705" lon="5.29148">
        <ele>276.84100341797</ele>
        <time>2009-07-25T13:17:25Z</time>
      </trkpt>
      <trkpt lat="45.13662" lon="5.29205">
        <ele>276.63800048828</ele>
        <time>2009-07-25T13:17:32Z</time>
      </trkpt>
      <trkpt lat="45.13631" lon="5.29243">
        <ele>275.64401245117</ele>
        <time>2009-07-25T13:17:37Z</time>
      </trkpt>
      <trkpt lat="45.13543" lon="5.2934">
        <ele>274.91500854492</ele>
        <time>2009-07-25T13:17:51Z</time>
      </trkpt>
      <trkpt lat="45.13486" lon="5.29398">
        <ele>274.38198852539</ele>
        <time>2009-07-25T13:18:00Z</time>
      </trkpt>
      <trkpt lat="45.13457" lon="5.29419">
        <ele>275.47698974609</ele>
        <time>2009-07-25T13:18:08Z</time>
      </trkpt>
      <trkpt lat="45.13451" lon="5.29427">
        <ele>275.0419921875</ele>
        <time>2009-07-25T13:18:10Z</time>
      </trkpt>
      <trkpt lat="45.13442" lon="5.29441">
        <ele>274.35998535156</ele>
        <time>2009-07-25T13:18:13Z</time>
      </trkpt>
      <trkpt lat="45.13386" lon="5.29505">
        <ele>273.87200927734</ele>
        <time>2009-07-25T13:18:27Z</time>
      </trkpt>
      <trkpt lat="45.13352" lon="5.29545">
        <ele>274.25698852539</ele>
        <time>2009-07-25T13:18:34Z</time>
      </trkpt>
      <trkpt lat="45.13274" lon="5.29629">
        <ele>274.25299072266</ele>
        <time>2009-07-25T13:18:48Z</time>
      </trkpt>
      <trkpt lat="45.13171" lon="5.29749">
        <ele>274.20599365234</ele>
        <time>2009-07-25T13:19:07Z</time>
      </trkpt>
      <trkpt lat="45.13139" lon="5.29791">
        <ele>274.60198974609</ele>
        <time>2009-07-25T13:19:14Z</time>
      </trkpt>
      <trkpt lat="45.13121" lon="5.29814">
        <ele>274.47299194336</ele>
        <time>2009-07-25T13:19:19Z</time>
      </trkpt>
      <trkpt lat="45.13105" lon="5.29838">
        <ele>273.97601318359</ele>
        <time>2009-07-25T13:19:24Z</time>
      </trkpt>
      <trkpt lat="45.13029" lon="5.29927">
        <ele>273.75698852539</ele>
        <time>2009-07-25T13:19:40Z</time>
      </trkpt>
      <trkpt lat="45.12962" lon="5.3">
        <ele>273.36898803711</ele>
        <time>2009-07-25T13:19:53Z</time>
      </trkpt>
      <trkpt lat="45.1288" lon="5.30074">
        <ele>271.26098632812</ele>
        <time>2009-07-25T13:20:06Z</time>
      </trkpt>
      <trkpt lat="45.12786" lon="5.30127">
        <ele>271.91101074219</ele>
        <time>2009-07-25T13:20:20Z</time>
      </trkpt>
      <trkpt lat="45.12755" lon="5.3014">
        <ele>273.41000366211</ele>
        <time>2009-07-25T13:20:25Z</time>
      </trkpt>
      <trkpt lat="45.12714" lon="5.30175">
        <ele>274.13800048828</ele>
        <time>2009-07-25T13:20:32Z</time>
      </trkpt>
      <trkpt lat="45.12693" lon="5.30199">
        <ele>274.32501220703</ele>
        <time>2009-07-25T13:20:36Z</time>
      </trkpt>
      <trkpt lat="45.12663" lon="5.30238">
        <ele>274.44400024414</ele>
        <time>2009-07-25T13:20:42Z</time>
      </trkpt>
      <trkpt lat="45.1264" lon="5.30314">
        <ele>272.24600219727</ele>
        <time>2009-07-25T13:20:50Z</time>
      </trkpt>
      <trkpt lat="45.12594" lon="5.30406">
        <ele>274.80099487305</ele>
        <time>2009-07-25T13:21:02Z</time>
      </trkpt>
      <trkpt lat="45.12509" lon="5.30551">
        <ele>273.84201049805</ele>
        <time>2009-07-25T13:21:22Z</time>
      </trkpt>
      <trkpt lat="45.12486" lon="5.30543">
        <ele>273.85800170898</ele>
        <time>2009-07-25T13:21:26Z</time>
      </trkpt>
      <trkpt lat="45.12397" lon="5.30412">
        <ele>273.01098632812</ele>
        <time>2009-07-25T13:21:44Z</time>
      </trkpt>
      <trkpt lat="45.12386" lon="5.30397">
        <ele>272.82699584961</ele>
        <time>2009-07-25T13:21:46Z</time>
      </trkpt>
      <trkpt lat="45.12333" lon="5.30388">
        <ele>270.44900512695</ele>
        <time>2009-07-25T13:21:53Z</time>
      </trkpt>
      <trkpt lat="45.12212" lon="5.30429">
        <ele>267.89700317383</ele>
        <time>2009-07-25T13:22:06Z</time>
      </trkpt>
      <trkpt lat="45.12178" lon="5.30432">
        <ele>267.88000488281</ele>
        <time>2009-07-25T13:22:09Z</time>
      </trkpt>
      <trkpt lat="45.12143" lon="5.30429">
        <ele>260.82000732422</ele>
        <time>2009-07-25T13:22:12Z</time>
      </trkpt>
      <trkpt lat="45.12086" lon="5.30477">
        <ele>255.94099426269</ele>
        <time>2009-07-25T13:22:18Z</time>
      </trkpt>
      <trkpt lat="45.12082" lon="5.30506">
        <ele>254.97999572754</ele>
        <time>2009-07-25T13:22:20Z</time>
      </trkpt>
      <trkpt lat="45.12087" lon="5.30525">
        <ele>254.25700378418</ele>
        <time>2009-07-25T13:22:21Z</time>
      </trkpt>
      <trkpt lat="45.12098" lon="5.30557">
        <ele>254.17900085449</ele>
        <time>2009-07-25T13:22:23Z</time>
      </trkpt>
      <trkpt lat="45.12141" lon="5.30765">
        <ele>244.29200744629</ele>
        <time>2009-07-25T13:22:36Z</time>
      </trkpt>
      <trkpt lat="45.12149" lon="5.30813">
        <ele>242.72999572754</ele>
        <time>2009-07-25T13:22:39Z</time>
      </trkpt>
      <trkpt lat="45.12165" lon="5.30879">
        <ele>239.88200378418</ele>
        <time>2009-07-25T13:22:43Z</time>
      </trkpt>
      <trkpt lat="45.12207" lon="5.31103">
        <ele>229.84399414062</ele>
        <time>2009-07-25T13:22:57Z</time>
      </trkpt>
      <trkpt lat="45.1221" lon="5.31119">
        <ele>229.58599853516</ele>
        <time>2009-07-25T13:22:58Z</time>
      </trkpt>
      <trkpt lat="45.12222" lon="5.31182">
        <ele>227.23899841309</ele>
        <time>2009-07-25T13:23:02Z</time>
      </trkpt>
      <trkpt lat="45.12247" lon="5.31405">
        <ele>218.84199523926</ele>
        <time>2009-07-25T13:23:16Z</time>
      </trkpt>
      <trkpt lat="45.12249" lon="5.31467">
        <ele>216.82000732422</ele>
        <time>2009-07-25T13:23:20Z</time>
      </trkpt>
      <trkpt lat="45.12262" lon="5.31546">
        <ele>213.47700500488</ele>
        <time>2009-07-25T13:23:25Z</time>
      </trkpt>
      <trkpt lat="45.12264" lon="5.31578">
        <ele>212.24600219727</ele>
        <time>2009-07-25T13:23:27Z</time>
      </trkpt>
      <trkpt lat="45.12264" lon="5.31691">
        <ele>207.18099975586</ele>
        <time>2009-07-25T13:23:34Z</time>
      </trkpt>
      <trkpt lat="45.12272" lon="5.31738">
        <ele>205.7380065918</ele>
        <time>2009-07-25T13:23:37Z</time>
      </trkpt>
      <trkpt lat="45.12286" lon="5.31799">
        <ele>203.47999572754</ele>
        <time>2009-07-25T13:23:41Z</time>
      </trkpt>
      <trkpt lat="45.12311" lon="5.31909">
        <ele>198.88999938965</ele>
        <time>2009-07-25T13:23:48Z</time>
      </trkpt>
      <trkpt lat="45.12329" lon="5.31968">
        <ele>196.28999328613</ele>
        <time>2009-07-25T13:23:52Z</time>
      </trkpt>
      <trkpt lat="45.12366" lon="5.32138">
        <ele>185.90600585938</ele>
        <time>2009-07-25T13:24:03Z</time>
      </trkpt>
      <trkpt lat="45.1237" lon="5.32152">
        <ele>186.11099243164</ele>
        <time>2009-07-25T13:24:04Z</time>
      </trkpt>
      <trkpt lat="45.12388" lon="5.32197">
        <ele>186.27000427246</ele>
        <time>2009-07-25T13:24:08Z</time>
      </trkpt>
      <trkpt lat="45.12422" lon="5.32227">
        <ele>185.625</ele>
        <time>2009-07-25T13:24:13Z</time>
      </trkpt>
      <trkpt lat="45.12439" lon="5.32277">
        <ele>187.63000488281</ele>
        <time>2009-07-25T13:24:20Z</time>
      </trkpt>
      <trkpt lat="45.12431" lon="5.32291">
        <ele>186.9880065918</ele>
        <time>2009-07-25T13:24:22Z</time>
      </trkpt>
      <trkpt lat="45.12416" lon="5.32325">
        <ele>186.38400268555</ele>
        <time>2009-07-25T13:24:26Z</time>
      </trkpt>
      <trkpt lat="45.1241" lon="5.32354">
        <ele>185.66700744629</ele>
        <time>2009-07-25T13:24:29Z</time>
      </trkpt>
      <trkpt lat="45.12429" lon="5.32463">
        <ele>186.33099365234</ele>
        <time>2009-07-25T13:24:40Z</time>
      </trkpt>
      <trkpt lat="45.12458" lon="5.32555">
        <ele>187.23399353027</ele>
        <time>2009-07-25T13:24:51Z</time>
      </trkpt>
      <trkpt lat="45.12482" lon="5.32642">
        <ele>187.8690032959</ele>
        <time>2009-07-25T13:25:02Z</time>
      </trkpt>
      <trkpt lat="45.12501" lon="5.3271">
        <ele>188.85299682617</ele>
        <time>2009-07-25T13:25:10Z</time>
      </trkpt>
      <trkpt lat="45.12518" lon="5.32771">
        <ele>189.49000549316</ele>
        <time>2009-07-25T13:25:17Z</time>
      </trkpt>
      <trkpt lat="45.12545" lon="5.32866">
        <ele>190.63999938965</ele>
        <time>2009-07-25T13:25:28Z</time>
      </trkpt>
      <trkpt lat="45.12555" lon="5.32901">
        <ele>190.7200012207</ele>
        <time>2009-07-25T13:25:32Z</time>
      </trkpt>
      <trkpt lat="45.12545" lon="5.3297">
        <ele>191.32899475098</ele>
        <time>2009-07-25T13:25:40Z</time>
      </trkpt>
      <trkpt lat="45.12539" lon="5.32975">
        <ele>191.60299682617</ele>
        <time>2009-07-25T13:25:41Z</time>
      </trkpt>
      <trkpt lat="45.12449" lon="5.33037">
        <ele>191.46200561523</ele>
        <time>2009-07-25T13:25:57Z</time>
      </trkpt>
      <trkpt lat="45.12438" lon="5.33045">
        <ele>190.98199462891</ele>
        <time>2009-07-25T13:25:59Z</time>
      </trkpt>
      <trkpt lat="45.12401" lon="5.33073">
        <ele>190.76800537109</ele>
        <time>2009-07-25T13:26:06Z</time>
      </trkpt>
      <trkpt lat="45.1239" lon="5.33098">
        <ele>190.49600219727</ele>
        <time>2009-07-25T13:26:13Z</time>
      </trkpt>
      <trkpt lat="45.12388" lon="5.33109">
        <ele>190.25799560547</ele>
        <time>2009-07-25T13:26:16Z</time>
      </trkpt>
      <trkpt lat="45.12388" lon="5.33128">
        <ele>189.5950012207</ele>
        <time>2009-07-25T13:26:21Z</time>
      </trkpt>
      <trkpt lat="45.1239" lon="5.33139">
        <ele>189.1549987793</ele>
        <time>2009-07-25T13:26:24Z</time>
      </trkpt>
      <trkpt lat="45.12391" lon="5.33142">
        <ele>188.69099426269</ele>
        <time>2009-07-25T13:26:25Z</time>
      </trkpt>
      <trkpt lat="45.124" lon="5.33163">
        <ele>187.86199951172</ele>
        <time>2009-07-25T13:26:30Z</time>
      </trkpt>
      <trkpt lat="45.1243" lon="5.33209">
        <ele>184.09700012207</ele>
        <time>2009-07-25T13:26:37Z</time>
      </trkpt>
      <trkpt lat="45.12453" lon="5.33244">
        <ele>183.92599487305</ele>
        <time>2009-07-25T13:26:41Z</time>
      </trkpt>
      <trkpt lat="45.12465" lon="5.33307">
        <ele>185.22300720215</ele>
        <time>2009-07-25T13:26:47Z</time>
      </trkpt>
      <trkpt lat="45.12463" lon="5.33353">
        <ele>187.43099975586</ele>
        <time>2009-07-25T13:26:52Z</time>
      </trkpt>
      <trkpt lat="45.12469" lon="5.33407">
        <ele>189.57800292969</ele>
        <time>2009-07-25T13:27:01Z</time>
      </trkpt>
      <trkpt lat="45.12484" lon="5.3344">
        <ele>192.09300231934</ele>
        <time>2009-07-25T13:27:08Z</time>
      </trkpt>
      <trkpt lat="45.12494" lon="5.33461">
        <ele>192.97700500488</ele>
        <time>2009-07-25T13:27:13Z</time>
      </trkpt>
      <trkpt lat="45.12515" lon="5.33504">
        <ele>195.62199401856</ele>
        <time>2009-07-25T13:27:24Z</time>
      </trkpt>
      <trkpt lat="45.12521" lon="5.33552">
        <ele>198.44000244141</ele>
        <time>2009-07-25T13:27:34Z</time>
      </trkpt>
      <trkpt lat="45.12545" lon="5.33606">
        <ele>201.50399780273</ele>
        <time>2009-07-25T13:27:47Z</time>
      </trkpt>
      <trkpt lat="45.12572" lon="5.33659">
        <ele>204.41700744629</ele>
        <time>2009-07-25T13:28:01Z</time>
      </trkpt>
      <trkpt lat="45.12564" lon="5.33691">
        <ele>207.03199768066</ele>
        <time>2009-07-25T13:28:10Z</time>
      </trkpt>
      <trkpt lat="45.12521" lon="5.33694">
        <ele>209.6309967041</ele>
        <time>2009-07-25T13:28:23Z</time>
      </trkpt>
      <trkpt lat="45.12477" lon="5.33679">
        <ele>212.21699523926</ele>
        <time>2009-07-25T13:28:37Z</time>
      </trkpt>
      <trkpt lat="45.12468" lon="5.3368">
        <ele>211.93400573731</ele>
        <time>2009-07-25T13:28:42Z</time>
      </trkpt>
      <trkpt lat="45.12465" lon="5.33689">
        <ele>212.18400573731</ele>
        <time>2009-07-25T13:28:48Z</time>
      </trkpt>
      <trkpt lat="45.1246" lon="5.33695">
        <ele>212.49200439453</ele>
        <time>2009-07-25T13:29:31Z</time>
      </trkpt>
      <trkpt lat="45.1244" lon="5.33701">
        <ele>213.59700012207</ele>
        <time>2009-07-25T13:29:40Z</time>
      </trkpt>
      <trkpt lat="45.12422" lon="5.33717">
        <ele>215.08000183106</ele>
        <time>2009-07-25T13:29:46Z</time>
      </trkpt>
      <trkpt lat="45.12399" lon="5.33767">
        <ele>217.625</ele>
        <time>2009-07-25T13:29:56Z</time>
      </trkpt>
      <trkpt lat="45.12395" lon="5.33778">
        <ele>218.36000061035</ele>
        <time>2009-07-25T13:29:58Z</time>
      </trkpt>
      <trkpt lat="45.12386" lon="5.33793">
        <ele>219.18699645996</ele>
        <time>2009-07-25T13:30:01Z</time>
      </trkpt>
      <trkpt lat="45.12365" lon="5.33813">
        <ele>220.72500610352</ele>
        <time>2009-07-25T13:30:07Z</time>
      </trkpt>
      <trkpt lat="45.12342" lon="5.33824">
        <ele>222.32899475098</ele>
        <time>2009-07-25T13:30:13Z</time>
      </trkpt>
      <trkpt lat="45.12316" lon="5.3381">
        <ele>225.42199707031</ele>
        <time>2009-07-25T13:30:22Z</time>
      </trkpt>
      <trkpt lat="45.12279" lon="5.33771">
        <ele>228.66499328613</ele>
        <time>2009-07-25T13:30:34Z</time>
      </trkpt>
      <trkpt lat="45.12233" lon="5.33714">
        <ele>233.30000305176</ele>
        <time>2009-07-25T13:30:50Z</time>
      </trkpt>
      <trkpt lat="45.12196" lon="5.33658">
        <ele>237.42999267578</ele>
        <time>2009-07-25T13:31:05Z</time>
      </trkpt>
      <trkpt lat="45.12167" lon="5.33622">
        <ele>240.30499267578</ele>
        <time>2009-07-25T13:31:18Z</time>
      </trkpt>
      <trkpt lat="45.12146" lon="5.33595">
        <ele>242.17500305176</ele>
        <time>2009-07-25T13:31:27Z</time>
      </trkpt>
      <trkpt lat="45.1209" lon="5.33547">
        <ele>247.60299682617</ele>
        <time>2009-07-25T13:31:45Z</time>
      </trkpt>
      <trkpt lat="45.12054" lon="5.33519">
        <ele>250.89999389648</ele>
        <time>2009-07-25T13:31:57Z</time>
      </trkpt>
      <trkpt lat="45.1204" lon="5.33496">
        <ele>252.07699584961</ele>
        <time>2009-07-25T13:32:02Z</time>
      </trkpt>
      <trkpt lat="45.12034" lon="5.33521">
        <ele>253.80499267578</ele>
        <time>2009-07-25T13:32:09Z</time>
      </trkpt>
      <trkpt lat="45.12045" lon="5.33544">
        <ele>254.71600341797</ele>
        <time>2009-07-25T13:32:12Z</time>
      </trkpt>
      <trkpt lat="45.12051" lon="5.33558">
        <ele>255.29499816894</ele>
        <time>2009-07-25T13:32:14Z</time>
      </trkpt>
      <trkpt lat="45.1207" lon="5.33581">
        <ele>257.61801147461</ele>
        <time>2009-07-25T13:32:18Z</time>
      </trkpt>
      <trkpt lat="45.12105" lon="5.33622">
        <ele>261.54901123047</ele>
        <time>2009-07-25T13:32:24Z</time>
      </trkpt>
      <trkpt lat="45.12111" lon="5.33657">
        <ele>265.06201171875</ele>
        <time>2009-07-25T13:32:30Z</time>
      </trkpt>
      <trkpt lat="45.12096" lon="5.33703">
        <ele>267.84201049805</ele>
        <time>2009-07-25T13:32:41Z</time>
      </trkpt>
      <trkpt lat="45.12115" lon="5.33748">
        <ele>269.12399291992</ele>
        <time>2009-07-25T13:32:51Z</time>
      </trkpt>
      <trkpt lat="45.12105" lon="5.338">
        <ele>269.75500488281</ele>
        <time>2009-07-25T13:33:03Z</time>
      </trkpt>
      <trkpt lat="45.12101" lon="5.33815">
        <ele>269.74700927734</ele>
        <time>2009-07-25T13:33:10Z</time>
      </trkpt>
      <trkpt lat="45.12103" lon="5.33815">
        <ele>270.47299194336</ele>
        <time>2009-07-25T13:33:12Z</time>
      </trkpt>
      <trkpt lat="45.12106" lon="5.33808">
        <ele>270.19500732422</ele>
        <time>2009-07-25T13:35:12Z</time>
      </trkpt>
      <trkpt lat="45.12116" lon="5.33773">
        <ele>270.10699462891</ele>
        <time>2009-07-25T13:35:23Z</time>
      </trkpt>
      <trkpt lat="45.12117" lon="5.33735">
        <ele>269.26800537109</ele>
        <time>2009-07-25T13:35:31Z</time>
      </trkpt>
      <trkpt lat="45.12113" lon="5.33726">
        <ele>269.26501464844</ele>
        <time>2009-07-25T13:35:33Z</time>
      </trkpt>
      <trkpt lat="45.12107" lon="5.33717">
        <ele>269.26501464844</ele>
        <time>2009-07-25T13:35:35Z</time>
      </trkpt>
      <trkpt lat="45.12107" lon="5.33676">
        <ele>266.47399902344</ele>
        <time>2009-07-25T13:35:41Z</time>
      </trkpt>
      <trkpt lat="45.12113" lon="5.3366">
        <ele>266.35000610352</ele>
        <time>2009-07-25T13:35:43Z</time>
      </trkpt>
      <trkpt lat="45.12096" lon="5.33598">
        <ele>260.49600219727</ele>
        <time>2009-07-25T13:35:49Z</time>
      </trkpt>
      <trkpt lat="45.12089" lon="5.3359">
        <ele>259.68099975586</ele>
        <time>2009-07-25T13:35:50Z</time>
      </trkpt>
      <trkpt lat="45.12041" lon="5.33531">
        <ele>254.30400085449</ele>
        <time>2009-07-25T13:35:56Z</time>
      </trkpt>
      <trkpt lat="45.12037" lon="5.33501">
        <ele>252.20599365234</ele>
        <time>2009-07-25T13:36:02Z</time>
      </trkpt>
      <trkpt lat="45.12045" lon="5.33513">
        <ele>251.4640045166</ele>
        <time>2009-07-25T13:36:04Z</time>
      </trkpt>
      <trkpt lat="45.12056" lon="5.3354">
        <ele>249.97399902344</ele>
        <time>2009-07-25T13:36:08Z</time>
      </trkpt>
      <trkpt lat="45.12109" lon="5.33568">
        <ele>245.19999694824</ele>
        <time>2009-07-25T13:36:15Z</time>
      </trkpt>
      <trkpt lat="45.12182" lon="5.33642">
        <ele>237.83700561523</ele>
        <time>2009-07-25T13:36:24Z</time>
      </trkpt>
      <trkpt lat="45.1222" lon="5.33695">
        <ele>233.5059967041</ele>
        <time>2009-07-25T13:36:29Z</time>
      </trkpt>
      <trkpt lat="45.12261" lon="5.33752">
        <ele>229.39399719238</ele>
        <time>2009-07-25T13:36:34Z</time>
      </trkpt>
      <trkpt lat="45.12317" lon="5.33815">
        <ele>224.58500671387</ele>
        <time>2009-07-25T13:36:40Z</time>
      </trkpt>
      <trkpt lat="45.12369" lon="5.33822">
        <ele>220.61199951172</ele>
        <time>2009-07-25T13:36:46Z</time>
      </trkpt>
      <trkpt lat="45.12385" lon="5.33807">
        <ele>219.00900268555</ele>
        <time>2009-07-25T13:36:48Z</time>
      </trkpt>
      <trkpt lat="45.1242" lon="5.33739">
        <ele>215.64500427246</ele>
        <time>2009-07-25T13:36:54Z</time>
      </trkpt>
      <trkpt lat="45.12451" lon="5.33703">
        <ele>213.11099243164</ele>
        <time>2009-07-25T13:36:58Z</time>
      </trkpt>
      <trkpt lat="45.1247" lon="5.33691">
        <ele>212.78700256348</ele>
        <time>2009-07-25T13:37:03Z</time>
      </trkpt>
      <trkpt lat="45.12473" lon="5.33692">
        <ele>212.23300170898</ele>
        <time>2009-07-25T13:37:07Z</time>
      </trkpt>
      <trkpt lat="45.12474" lon="5.33694">
        <ele>212.22200012207</ele>
        <time>2009-07-25T13:37:25Z</time>
      </trkpt>
      <trkpt lat="45.12476" lon="5.33696">
        <ele>212.06900024414</ele>
        <time>2009-07-25T13:37:26Z</time>
      </trkpt>
      <trkpt lat="45.12483" lon="5.33746">
        <ele>210.99600219727</ele>
        <time>2009-07-25T13:37:35Z</time>
      </trkpt>
      <trkpt lat="45.1249" lon="5.33799">
        <ele>211.58599853516</ele>
        <time>2009-07-25T13:37:42Z</time>
      </trkpt>
      <trkpt lat="45.125" lon="5.33863">
        <ele>211.82899475098</ele>
        <time>2009-07-25T13:37:50Z</time>
      </trkpt>
      <trkpt lat="45.1252" lon="5.34004">
        <ele>213.42700195312</ele>
        <time>2009-07-25T13:38:07Z</time>
      </trkpt>
      <trkpt lat="45.12555" lon="5.34212">
        <ele>212.99899291992</ele>
        <time>2009-07-25T13:38:32Z</time>
      </trkpt>
      <trkpt lat="45.12578" lon="5.34364">
        <ele>212.88800048828</ele>
        <time>2009-07-25T13:38:51Z</time>
      </trkpt>
      <trkpt lat="45.126" lon="5.34513">
        <ele>214.45700073242</ele>
        <time>2009-07-25T13:39:10Z</time>
      </trkpt>
      <trkpt lat="45.12609" lon="5.3457">
        <ele>215.1369934082</ele>
        <time>2009-07-25T13:39:17Z</time>
      </trkpt>
      <trkpt lat="45.12638" lon="5.34759">
        <ele>217.00900268555</ele>
        <time>2009-07-25T13:39:40Z</time>
      </trkpt>
      <trkpt lat="45.1269" lon="5.34906">
        <ele>219.83399963379</ele>
        <time>2009-07-25T13:39:59Z</time>
      </trkpt>
      <trkpt lat="45.12769" lon="5.35074">
        <ele>220.03300476074</ele>
        <time>2009-07-25T13:40:19Z</time>
      </trkpt>
      <trkpt lat="45.12867" lon="5.35289">
        <ele>219.94400024414</ele>
        <time>2009-07-25T13:40:42Z</time>
      </trkpt>
      <trkpt lat="45.12973" lon="5.35461">
        <ele>219.94299316406</ele>
        <time>2009-07-25T13:41:04Z</time>
      </trkpt>
      <trkpt lat="45.1305" lon="5.35618">
        <ele>223.37600708008</ele>
        <time>2009-07-25T13:41:25Z</time>
      </trkpt>
      <trkpt lat="45.13087" lon="5.35704">
        <ele>225.06500244141</ele>
        <time>2009-07-25T13:41:36Z</time>
      </trkpt>
      <trkpt lat="45.13144" lon="5.35882">
        <ele>228.8869934082</ele>
        <time>2009-07-25T13:41:58Z</time>
      </trkpt>
      <trkpt lat="45.13154" lon="5.35913">
        <ele>229.92700195312</ele>
        <time>2009-07-25T13:42:03Z</time>
      </trkpt>
      <trkpt lat="45.13172" lon="5.35961">
        <ele>231.78399658203</ele>
        <time>2009-07-25T13:42:16Z</time>
      </trkpt>
      <trkpt lat="45.13175" lon="5.35968">
        <ele>231.74600219727</ele>
        <time>2009-07-25T13:42:19Z</time>
      </trkpt>
      <trkpt lat="45.13197" lon="5.36004">
        <ele>232.2859954834</ele>
        <time>2009-07-25T13:42:30Z</time>
      </trkpt>
      <trkpt lat="45.1321" lon="5.36018">
        <ele>232.18400573731</ele>
        <time>2009-07-25T13:42:35Z</time>
      </trkpt>
      <trkpt lat="45.13222" lon="5.36029">
        <ele>231.95500183106</ele>
        <time>2009-07-25T13:42:39Z</time>
      </trkpt>
      <trkpt lat="45.13239" lon="5.36042">
        <ele>231.68400573731</ele>
        <time>2009-07-25T13:42:44Z</time>
      </trkpt>
      <trkpt lat="45.1326" lon="5.36057">
        <ele>231.67599487305</ele>
        <time>2009-07-25T13:42:50Z</time>
      </trkpt>
      <trkpt lat="45.13274" lon="5.36067">
        <ele>231.67100524902</ele>
        <time>2009-07-25T13:42:54Z</time>
      </trkpt>
      <trkpt lat="45.13291" lon="5.3608">
        <ele>231.66400146484</ele>
        <time>2009-07-25T13:42:59Z</time>
      </trkpt>
      <trkpt lat="45.13315" lon="5.36098">
        <ele>230.92100524902</ele>
        <time>2009-07-25T13:43:06Z</time>
      </trkpt>
      <trkpt lat="45.1336" lon="5.36132">
        <ele>229.3809967041</ele>
        <time>2009-07-25T13:43:18Z</time>
      </trkpt>
      <trkpt lat="45.1343" lon="5.36183">
        <ele>227.25900268555</ele>
        <time>2009-07-25T13:43:34Z</time>
      </trkpt>
      <trkpt lat="45.13518" lon="5.36249">
        <ele>226.88900756836</ele>
        <time>2009-07-25T13:43:55Z</time>
      </trkpt>
      <trkpt lat="45.13555" lon="5.36278">
        <ele>226.49499511719</ele>
        <time>2009-07-25T13:44:04Z</time>
      </trkpt>
      <trkpt lat="45.13628" lon="5.36352">
        <ele>225.47700500488</ele>
        <time>2009-07-25T13:44:22Z</time>
      </trkpt>
      <trkpt lat="45.13668" lon="5.36396">
        <ele>224.74099731445</ele>
        <time>2009-07-25T13:44:32Z</time>
      </trkpt>
      <trkpt lat="45.13702" lon="5.36432">
        <ele>224.7200012207</ele>
        <time>2009-07-25T13:44:41Z</time>
      </trkpt>
      <trkpt lat="45.13742" lon="5.36473">
        <ele>225.54600524902</ele>
        <time>2009-07-25T13:44:55Z</time>
      </trkpt>
      <trkpt lat="45.13781" lon="5.3651">
        <ele>226.72500610352</ele>
        <time>2009-07-25T13:45:12Z</time>
      </trkpt>
      <trkpt lat="45.1384" lon="5.36562">
        <ele>226.5119934082</ele>
        <time>2009-07-25T13:45:34Z</time>
      </trkpt>
      <trkpt lat="45.13893" lon="5.36616">
        <ele>226.30999755859</ele>
        <time>2009-07-25T13:45:50Z</time>
      </trkpt>
      <trkpt lat="45.1395" lon="5.36682">
        <ele>226.24299621582</ele>
        <time>2009-07-25T13:46:04Z</time>
      </trkpt>
      <trkpt lat="45.13983" lon="5.36723">
        <ele>227.47500610352</ele>
        <time>2009-07-25T13:46:12Z</time>
      </trkpt>
      <trkpt lat="45.14024" lon="5.36772">
        <ele>228.38600158691</ele>
        <time>2009-07-25T13:46:22Z</time>
      </trkpt>
      <trkpt lat="45.14056" lon="5.3681">
        <ele>229.24699401856</ele>
        <time>2009-07-25T13:46:30Z</time>
      </trkpt>
      <trkpt lat="45.14079" lon="5.36837">
        <ele>230.60699462891</ele>
        <time>2009-07-25T13:46:36Z</time>
      </trkpt>
      <trkpt lat="45.14156" lon="5.36928">
        <ele>232.80999755859</ele>
        <time>2009-07-25T13:46:57Z</time>
      </trkpt>
      <trkpt lat="45.14223" lon="5.37007">
        <ele>234.23399353027</ele>
        <time>2009-07-25T13:47:15Z</time>
      </trkpt>
      <trkpt lat="45.14301" lon="5.37099">
        <ele>236.15100097656</ele>
        <time>2009-07-25T13:47:36Z</time>
      </trkpt>
      <trkpt lat="45.14374" lon="5.37188">
        <ele>239.11399841309</ele>
        <time>2009-07-25T13:47:57Z</time>
      </trkpt>
      <trkpt lat="45.14409" lon="5.37231">
        <ele>240.70399475098</ele>
        <time>2009-07-25T13:48:07Z</time>
      </trkpt>
      <trkpt lat="45.14474" lon="5.37307">
        <ele>243.16299438477</ele>
        <time>2009-07-25T13:48:25Z</time>
      </trkpt>
      <trkpt lat="45.14505" lon="5.37334">
        <ele>245.32400512695</ele>
        <time>2009-07-25T13:48:33Z</time>
      </trkpt>
      <trkpt lat="45.14511" lon="5.37347">
        <ele>245.67500305176</ele>
        <time>2009-07-25T13:48:40Z</time>
      </trkpt>
      <trkpt lat="45.14512" lon="5.37349">
        <ele>245.7200012207</ele>
        <time>2009-07-25T13:48:51Z</time>
      </trkpt>
      <trkpt lat="45.14507" lon="5.37372">
        <ele>245.97200012207</ele>
        <time>2009-07-25T13:49:00Z</time>
      </trkpt>
      <trkpt lat="45.145" lon="5.3739">
        <ele>246.19900512695</ele>
        <time>2009-07-25T13:49:04Z</time>
      </trkpt>
      <trkpt lat="45.14483" lon="5.37459">
        <ele>248.12399291992</ele>
        <time>2009-07-25T13:49:18Z</time>
      </trkpt>
      <trkpt lat="45.1447" lon="5.37508">
        <ele>250.32000732422</ele>
        <time>2009-07-25T13:49:30Z</time>
      </trkpt>
      <trkpt lat="45.1445" lon="5.3756">
        <ele>252.60200500488</ele>
        <time>2009-07-25T13:49:42Z</time>
      </trkpt>
      <trkpt lat="45.14446" lon="5.37592">
        <ele>254.14100646973</ele>
        <time>2009-07-25T13:49:52Z</time>
      </trkpt>
      <trkpt lat="45.14434" lon="5.37632">
        <ele>256.21701049805</ele>
        <time>2009-07-25T13:50:04Z</time>
      </trkpt>
      <trkpt lat="45.14429" lon="5.37646">
        <ele>256.96600341797</ele>
        <time>2009-07-25T13:50:08Z</time>
      </trkpt>
      <trkpt lat="45.14427" lon="5.37659">
        <ele>258.09600830078</ele>
        <time>2009-07-25T13:50:12Z</time>
      </trkpt>
      <trkpt lat="45.14433" lon="5.37669">
        <ele>258.4460144043</ele>
        <time>2009-07-25T13:50:16Z</time>
      </trkpt>
      <trkpt lat="45.14464" lon="5.3768">
        <ele>261.23001098633</ele>
        <time>2009-07-25T13:50:27Z</time>
      </trkpt>
      <trkpt lat="45.14497" lon="5.37703">
        <ele>263.16598510742</ele>
        <time>2009-07-25T13:50:41Z</time>
      </trkpt>
      <trkpt lat="45.14527" lon="5.37738">
        <ele>266.91299438477</ele>
        <time>2009-07-25T13:50:53Z</time>
      </trkpt>
      <trkpt lat="45.14562" lon="5.37774">
        <ele>271.4049987793</ele>
        <time>2009-07-25T13:51:06Z</time>
      </trkpt>
      <trkpt lat="45.14601" lon="5.37826">
        <ele>275.49499511719</ele>
        <time>2009-07-25T13:51:22Z</time>
      </trkpt>
      <trkpt lat="45.14643" lon="5.37876">
        <ele>280.75100708008</ele>
        <time>2009-07-25T13:51:39Z</time>
      </trkpt>
      <trkpt lat="45.1465" lon="5.37891">
        <ele>281.69400024414</ele>
        <time>2009-07-25T13:51:43Z</time>
      </trkpt>
      <trkpt lat="45.14639" lon="5.37896">
        <ele>282.44198608398</ele>
        <time>2009-07-25T13:51:49Z</time>
      </trkpt>
      <trkpt lat="45.14605" lon="5.37857">
        <ele>286.03100585938</ele>
        <time>2009-07-25T13:52:02Z</time>
      </trkpt>
      <trkpt lat="45.14556" lon="5.37826">
        <ele>290.75299072266</ele>
        <time>2009-07-25T13:52:17Z</time>
      </trkpt>
      <trkpt lat="45.14503" lon="5.37794">
        <ele>295.71798706055</ele>
        <time>2009-07-25T13:52:33Z</time>
      </trkpt>
      <trkpt lat="45.14462" lon="5.3779">
        <ele>298.70999145508</ele>
        <time>2009-07-25T13:52:46Z</time>
      </trkpt>
      <trkpt lat="45.14464" lon="5.3782">
        <ele>300.44400024414</ele>
        <time>2009-07-25T13:52:53Z</time>
      </trkpt>
      <trkpt lat="45.14516" lon="5.37883">
        <ele>306.72399902344</ele>
        <time>2009-07-25T13:53:12Z</time>
      </trkpt>
      <trkpt lat="45.14567" lon="5.37938">
        <ele>311.88198852539</ele>
        <time>2009-07-25T13:53:30Z</time>
      </trkpt>
      <trkpt lat="45.14603" lon="5.38013">
        <ele>317.64700317383</ele>
        <time>2009-07-25T13:53:49Z</time>
      </trkpt>
      <trkpt lat="45.1459" lon="5.38068">
        <ele>321.62100219727</ele>
        <time>2009-07-25T13:54:01Z</time>
      </trkpt>
      <trkpt lat="45.14579" lon="5.38125">
        <ele>324.73999023438</ele>
        <time>2009-07-25T13:54:13Z</time>
      </trkpt>
      <trkpt lat="45.14561" lon="5.38198">
        <ele>329.94000244141</ele>
        <time>2009-07-25T13:54:29Z</time>
      </trkpt>
      <trkpt lat="45.14523" lon="5.38269">
        <ele>334.72601318359</ele>
        <time>2009-07-25T13:54:46Z</time>
      </trkpt>
      <trkpt lat="45.14481" lon="5.38303">
        <ele>339.47299194336</ele>
        <time>2009-07-25T13:55:00Z</time>
      </trkpt>
      <trkpt lat="45.14444" lon="5.38287">
        <ele>341.3450012207</ele>
        <time>2009-07-25T13:55:11Z</time>
      </trkpt>
      <trkpt lat="45.14386" lon="5.38246">
        <ele>347.7919921875</ele>
        <time>2009-07-25T13:55:29Z</time>
      </trkpt>
      <trkpt lat="45.14314" lon="5.3824">
        <ele>354.6960144043</ele>
        <time>2009-07-25T13:55:49Z</time>
      </trkpt>
      <trkpt lat="45.14311" lon="5.38241">
        <ele>354.84799194336</ele>
        <time>2009-07-25T13:55:50Z</time>
      </trkpt>
      <trkpt lat="45.14264" lon="5.38235">
        <ele>358.77499389648</ele>
        <time>2009-07-25T13:56:02Z</time>
      </trkpt>
      <trkpt lat="45.14198" lon="5.38233">
        <ele>364.21301269531</ele>
        <time>2009-07-25T13:56:19Z</time>
      </trkpt>
      <trkpt lat="45.14157" lon="5.38229">
        <ele>367.61199951172</ele>
        <time>2009-07-25T13:56:29Z</time>
      </trkpt>
      <trkpt lat="45.14145" lon="5.38239">
        <ele>369.21398925781</ele>
        <time>2009-07-25T13:56:33Z</time>
      </trkpt>
      <trkpt lat="45.14162" lon="5.38252">
        <ele>370.15600585938</ele>
        <time>2009-07-25T13:56:39Z</time>
      </trkpt>
      <trkpt lat="45.14204" lon="5.38264">
        <ele>372.74301147461</ele>
        <time>2009-07-25T13:56:50Z</time>
      </trkpt>
      <trkpt lat="45.14212" lon="5.38269">
        <ele>373.11599731445</ele>
        <time>2009-07-25T13:56:52Z</time>
      </trkpt>
      <trkpt lat="45.14228" lon="5.38274">
        <ele>375.38299560547</ele>
        <time>2009-07-25T13:56:56Z</time>
      </trkpt>
      <trkpt lat="45.14247" lon="5.38277">
        <ele>377.01599121094</ele>
        <time>2009-07-25T13:57:01Z</time>
      </trkpt>
      <trkpt lat="45.14296" lon="5.38308">
        <ele>380.86401367188</ele>
        <time>2009-07-25T13:57:15Z</time>
      </trkpt>
      <trkpt lat="45.14332" lon="5.38363">
        <ele>384.37899780273</ele>
        <time>2009-07-25T13:57:29Z</time>
      </trkpt>
      <trkpt lat="45.1439" lon="5.38412">
        <ele>390.11099243164</ele>
        <time>2009-07-25T13:57:46Z</time>
      </trkpt>
      <trkpt lat="45.14434" lon="5.3844">
        <ele>394.54998779297</ele>
        <time>2009-07-25T13:57:59Z</time>
      </trkpt>
      <trkpt lat="45.14482" lon="5.38495">
        <ele>400.83898925781</ele>
        <time>2009-07-25T13:58:16Z</time>
      </trkpt>
      <trkpt lat="45.14536" lon="5.38534">
        <ele>405.85299682617</ele>
        <time>2009-07-25T13:58:33Z</time>
      </trkpt>
      <trkpt lat="45.14589" lon="5.38564">
        <ele>409.3030090332</ele>
        <time>2009-07-25T13:58:52Z</time>
      </trkpt>
      <trkpt lat="45.14624" lon="5.38605">
        <ele>413.51699829102</ele>
        <time>2009-07-25T13:59:06Z</time>
      </trkpt>
      <trkpt lat="45.14661" lon="5.38648">
        <ele>418.00500488281</ele>
        <time>2009-07-25T13:59:21Z</time>
      </trkpt>
      <trkpt lat="45.14682" lon="5.38671">
        <ele>420.57598876953</ele>
        <time>2009-07-25T13:59:29Z</time>
      </trkpt>
      <trkpt lat="45.14719" lon="5.38714">
        <ele>424.30099487305</ele>
        <time>2009-07-25T13:59:43Z</time>
      </trkpt>
      <trkpt lat="45.14768" lon="5.38764">
        <ele>429.74600219727</ele>
        <time>2009-07-25T14:00:00Z</time>
      </trkpt>
      <trkpt lat="45.14818" lon="5.38788">
        <ele>433.7619934082</ele>
        <time>2009-07-25T14:00:15Z</time>
      </trkpt>
      <trkpt lat="45.14875" lon="5.38821">
        <ele>438.96200561523</ele>
        <time>2009-07-25T14:00:32Z</time>
      </trkpt>
      <trkpt lat="45.14939" lon="5.38871">
        <ele>444.97399902344</ele>
        <time>2009-07-25T14:00:53Z</time>
      </trkpt>
      <trkpt lat="45.14949" lon="5.38877">
        <ele>446.51599121094</ele>
        <time>2009-07-25T14:00:56Z</time>
      </trkpt>
      <trkpt lat="45.14996" lon="5.38913">
        <ele>450.96099853516</ele>
        <time>2009-07-25T14:01:11Z</time>
      </trkpt>
      <trkpt lat="45.15042" lon="5.38945">
        <ele>455.20498657227</ele>
        <time>2009-07-25T14:01:26Z</time>
      </trkpt>
      <trkpt lat="45.15079" lon="5.38974">
        <ele>458.71499633789</ele>
        <time>2009-07-25T14:01:38Z</time>
      </trkpt>
      <trkpt lat="45.15112" lon="5.39017">
        <ele>462.51599121094</ele>
        <time>2009-07-25T14:01:51Z</time>
      </trkpt>
      <trkpt lat="45.15159" lon="5.39029">
        <ele>466.75601196289</ele>
        <time>2009-07-25T14:02:05Z</time>
      </trkpt>
      <trkpt lat="45.15206" lon="5.39061">
        <ele>471.14001464844</ele>
        <time>2009-07-25T14:02:20Z</time>
      </trkpt>
      <trkpt lat="45.15221" lon="5.39069">
        <ele>471.8869934082</ele>
        <time>2009-07-25T14:02:25Z</time>
      </trkpt>
      <trkpt lat="45.15212" lon="5.39081">
        <ele>473.00399780273</ele>
        <time>2009-07-25T14:02:31Z</time>
      </trkpt>
      <trkpt lat="45.15202" lon="5.39073">
        <ele>473.48300170898</ele>
        <time>2009-07-25T14:02:34Z</time>
      </trkpt>
      <trkpt lat="45.15144" lon="5.39045">
        <ele>478.21798706055</ele>
        <time>2009-07-25T14:02:52Z</time>
      </trkpt>
      <trkpt lat="45.15092" lon="5.39048">
        <ele>482.37100219727</ele>
        <time>2009-07-25T14:03:08Z</time>
      </trkpt>
      <trkpt lat="45.15056" lon="5.39021">
        <ele>485.82699584961</ele>
        <time>2009-07-25T14:03:21Z</time>
      </trkpt>
      <trkpt lat="45.15001" lon="5.38998">
        <ele>490.61499023438</ele>
        <time>2009-07-25T14:03:39Z</time>
      </trkpt>
      <trkpt lat="45.14944" lon="5.38976">
        <ele>495.625</ele>
        <time>2009-07-25T14:03:58Z</time>
      </trkpt>
      <trkpt lat="45.149" lon="5.38957">
        <ele>499.54098510742</ele>
        <time>2009-07-25T14:04:14Z</time>
      </trkpt>
      <trkpt lat="45.14846" lon="5.38934">
        <ele>504.21398925781</ele>
        <time>2009-07-25T14:04:33Z</time>
      </trkpt>
      <trkpt lat="45.148" lon="5.38919">
        <ele>508.33898925781</ele>
        <time>2009-07-25T14:04:50Z</time>
      </trkpt>
      <trkpt lat="45.14759" lon="5.38907">
        <ele>512.25897216797</ele>
        <time>2009-07-25T14:05:05Z</time>
      </trkpt>
      <trkpt lat="45.14721" lon="5.38895">
        <ele>515.38702392578</ele>
        <time>2009-07-25T14:05:19Z</time>
      </trkpt>
      <trkpt lat="45.147" lon="5.38881">
        <ele>517.14001464844</ele>
        <time>2009-07-25T14:05:26Z</time>
      </trkpt>
      <trkpt lat="45.14645" lon="5.38845">
        <ele>522.27502441406</ele>
        <time>2009-07-25T14:05:45Z</time>
      </trkpt>
      <trkpt lat="45.14597" lon="5.38813">
        <ele>527.76702880859</ele>
        <time>2009-07-25T14:06:02Z</time>
      </trkpt>
      <trkpt lat="45.14542" lon="5.38808">
        <ele>532.18798828125</ele>
        <time>2009-07-25T14:06:18Z</time>
      </trkpt>
      <trkpt lat="45.14482" lon="5.38796">
        <ele>536.87097167969</ele>
        <time>2009-07-25T14:06:37Z</time>
      </trkpt>
      <trkpt lat="45.14446" lon="5.38794">
        <ele>540.458984375</ele>
        <time>2009-07-25T14:06:50Z</time>
      </trkpt>
      <trkpt lat="45.14415" lon="5.38774">
        <ele>543.54699707031</ele>
        <time>2009-07-25T14:07:03Z</time>
      </trkpt>
      <trkpt lat="45.14359" lon="5.38781">
        <ele>548.34002685547</ele>
        <time>2009-07-25T14:07:21Z</time>
      </trkpt>
      <trkpt lat="45.14306" lon="5.38803">
        <ele>553.22302246094</ele>
        <time>2009-07-25T14:07:40Z</time>
      </trkpt>
      <trkpt lat="45.14264" lon="5.38802">
        <ele>556.73999023438</ele>
        <time>2009-07-25T14:07:56Z</time>
      </trkpt>
      <trkpt lat="45.1422" lon="5.38788">
        <ele>560.19500732422</ele>
        <time>2009-07-25T14:08:11Z</time>
      </trkpt>
      <trkpt lat="45.14215" lon="5.38788">
        <ele>560.95202636719</ele>
        <time>2009-07-25T14:08:13Z</time>
      </trkpt>
      <trkpt lat="45.1421" lon="5.38795">
        <ele>561.61401367188</ele>
        <time>2009-07-25T14:08:16Z</time>
      </trkpt>
      <trkpt lat="45.14223" lon="5.38811">
        <ele>562.71398925781</ele>
        <time>2009-07-25T14:08:22Z</time>
      </trkpt>
      <trkpt lat="45.1428" lon="5.38846">
        <ele>566.88598632812</ele>
        <time>2009-07-25T14:08:40Z</time>
      </trkpt>
      <trkpt lat="45.1433" lon="5.38889">
        <ele>571.1669921875</ele>
        <time>2009-07-25T14:08:58Z</time>
      </trkpt>
      <trkpt lat="45.14373" lon="5.38927">
        <ele>576.24597167969</ele>
        <time>2009-07-25T14:09:15Z</time>
      </trkpt>
      <trkpt lat="45.14416" lon="5.3897">
        <ele>581.4990234375</ele>
        <time>2009-07-25T14:09:32Z</time>
      </trkpt>
      <trkpt lat="45.1447" lon="5.39014">
        <ele>586.71600341797</ele>
        <time>2009-07-25T14:09:53Z</time>
      </trkpt>
      <trkpt lat="45.1449" lon="5.39021">
        <ele>588.40002441406</ele>
        <time>2009-07-25T14:10:00Z</time>
      </trkpt>
      <trkpt lat="45.14525" lon="5.39036">
        <ele>590.94897460938</ele>
        <time>2009-07-25T14:10:13Z</time>
      </trkpt>
      <trkpt lat="45.14569" lon="5.39068">
        <ele>596.6240234375</ele>
        <time>2009-07-25T14:10:29Z</time>
      </trkpt>
      <trkpt lat="45.14599" lon="5.39097">
        <ele>599.34899902344</ele>
        <time>2009-07-25T14:10:42Z</time>
      </trkpt>
      <trkpt lat="45.14632" lon="5.39133">
        <ele>603.03399658203</ele>
        <time>2009-07-25T14:10:57Z</time>
      </trkpt>
      <trkpt lat="45.14658" lon="5.39159">
        <ele>605.90802001953</ele>
        <time>2009-07-25T14:11:10Z</time>
      </trkpt>
      <trkpt lat="45.14704" lon="5.39202">
        <ele>610.52197265625</ele>
        <time>2009-07-25T14:11:29Z</time>
      </trkpt>
      <trkpt lat="45.14748" lon="5.39222">
        <ele>614.7509765625</ele>
        <time>2009-07-25T14:11:45Z</time>
      </trkpt>
      <trkpt lat="45.14793" lon="5.39232">
        <ele>618.77001953125</ele>
        <time>2009-07-25T14:12:02Z</time>
      </trkpt>
      <trkpt lat="45.14802" lon="5.39231">
        <ele>618.94299316406</ele>
        <time>2009-07-25T14:12:06Z</time>
      </trkpt>
      <trkpt lat="45.14843" lon="5.39244">
        <ele>622.33697509766</ele>
        <time>2009-07-25T14:12:23Z</time>
      </trkpt>
      <trkpt lat="45.1487" lon="5.39263">
        <ele>625.17102050781</ele>
        <time>2009-07-25T14:12:37Z</time>
      </trkpt>
      <trkpt lat="45.14886" lon="5.39273">
        <ele>627.25598144531</ele>
        <time>2009-07-25T14:12:45Z</time>
      </trkpt>
      <trkpt lat="45.14912" lon="5.39303">
        <ele>629.583984375</ele>
        <time>2009-07-25T14:13:00Z</time>
      </trkpt>
      <trkpt lat="45.1492" lon="5.39343">
        <ele>632.24597167969</ele>
        <time>2009-07-25T14:13:14Z</time>
      </trkpt>
      <trkpt lat="45.14917" lon="5.39371">
        <ele>635.17401123047</ele>
        <time>2009-07-25T14:13:24Z</time>
      </trkpt>
      <trkpt lat="45.14919" lon="5.39376">
        <ele>635.23699951172</ele>
        <time>2009-07-25T14:13:26Z</time>
      </trkpt>
      <trkpt lat="45.14933" lon="5.39395">
        <ele>636.34698486328</ele>
        <time>2009-07-25T14:13:34Z</time>
      </trkpt>
      <trkpt lat="45.1497" lon="5.39414">
        <ele>639.74499511719</ele>
        <time>2009-07-25T14:13:50Z</time>
      </trkpt>
      <trkpt lat="45.14994" lon="5.39433">
        <ele>642.35699462891</ele>
        <time>2009-07-25T14:14:02Z</time>
      </trkpt>
      <trkpt lat="45.15016" lon="5.39464">
        <ele>645.67401123047</ele>
        <time>2009-07-25T14:14:16Z</time>
      </trkpt>
      <trkpt lat="45.15048" lon="5.39489">
        <ele>648.74597167969</ele>
        <time>2009-07-25T14:14:32Z</time>
      </trkpt>
      <trkpt lat="45.1509" lon="5.39488">
        <ele>652.30798339844</ele>
        <time>2009-07-25T14:14:50Z</time>
      </trkpt>
      <trkpt lat="45.15123" lon="5.39516">
        <ele>655.69500732422</ele>
        <time>2009-07-25T14:15:06Z</time>
      </trkpt>
      <trkpt lat="45.15142" lon="5.39561">
        <ele>659.10101318359</ele>
        <time>2009-07-25T14:15:21Z</time>
      </trkpt>
      <trkpt lat="45.15158" lon="5.39603">
        <ele>661.62799072266</ele>
        <time>2009-07-25T14:15:36Z</time>
      </trkpt>
      <trkpt lat="45.15194" lon="5.39618">
        <ele>664.85400390625</ele>
        <time>2009-07-25T14:15:51Z</time>
      </trkpt>
      <trkpt lat="45.15227" lon="5.39632">
        <ele>668.04302978516</ele>
        <time>2009-07-25T14:16:05Z</time>
      </trkpt>
      <trkpt lat="45.15268" lon="5.3965">
        <ele>671.94299316406</ele>
        <time>2009-07-25T14:16:22Z</time>
      </trkpt>
      <trkpt lat="45.15295" lon="5.39666">
        <ele>675.125</ele>
        <time>2009-07-25T14:16:34Z</time>
      </trkpt>
      <trkpt lat="45.15337" lon="5.39676">
        <ele>678.59301757812</ele>
        <time>2009-07-25T14:16:50Z</time>
      </trkpt>
      <trkpt lat="45.15372" lon="5.39663">
        <ele>681.21600341797</ele>
        <time>2009-07-25T14:17:02Z</time>
      </trkpt>
      <trkpt lat="45.15367" lon="5.39685">
        <ele>682.45098876953</ele>
        <time>2009-07-25T14:17:10Z</time>
      </trkpt>
      <trkpt lat="45.15361" lon="5.39688">
        <ele>682.63598632812</ele>
        <time>2009-07-25T14:17:12Z</time>
      </trkpt>
      <trkpt lat="45.15303" lon="5.39714">
        <ele>686.64898681641</ele>
        <time>2009-07-25T14:17:29Z</time>
      </trkpt>
      <trkpt lat="45.15229" lon="5.39724">
        <ele>692.6669921875</ele>
        <time>2009-07-25T14:17:51Z</time>
      </trkpt>
      <trkpt lat="45.15173" lon="5.39727">
        <ele>697.25701904297</ele>
        <time>2009-07-25T14:18:10Z</time>
      </trkpt>
      <trkpt lat="45.15121" lon="5.39717">
        <ele>701.61999511719</ele>
        <time>2009-07-25T14:18:29Z</time>
      </trkpt>
      <trkpt lat="45.15076" lon="5.397">
        <ele>705.58099365234</ele>
        <time>2009-07-25T14:18:47Z</time>
      </trkpt>
      <trkpt lat="45.15029" lon="5.39679">
        <ele>710.15502929688</ele>
        <time>2009-07-25T14:19:06Z</time>
      </trkpt>
      <trkpt lat="45.14987" lon="5.39656">
        <ele>713.91998291016</ele>
        <time>2009-07-25T14:19:23Z</time>
      </trkpt>
      <trkpt lat="45.14943" lon="5.39631">
        <ele>718.13098144531</ele>
        <time>2009-07-25T14:19:39Z</time>
      </trkpt>
      <trkpt lat="45.14891" lon="5.39607">
        <ele>722.97698974609</ele>
        <time>2009-07-25T14:19:58Z</time>
      </trkpt>
      <trkpt lat="45.14856" lon="5.39597">
        <ele>726.05499267578</ele>
        <time>2009-07-25T14:20:11Z</time>
      </trkpt>
      <trkpt lat="45.14811" lon="5.39579">
        <ele>730.39801025391</ele>
        <time>2009-07-25T14:20:28Z</time>
      </trkpt>
      <trkpt lat="45.14748" lon="5.3955">
        <ele>736.03601074219</ele>
        <time>2009-07-25T14:20:50Z</time>
      </trkpt>
      <trkpt lat="45.14699" lon="5.39531">
        <ele>740.61499023438</ele>
        <time>2009-07-25T14:21:08Z</time>
      </trkpt>
      <trkpt lat="45.14658" lon="5.39515">
        <ele>744.53497314453</ele>
        <time>2009-07-25T14:21:24Z</time>
      </trkpt>
      <trkpt lat="45.14606" lon="5.39499">
        <ele>748.96600341797</ele>
        <time>2009-07-25T14:21:42Z</time>
      </trkpt>
      <trkpt lat="45.14548" lon="5.39478">
        <ele>754.60400390625</ele>
        <time>2009-07-25T14:22:02Z</time>
      </trkpt>
      <trkpt lat="45.14505" lon="5.3947">
        <ele>758.36602783203</ele>
        <time>2009-07-25T14:22:18Z</time>
      </trkpt>
      <trkpt lat="45.14463" lon="5.3947">
        <ele>761.87298583984</ele>
        <time>2009-07-25T14:22:33Z</time>
      </trkpt>
      <trkpt lat="45.14418" lon="5.39473">
        <ele>765.89202880859</ele>
        <time>2009-07-25T14:22:49Z</time>
      </trkpt>
      <trkpt lat="45.14375" lon="5.39483">
        <ele>769.875</ele>
        <time>2009-07-25T14:23:05Z</time>
      </trkpt>
      <trkpt lat="45.14357" lon="5.39523">
        <ele>771.51000976562</ele>
        <time>2009-07-25T14:23:17Z</time>
      </trkpt>
      <trkpt lat="45.14355" lon="5.3955">
        <ele>771.25402832031</ele>
        <time>2009-07-25T14:23:22Z</time>
      </trkpt>
      <trkpt lat="45.14348" lon="5.39572">
        <ele>771.55401611328</ele>
        <time>2009-07-25T14:23:26Z</time>
      </trkpt>
      <trkpt lat="45.14325" lon="5.39628">
        <ele>772.55700683594</ele>
        <time>2009-07-25T14:23:39Z</time>
      </trkpt>
      <trkpt lat="45.1432" lon="5.39641">
        <ele>772.69396972656</ele>
        <time>2009-07-25T14:23:46Z</time>
      </trkpt>
      <trkpt lat="45.14336" lon="5.3964">
        <ele>775.14001464844</ele>
        <time>2009-07-25T14:29:22Z</time>
      </trkpt>
      <trkpt lat="45.14339" lon="5.39626">
        <ele>774.96899414062</ele>
        <time>2009-07-25T14:29:31Z</time>
      </trkpt>
      <trkpt lat="45.14339" lon="5.39625">
        <ele>774.96398925781</ele>
        <time>2009-07-25T14:29:32Z</time>
      </trkpt>
      <trkpt lat="45.14343" lon="5.39606">
        <ele>774.60101318359</ele>
        <time>2009-07-25T14:29:39Z</time>
      </trkpt>
      <trkpt lat="45.14346" lon="5.39597">
        <ele>774.38598632812</ele>
        <time>2009-07-25T14:29:42Z</time>
      </trkpt>
      <trkpt lat="45.14362" lon="5.39561">
        <ele>774.13702392578</ele>
        <time>2009-07-25T14:29:53Z</time>
      </trkpt>
      <trkpt lat="45.14367" lon="5.39503">
        <ele>773.63897705078</ele>
        <time>2009-07-25T14:30:09Z</time>
      </trkpt>
      <trkpt lat="45.14383" lon="5.39482">
        <ele>772.29797363281</ele>
        <time>2009-07-25T14:30:21Z</time>
      </trkpt>
      <trkpt lat="45.14402" lon="5.39477">
        <ele>770.3740234375</ele>
        <time>2009-07-25T14:30:32Z</time>
      </trkpt>
      <trkpt lat="45.14416" lon="5.39476">
        <ele>769.39599609375</ele>
        <time>2009-07-25T14:30:41Z</time>
      </trkpt>
      <trkpt lat="45.14412" lon="5.39476">
        <ele>770.18597412109</ele>
        <time>2009-07-25T14:30:50Z</time>
      </trkpt>
      <trkpt lat="45.1441" lon="5.39477">
        <ele>770.25402832031</ele>
        <time>2009-07-25T14:30:52Z</time>
      </trkpt>
      <trkpt lat="45.14401" lon="5.39477">
        <ele>770.97802734375</ele>
        <time>2009-07-25T14:31:00Z</time>
      </trkpt>
      <trkpt lat="45.14399" lon="5.39478">
        <ele>771.36401367188</ele>
        <time>2009-07-25T14:31:03Z</time>
      </trkpt>
      <trkpt lat="45.14394" lon="5.39478">
        <ele>771.64001464844</ele>
        <time>2009-07-25T14:31:08Z</time>
      </trkpt>
      <trkpt lat="45.14392" lon="5.3948">
        <ele>771.68298339844</ele>
        <time>2009-07-25T14:31:11Z</time>
      </trkpt>
      <trkpt lat="45.14398" lon="5.39479">
        <ele>770.85498046875</ele>
        <time>2009-07-25T14:31:18Z</time>
      </trkpt>
      <trkpt lat="45.14401" lon="5.39479">
        <ele>770.18499755859</ele>
        <time>2009-07-25T14:31:49Z</time>
      </trkpt>
      <trkpt lat="45.144" lon="5.39476">
        <ele>770.80902099609</ele>
        <time>2009-07-25T14:31:55Z</time>
      </trkpt>
      <trkpt lat="45.14399" lon="5.39476">
        <ele>770.90399169922</ele>
        <time>2009-07-25T14:31:58Z</time>
      </trkpt>
      <trkpt lat="45.14414" lon="5.39479">
        <ele>771.09698486328</ele>
        <time>2009-07-25T14:38:12Z</time>
      </trkpt>
      <trkpt lat="45.14422" lon="5.39477">
        <ele>770.51397705078</ele>
        <time>2009-07-25T14:38:14Z</time>
      </trkpt>
      <trkpt lat="45.14441" lon="5.39477">
        <ele>768.60400390625</ele>
        <time>2009-07-25T14:38:18Z</time>
      </trkpt>
      <trkpt lat="45.1447" lon="5.39478">
        <ele>766.28900146484</ele>
        <time>2009-07-25T14:38:26Z</time>
      </trkpt>
      <trkpt lat="45.14483" lon="5.39478">
        <ele>765.05700683594</ele>
        <time>2009-07-25T14:38:29Z</time>
      </trkpt>
      <trkpt lat="45.14555" lon="5.39487">
        <ele>757.94799804688</ele>
        <time>2009-07-25T14:38:40Z</time>
      </trkpt>
      <trkpt lat="45.14615" lon="5.39509">
        <ele>752.93200683594</ele>
        <time>2009-07-25T14:38:50Z</time>
      </trkpt>
      <trkpt lat="45.14673" lon="5.39526">
        <ele>748.25799560547</ele>
        <time>2009-07-25T14:38:58Z</time>
      </trkpt>
      <trkpt lat="45.14752" lon="5.39557">
        <ele>740.23498535156</ele>
        <time>2009-07-25T14:39:07Z</time>
      </trkpt>
      <trkpt lat="45.1486" lon="5.39602">
        <ele>730.14398193359</ele>
        <time>2009-07-25T14:39:17Z</time>
      </trkpt>
      <trkpt lat="45.14918" lon="5.39621">
        <ele>726.68402099609</ele>
        <time>2009-07-25T14:39:23Z</time>
      </trkpt>
      <trkpt lat="45.14943" lon="5.39634">
        <ele>724.7080078125</ele>
        <time>2009-07-25T14:39:29Z</time>
      </trkpt>
      <trkpt lat="45.14945" lon="5.39635">
        <ele>724.36700439453</ele>
        <time>2009-07-25T14:39:33Z</time>
      </trkpt>
      <trkpt lat="45.14942" lon="5.39627">
        <ele>724.44097900391</ele>
        <time>2009-07-25T14:39:41Z</time>
      </trkpt>
      <trkpt lat="45.14922" lon="5.39617">
        <ele>725.93499755859</ele>
        <time>2009-07-25T14:39:53Z</time>
      </trkpt>
      <trkpt lat="45.14905" lon="5.39612">
        <ele>727.71502685547</ele>
        <time>2009-07-25T14:40:00Z</time>
      </trkpt>
      <trkpt lat="45.14891" lon="5.39608">
        <ele>728.98797607422</ele>
        <time>2009-07-25T14:40:07Z</time>
      </trkpt>
      <trkpt lat="45.14867" lon="5.39602">
        <ele>731.07800292969</ele>
        <time>2009-07-25T14:40:20Z</time>
      </trkpt>
      <trkpt lat="45.14849" lon="5.39595">
        <ele>732.70202636719</ele>
        <time>2009-07-25T14:40:30Z</time>
      </trkpt>
      <trkpt lat="45.14823" lon="5.39584">
        <ele>735.25500488281</ele>
        <time>2009-07-25T14:40:45Z</time>
      </trkpt>
      <trkpt lat="45.1479" lon="5.3957">
        <ele>738.30700683594</ele>
        <time>2009-07-25T14:41:03Z</time>
      </trkpt>
      <trkpt lat="45.14763" lon="5.39556">
        <ele>740.32000732422</ele>
        <time>2009-07-25T14:41:18Z</time>
      </trkpt>
      <trkpt lat="45.1474" lon="5.39545">
        <ele>742.49401855469</ele>
        <time>2009-07-25T14:41:31Z</time>
      </trkpt>
      <trkpt lat="45.14731" lon="5.39542">
        <ele>743.63598632812</ele>
        <time>2009-07-25T14:41:37Z</time>
      </trkpt>
      <trkpt lat="45.14729" lon="5.39542">
        <ele>743.63098144531</ele>
        <time>2009-07-25T14:41:38Z</time>
      </trkpt>
      <trkpt lat="45.14708" lon="5.39533">
        <ele>745.42401123047</ele>
        <time>2009-07-25T14:41:51Z</time>
      </trkpt>
      <trkpt lat="45.14684" lon="5.39523">
        <ele>747.69201660156</ele>
        <time>2009-07-25T14:42:05Z</time>
      </trkpt>
      <trkpt lat="45.14661" lon="5.39517">
        <ele>749.74499511719</ele>
        <time>2009-07-25T14:42:20Z</time>
      </trkpt>
      <trkpt lat="45.14637" lon="5.39511">
        <ele>752.04901123047</ele>
        <time>2009-07-25T14:42:35Z</time>
      </trkpt>
      <trkpt lat="45.14613" lon="5.39503">
        <ele>754.20599365234</ele>
        <time>2009-07-25T14:42:49Z</time>
      </trkpt>
      <trkpt lat="45.14603" lon="5.39498">
        <ele>755.10302734375</ele>
        <time>2009-07-25T14:42:55Z</time>
      </trkpt>
      <trkpt lat="45.14571" lon="5.39485">
        <ele>758.22802734375</ele>
        <time>2009-07-25T14:43:12Z</time>
      </trkpt>
      <trkpt lat="45.14544" lon="5.39477">
        <ele>760.24298095703</ele>
        <time>2009-07-25T14:43:28Z</time>
      </trkpt>
      <trkpt lat="45.14537" lon="5.39475">
        <ele>761.04797363281</ele>
        <time>2009-07-25T14:43:32Z</time>
      </trkpt>
      <trkpt lat="45.14511" lon="5.39471">
        <ele>763.33197021484</ele>
        <time>2009-07-25T14:43:46Z</time>
      </trkpt>
      <trkpt lat="45.14486" lon="5.39471">
        <ele>766.08898925781</ele>
        <time>2009-07-25T14:44:01Z</time>
      </trkpt>
      <trkpt lat="45.14462" lon="5.39472">
        <ele>767.85998535156</ele>
        <time>2009-07-25T14:44:15Z</time>
      </trkpt>
      <trkpt lat="45.14434" lon="5.39472">
        <ele>770.46801757812</ele>
        <time>2009-07-25T14:44:29Z</time>
      </trkpt>
      <trkpt lat="45.14402" lon="5.39478">
        <ele>773.35699462891</ele>
        <time>2009-07-25T14:44:47Z</time>
      </trkpt>
      <trkpt lat="45.144" lon="5.39478">
        <ele>773.49499511719</ele>
        <time>2009-07-25T14:44:48Z</time>
      </trkpt>
      <trkpt lat="45.14378" lon="5.39484">
        <ele>775.1669921875</ele>
        <time>2009-07-25T14:45:03Z</time>
      </trkpt>
      <trkpt lat="45.14359" lon="5.39511">
        <ele>776.833984375</ele>
        <time>2009-07-25T14:45:21Z</time>
      </trkpt>
      <trkpt lat="45.14359" lon="5.39519">
        <ele>776.96301269531</ele>
        <time>2009-07-25T14:45:27Z</time>
      </trkpt>
      <trkpt lat="45.14358" lon="5.39529">
        <ele>776.85797119141</ele>
        <time>2009-07-25T14:45:35Z</time>
      </trkpt>
      <trkpt lat="45.14357" lon="5.39541">
        <ele>776.64001464844</ele>
        <time>2009-07-25T14:45:41Z</time>
      </trkpt>
      <trkpt lat="45.14356" lon="5.39549">
        <ele>777.38201904297</ele>
        <time>2009-07-25T14:45:44Z</time>
      </trkpt>
      <trkpt lat="45.14347" lon="5.39572">
        <ele>776.81701660156</ele>
        <time>2009-07-25T14:45:54Z</time>
      </trkpt>
      <trkpt lat="45.14327" lon="5.39621">
        <ele>777.32397460938</ele>
        <time>2009-07-25T14:46:07Z</time>
      </trkpt>
      <trkpt lat="45.14323" lon="5.39654">
        <ele>777.125</ele>
        <time>2009-07-25T14:46:13Z</time>
      </trkpt>
      <trkpt lat="45.14351" lon="5.3973">
        <ele>777.47601318359</ele>
        <time>2009-07-25T14:46:29Z</time>
      </trkpt>
      <trkpt lat="45.1439" lon="5.39774">
        <ele>777.72900390625</ele>
        <time>2009-07-25T14:46:43Z</time>
      </trkpt>
      <trkpt lat="45.14445" lon="5.39828">
        <ele>779.45098876953</ele>
        <time>2009-07-25T14:47:02Z</time>
      </trkpt>
      <trkpt lat="45.14489" lon="5.39871">
        <ele>779.40502929688</ele>
        <time>2009-07-25T14:47:17Z</time>
      </trkpt>
      <trkpt lat="45.14551" lon="5.39917">
        <ele>780.76800537109</ele>
        <time>2009-07-25T14:47:35Z</time>
      </trkpt>
      <trkpt lat="45.14606" lon="5.39949">
        <ele>781.44598388672</ele>
        <time>2009-07-25T14:47:50Z</time>
      </trkpt>
      <trkpt lat="45.14627" lon="5.39982">
        <ele>781.13397216797</ele>
        <time>2009-07-25T14:47:57Z</time>
      </trkpt>
      <trkpt lat="45.14628" lon="5.4008">
        <ele>779.02001953125</ele>
        <time>2009-07-25T14:48:10Z</time>
      </trkpt>
      <trkpt lat="45.14606" lon="5.40172">
        <ele>781.80499267578</ele>
        <time>2009-07-25T14:48:25Z</time>
      </trkpt>
      <trkpt lat="45.14587" lon="5.40208">
        <ele>785.45501708984</ele>
        <time>2009-07-25T14:48:36Z</time>
      </trkpt>
      <trkpt lat="45.14582" lon="5.40213">
        <ele>786.09997558594</ele>
        <time>2009-07-25T14:48:38Z</time>
      </trkpt>
      <trkpt lat="45.14574" lon="5.40221">
        <ele>787.81799316406</ele>
        <time>2009-07-25T14:48:43Z</time>
      </trkpt>
      <trkpt lat="45.14565" lon="5.40225">
        <ele>789.43499755859</ele>
        <time>2009-07-25T14:48:47Z</time>
      </trkpt>
      <trkpt lat="45.14557" lon="5.40232">
        <ele>790.53100585938</ele>
        <time>2009-07-25T14:48:51Z</time>
      </trkpt>
      <trkpt lat="45.14548" lon="5.4025">
        <ele>792.45599365234</ele>
        <time>2009-07-25T14:48:58Z</time>
      </trkpt>
      <trkpt lat="45.14544" lon="5.40259">
        <ele>793.76599121094</ele>
        <time>2009-07-25T14:49:01Z</time>
      </trkpt>
      <trkpt lat="45.14534" lon="5.40283">
        <ele>796.46600341797</ele>
        <time>2009-07-25T14:49:09Z</time>
      </trkpt>
      <trkpt lat="45.14515" lon="5.40324">
        <ele>799.84002685547</ele>
        <time>2009-07-25T14:49:23Z</time>
      </trkpt>
      <trkpt lat="45.145" lon="5.40367">
        <ele>801.67199707031</ele>
        <time>2009-07-25T14:49:36Z</time>
      </trkpt>
      <trkpt lat="45.14507" lon="5.40407">
        <ele>803.47100830078</ele>
        <time>2009-07-25T14:49:49Z</time>
      </trkpt>
      <trkpt lat="45.14533" lon="5.40418">
        <ele>806.81896972656</ele>
        <time>2009-07-25T14:50:01Z</time>
      </trkpt>
      <trkpt lat="45.1457" lon="5.40431">
        <ele>806.63897705078</ele>
        <time>2009-07-25T14:50:13Z</time>
      </trkpt>
      <trkpt lat="45.14595" lon="5.40456">
        <ele>808.31500244141</ele>
        <time>2009-07-25T14:50:22Z</time>
      </trkpt>
      <trkpt lat="45.14611" lon="5.40476">
        <ele>808.64202880859</ele>
        <time>2009-07-25T14:50:28Z</time>
      </trkpt>
      <trkpt lat="45.14626" lon="5.40497">
        <ele>807.29400634766</ele>
        <time>2009-07-25T14:50:34Z</time>
      </trkpt>
      <trkpt lat="45.14632" lon="5.40507">
        <ele>806.51702880859</ele>
        <time>2009-07-25T14:50:36Z</time>
      </trkpt>
      <trkpt lat="45.1464" lon="5.40523">
        <ele>804.69000244141</ele>
        <time>2009-07-25T14:50:39Z</time>
      </trkpt>
      <trkpt lat="45.14655" lon="5.40554">
        <ele>800.97497558594</ele>
        <time>2009-07-25T14:50:43Z</time>
      </trkpt>
      <trkpt lat="45.14674" lon="5.40583">
        <ele>801.29699707031</ele>
        <time>2009-07-25T14:50:46Z</time>
      </trkpt>
      <trkpt lat="45.147" lon="5.40611">
        <ele>803.94097900391</ele>
        <time>2009-07-25T14:50:51Z</time>
      </trkpt>
      <trkpt lat="45.14722" lon="5.40643">
        <ele>805.98797607422</ele>
        <time>2009-07-25T14:51:01Z</time>
      </trkpt>
      <trkpt lat="45.14726" lon="5.40651">
        <ele>806.2919921875</ele>
        <time>2009-07-25T14:51:03Z</time>
      </trkpt>
      <trkpt lat="45.14729" lon="5.40655">
        <ele>806.15899658203</ele>
        <time>2009-07-25T14:51:04Z</time>
      </trkpt>
      <trkpt lat="45.1473" lon="5.40708">
        <ele>806.01702880859</ele>
        <time>2009-07-25T14:51:14Z</time>
      </trkpt>
      <trkpt lat="45.14731" lon="5.40744">
        <ele>807.59497070312</ele>
        <time>2009-07-25T14:51:21Z</time>
      </trkpt>
      <trkpt lat="45.14753" lon="5.40792">
        <ele>809.51202392578</ele>
        <time>2009-07-25T14:51:34Z</time>
      </trkpt>
      <trkpt lat="45.14791" lon="5.40786">
        <ele>811.19000244141</ele>
        <time>2009-07-25T14:51:45Z</time>
      </trkpt>
      <trkpt lat="45.14813" lon="5.40797">
        <ele>814.25299072266</ele>
        <time>2009-07-25T14:51:53Z</time>
      </trkpt>
      <trkpt lat="45.14815" lon="5.408">
        <ele>814.52600097656</ele>
        <time>2009-07-25T14:51:54Z</time>
      </trkpt>
      <trkpt lat="45.14822" lon="5.40801">
        <ele>814.52502441406</ele>
        <time>2009-07-25T14:51:59Z</time>
      </trkpt>
      <trkpt lat="45.14826" lon="5.40803">
        <ele>815.21398925781</ele>
        <time>2009-07-25T14:52:05Z</time>
      </trkpt>
      <trkpt lat="45.14832" lon="5.40805">
        <ele>813.73699951172</ele>
        <time>2009-07-25T14:52:13Z</time>
      </trkpt>
      <trkpt lat="45.14853" lon="5.40822">
        <ele>813.89202880859</ele>
        <time>2009-07-25T14:52:23Z</time>
      </trkpt>
      <trkpt lat="45.14855" lon="5.4082">
        <ele>814.07897949219</ele>
        <time>2009-07-25T14:52:28Z</time>
      </trkpt>
      <trkpt lat="45.14854" lon="5.40819">
        <ele>814.06597900391</ele>
        <time>2009-07-25T14:52:29Z</time>
      </trkpt>
      <trkpt lat="45.14843" lon="5.40812">
        <ele>814.166015625</ele>
        <time>2009-07-25T14:52:36Z</time>
      </trkpt>
      <trkpt lat="45.14822" lon="5.40798">
        <ele>814.47698974609</ele>
        <time>2009-07-25T14:52:46Z</time>
      </trkpt>
      <trkpt lat="45.14822" lon="5.40802">
        <ele>814.84197998047</ele>
        <time>2009-07-25T14:52:50Z</time>
      </trkpt>
      <trkpt lat="45.14853" lon="5.40823">
        <ele>813.67401123047</ele>
        <time>2009-07-25T14:53:01Z</time>
      </trkpt>
      <trkpt lat="45.14869" lon="5.40865">
        <ele>816.23400878906</ele>
        <time>2009-07-25T14:53:12Z</time>
      </trkpt>
      <trkpt lat="45.14875" lon="5.40905">
        <ele>817.97100830078</ele>
        <time>2009-07-25T14:53:22Z</time>
      </trkpt>
      <trkpt lat="45.1487" lon="5.40939">
        <ele>818.20202636719</ele>
        <time>2009-07-25T14:53:33Z</time>
      </trkpt>
      <trkpt lat="45.14869" lon="5.40953">
        <ele>817.44097900391</ele>
        <time>2009-07-25T14:53:36Z</time>
      </trkpt>
      <trkpt lat="45.14864" lon="5.41012">
        <ele>814.49200439453</ele>
        <time>2009-07-25T14:53:44Z</time>
      </trkpt>
      <trkpt lat="45.14862" lon="5.41043">
        <ele>812.1669921875</ele>
        <time>2009-07-25T14:53:47Z</time>
      </trkpt>
      <trkpt lat="45.14861" lon="5.41054">
        <ele>812.14202880859</ele>
        <time>2009-07-25T14:53:48Z</time>
      </trkpt>
      <trkpt lat="45.1486" lon="5.41101">
        <ele>811.583984375</ele>
        <time>2009-07-25T14:53:53Z</time>
      </trkpt>
      <trkpt lat="45.14903" lon="5.41127">
        <ele>804.05499267578</ele>
        <time>2009-07-25T14:54:01Z</time>
      </trkpt>
      <trkpt lat="45.14949" lon="5.41116">
        <ele>801.23699951172</ele>
        <time>2009-07-25T14:54:05Z</time>
      </trkpt>
      <trkpt lat="45.14994" lon="5.41087">
        <ele>797.46899414062</ele>
        <time>2009-07-25T14:54:10Z</time>
      </trkpt>
      <trkpt lat="45.15058" lon="5.41055">
        <ele>798.5830078125</ele>
        <time>2009-07-25T14:54:17Z</time>
      </trkpt>
      <trkpt lat="45.1507" lon="5.41049">
        <ele>800.38201904297</ele>
        <time>2009-07-25T14:54:19Z</time>
      </trkpt>
      <trkpt lat="45.15078" lon="5.41045">
        <ele>801.01501464844</ele>
        <time>2009-07-25T14:54:21Z</time>
      </trkpt>
      <trkpt lat="45.15095" lon="5.41025">
        <ele>796.40802001953</ele>
        <time>2009-07-25T14:54:31Z</time>
      </trkpt>
      <trkpt lat="45.15097" lon="5.41023">
        <ele>796.10400390625</ele>
        <time>2009-07-25T14:54:32Z</time>
      </trkpt>
      <trkpt lat="45.15116" lon="5.41018">
        <ele>793.09002685547</ele>
        <time>2009-07-25T14:54:41Z</time>
      </trkpt>
      <trkpt lat="45.15129" lon="5.41019">
        <ele>791.79699707031</ele>
        <time>2009-07-25T14:54:44Z</time>
      </trkpt>
      <trkpt lat="45.15154" lon="5.41026">
        <ele>788.73797607422</ele>
        <time>2009-07-25T14:54:48Z</time>
      </trkpt>
      <trkpt lat="45.15176" lon="5.41037">
        <ele>786.12701416016</ele>
        <time>2009-07-25T14:54:51Z</time>
      </trkpt>
      <trkpt lat="45.15204" lon="5.41027">
        <ele>783.36401367188</ele>
        <time>2009-07-25T14:54:56Z</time>
      </trkpt>
      <trkpt lat="45.1521" lon="5.4101">
        <ele>783.35699462891</ele>
        <time>2009-07-25T14:54:58Z</time>
      </trkpt>
      <trkpt lat="45.15229" lon="5.41033">
        <ele>775.28601074219</ele>
        <time>2009-07-25T14:55:03Z</time>
      </trkpt>
      <trkpt lat="45.15235" lon="5.41055">
        <ele>774.28497314453</ele>
        <time>2009-07-25T14:55:05Z</time>
      </trkpt>
      <trkpt lat="45.15242" lon="5.41078">
        <ele>774.27697753906</ele>
        <time>2009-07-25T14:55:07Z</time>
      </trkpt>
      <trkpt lat="45.15254" lon="5.41127">
        <ele>769.01300048828</ele>
        <time>2009-07-25T14:55:11Z</time>
      </trkpt>
      <trkpt lat="45.15257" lon="5.41153">
        <ele>767.94396972656</ele>
        <time>2009-07-25T14:55:13Z</time>
      </trkpt>
      <trkpt lat="45.15289" lon="5.41201">
        <ele>765.19500732422</ele>
        <time>2009-07-25T14:55:19Z</time>
      </trkpt>
      <trkpt lat="45.15304" lon="5.41197">
        <ele>763.8740234375</ele>
        <time>2009-07-25T14:55:21Z</time>
      </trkpt>
      <trkpt lat="45.15405" lon="5.41195">
        <ele>752.12200927734</ele>
        <time>2009-07-25T14:55:30Z</time>
      </trkpt>
      <trkpt lat="45.15514" lon="5.41165">
        <ele>744.95697021484</ele>
        <time>2009-07-25T14:55:40Z</time>
      </trkpt>
      <trkpt lat="45.15554" lon="5.41153">
        <ele>743.44598388672</ele>
        <time>2009-07-25T14:55:45Z</time>
      </trkpt>
      <trkpt lat="45.15574" lon="5.4116">
        <ele>740.45697021484</ele>
        <time>2009-07-25T14:55:52Z</time>
      </trkpt>
      <trkpt lat="45.15576" lon="5.41186">
        <ele>737.42901611328</ele>
        <time>2009-07-25T14:55:55Z</time>
      </trkpt>
      <trkpt lat="45.15579" lon="5.41219">
        <ele>734.26300048828</ele>
        <time>2009-07-25T14:55:58Z</time>
      </trkpt>
      <trkpt lat="45.1561" lon="5.41233">
        <ele>730.06097412109</ele>
        <time>2009-07-25T14:56:02Z</time>
      </trkpt>
      <trkpt lat="45.15651" lon="5.41173">
        <ele>722.23400878906</ele>
        <time>2009-07-25T14:56:09Z</time>
      </trkpt>
      <trkpt lat="45.15659" lon="5.41154">
        <ele>719.01202392578</ele>
        <time>2009-07-25T14:56:11Z</time>
      </trkpt>
      <trkpt lat="45.15665" lon="5.41113">
        <ele>715.6259765625</ele>
        <time>2009-07-25T14:56:14Z</time>
      </trkpt>
      <trkpt lat="45.15665" lon="5.41076">
        <ele>713.03100585938</ele>
        <time>2009-07-25T14:56:17Z</time>
      </trkpt>
      <trkpt lat="45.15682" lon="5.41044">
        <ele>708.10699462891</ele>
        <time>2009-07-25T14:56:21Z</time>
      </trkpt>
      <trkpt lat="45.15739" lon="5.41046">
        <ele>699.43902587891</ele>
        <time>2009-07-25T14:56:27Z</time>
      </trkpt>
      <trkpt lat="45.15763" lon="5.41055">
        <ele>695.25701904297</ele>
        <time>2009-07-25T14:56:29Z</time>
      </trkpt>
      <trkpt lat="45.15775" lon="5.41061">
        <ele>694.34497070312</ele>
        <time>2009-07-25T14:56:30Z</time>
      </trkpt>
      <trkpt lat="45.15856" lon="5.41122">
        <ele>684.11401367188</ele>
        <time>2009-07-25T14:56:37Z</time>
      </trkpt>
      <trkpt lat="45.15872" lon="5.41138">
        <ele>682.59497070312</ele>
        <time>2009-07-25T14:56:39Z</time>
      </trkpt>
      <trkpt lat="45.15891" lon="5.4117">
        <ele>675.37200927734</ele>
        <time>2009-07-25T14:56:42Z</time>
      </trkpt>
      <trkpt lat="45.15939" lon="5.41197">
        <ele>669.75299072266</ele>
        <time>2009-07-25T14:56:47Z</time>
      </trkpt>
      <trkpt lat="45.15941" lon="5.41243">
        <ele>665.13000488281</ele>
        <time>2009-07-25T14:56:54Z</time>
      </trkpt>
      <trkpt lat="45.1593" lon="5.41314">
        <ele>660.46099853516</ele>
        <time>2009-07-25T14:57:00Z</time>
      </trkpt>
      <trkpt lat="45.15934" lon="5.41324">
        <ele>659.55700683594</ele>
        <time>2009-07-25T14:57:02Z</time>
      </trkpt>
      <trkpt lat="45.15943" lon="5.41321">
        <ele>658.83001708984</ele>
        <time>2009-07-25T14:57:04Z</time>
      </trkpt>
      <trkpt lat="45.15952" lon="5.41318">
        <ele>658.34002685547</ele>
        <time>2009-07-25T14:57:08Z</time>
      </trkpt>
      <trkpt lat="45.15952" lon="5.41316">
        <ele>658.30401611328</ele>
        <time>2009-07-25T14:57:15Z</time>
      </trkpt>
      <trkpt lat="45.15952" lon="5.41316">
        <ele>658.28399658203</ele>
        <time>2009-07-25T14:57:16Z</time>
      </trkpt>
      <trkpt lat="45.15945" lon="5.41321">
        <ele>658.58801269531</ele>
        <time>2009-07-25T14:57:22Z</time>
      </trkpt>
      <trkpt lat="45.15944" lon="5.41323">
        <ele>658.61901855469</ele>
        <time>2009-07-25T14:57:23Z</time>
      </trkpt>
      <trkpt lat="45.15943" lon="5.41325">
        <ele>658.85302734375</ele>
        <time>2009-07-25T14:57:24Z</time>
      </trkpt>
      <trkpt lat="45.15937" lon="5.41336">
        <ele>659.49200439453</ele>
        <time>2009-07-25T14:57:31Z</time>
      </trkpt>
      <trkpt lat="45.15939" lon="5.41337">
        <ele>659.35198974609</ele>
        <time>2009-07-25T14:57:57Z</time>
      </trkpt>
      <trkpt lat="45.15939" lon="5.41337">
        <ele>659.08099365234</ele>
        <time>2009-07-25T14:58:01Z</time>
      </trkpt>
      <trkpt lat="45.15948" lon="5.41319">
        <ele>657.94201660156</ele>
        <time>2009-07-25T14:58:07Z</time>
      </trkpt>
      <trkpt lat="45.15973" lon="5.41308">
        <ele>655.37200927734</ele>
        <time>2009-07-25T14:58:12Z</time>
      </trkpt>
      <trkpt lat="45.15979" lon="5.41313">
        <ele>654.65899658203</ele>
        <time>2009-07-25T14:58:13Z</time>
      </trkpt>
      <trkpt lat="45.16003" lon="5.41344">
        <ele>651.80499267578</ele>
        <time>2009-07-25T14:58:17Z</time>
      </trkpt>
      <trkpt lat="45.16018" lon="5.41366">
        <ele>649.833984375</ele>
        <time>2009-07-25T14:58:20Z</time>
      </trkpt>
      <trkpt lat="45.16046" lon="5.41393">
        <ele>645.62902832031</ele>
        <time>2009-07-25T14:58:25Z</time>
      </trkpt>
      <trkpt lat="45.16063" lon="5.41418">
        <ele>643.21197509766</ele>
        <time>2009-07-25T14:58:30Z</time>
      </trkpt>
      <trkpt lat="45.16069" lon="5.4141">
        <ele>641.74798583984</ele>
        <time>2009-07-25T14:58:35Z</time>
      </trkpt>
      <trkpt lat="45.16056" lon="5.41383">
        <ele>638.88397216797</ele>
        <time>2009-07-25T14:58:40Z</time>
      </trkpt>
      <trkpt lat="45.16041" lon="5.41353">
        <ele>635.53802490234</ele>
        <time>2009-07-25T14:58:44Z</time>
      </trkpt>
      <trkpt lat="45.1603" lon="5.41316">
        <ele>631.84002685547</ele>
        <time>2009-07-25T14:58:48Z</time>
      </trkpt>
      <trkpt lat="45.16012" lon="5.41217">
        <ele>625.36700439453</ele>
        <time>2009-07-25T14:58:56Z</time>
      </trkpt>
      <trkpt lat="45.16008" lon="5.41182">
        <ele>622.69897460938</ele>
        <time>2009-07-25T14:59:02Z</time>
      </trkpt>
      <trkpt lat="45.16022" lon="5.41209">
        <ele>619.2509765625</ele>
        <time>2009-07-25T14:59:06Z</time>
      </trkpt>
      <trkpt lat="45.16032" lon="5.41227">
        <ele>617.46099853516</ele>
        <time>2009-07-25T14:59:08Z</time>
      </trkpt>
      <trkpt lat="45.16049" lon="5.4127">
        <ele>611.59997558594</ele>
        <time>2009-07-25T14:59:12Z</time>
      </trkpt>
      <trkpt lat="45.16081" lon="5.41323">
        <ele>605.76000976562</ele>
        <time>2009-07-25T14:59:18Z</time>
      </trkpt>
      <trkpt lat="45.1613" lon="5.41362">
        <ele>595.72399902344</ele>
        <time>2009-07-25T14:59:24Z</time>
      </trkpt>
      <trkpt lat="45.16153" lon="5.41378">
        <ele>592.53198242188</ele>
        <time>2009-07-25T14:59:27Z</time>
      </trkpt>
      <trkpt lat="45.16186" lon="5.41408">
        <ele>586.99499511719</ele>
        <time>2009-07-25T14:59:31Z</time>
      </trkpt>
      <trkpt lat="45.16212" lon="5.41431">
        <ele>581.25701904297</ele>
        <time>2009-07-25T14:59:34Z</time>
      </trkpt>
      <trkpt lat="45.1625" lon="5.41441">
        <ele>576.81701660156</ele>
        <time>2009-07-25T14:59:38Z</time>
      </trkpt>
      <trkpt lat="45.16309" lon="5.41479">
        <ele>566.97100830078</ele>
        <time>2009-07-25T14:59:46Z</time>
      </trkpt>
      <trkpt lat="45.16323" lon="5.41513">
        <ele>564.21197509766</ele>
        <time>2009-07-25T14:59:49Z</time>
      </trkpt>
      <trkpt lat="45.16326" lon="5.41523">
        <ele>562.7509765625</ele>
        <time>2009-07-25T14:59:50Z</time>
      </trkpt>
      <trkpt lat="45.16336" lon="5.41606">
        <ele>555.55297851562</ele>
        <time>2009-07-25T14:59:56Z</time>
      </trkpt>
      <trkpt lat="45.16377" lon="5.41617">
        <ele>547.93798828125</ele>
        <time>2009-07-25T15:00:01Z</time>
      </trkpt>
      <trkpt lat="45.16436" lon="5.41612">
        <ele>540.86401367188</ele>
        <time>2009-07-25T15:00:06Z</time>
      </trkpt>
      <trkpt lat="45.16467" lon="5.41627">
        <ele>535.61499023438</ele>
        <time>2009-07-25T15:00:10Z</time>
      </trkpt>
      <trkpt lat="45.16486" lon="5.41641">
        <ele>533.19201660156</ele>
        <time>2009-07-25T15:00:12Z</time>
      </trkpt>
      <trkpt lat="45.16543" lon="5.41708">
        <ele>523.23602294922</ele>
        <time>2009-07-25T15:00:20Z</time>
      </trkpt>
      <trkpt lat="45.16558" lon="5.41732">
        <ele>521.07598876953</ele>
        <time>2009-07-25T15:00:22Z</time>
      </trkpt>
      <trkpt lat="45.16568" lon="5.41752">
        <ele>519.36700439453</ele>
        <time>2009-07-25T15:00:24Z</time>
      </trkpt>
      <trkpt lat="45.16584" lon="5.41756">
        <ele>518.88201904297</ele>
        <time>2009-07-25T15:00:30Z</time>
      </trkpt>
      <trkpt lat="45.16572" lon="5.41723">
        <ele>515.03002929688</ele>
        <time>2009-07-25T15:00:40Z</time>
      </trkpt>
      <trkpt lat="45.1657" lon="5.41715">
        <ele>514.29901123047</ele>
        <time>2009-07-25T15:00:41Z</time>
      </trkpt>
      <trkpt lat="45.16566" lon="5.41669">
        <ele>509.45098876953</ele>
        <time>2009-07-25T15:00:45Z</time>
      </trkpt>
      <trkpt lat="45.16552" lon="5.41604">
        <ele>504.94299316406</ele>
        <time>2009-07-25T15:00:49Z</time>
      </trkpt>
      <trkpt lat="45.16519" lon="5.4156">
        <ele>499.26599121094</ele>
        <time>2009-07-25T15:00:53Z</time>
      </trkpt>
      <trkpt lat="45.16503" lon="5.41539">
        <ele>497.54598999023</ele>
        <time>2009-07-25T15:00:55Z</time>
      </trkpt>
      <trkpt lat="45.16442" lon="5.41495">
        <ele>491.08898925781</ele>
        <time>2009-07-25T15:01:02Z</time>
      </trkpt>
      <trkpt lat="45.16441" lon="5.41437">
        <ele>483.11700439453</ele>
        <time>2009-07-25T15:01:08Z</time>
      </trkpt>
      <trkpt lat="45.16463" lon="5.41325">
        <ele>468.99798583984</ele>
        <time>2009-07-25T15:01:16Z</time>
      </trkpt>
      <trkpt lat="45.16481" lon="5.41262">
        <ele>463.54800415039</ele>
        <time>2009-07-25T15:01:21Z</time>
      </trkpt>
      <trkpt lat="45.16487" lon="5.41249">
        <ele>462.50500488281</ele>
        <time>2009-07-25T15:01:25Z</time>
      </trkpt>
      <trkpt lat="45.1649" lon="5.41258">
        <ele>461.70401000977</ele>
        <time>2009-07-25T15:01:27Z</time>
      </trkpt>
      <trkpt lat="45.16494" lon="5.4128">
        <ele>458.64999389648</ele>
        <time>2009-07-25T15:01:30Z</time>
      </trkpt>
      <trkpt lat="45.16512" lon="5.41384">
        <ele>450.10598754883</ele>
        <time>2009-07-25T15:01:38Z</time>
      </trkpt>
      <trkpt lat="45.16542" lon="5.41372">
        <ele>442.56500244141</ele>
        <time>2009-07-25T15:01:43Z</time>
      </trkpt>
      <trkpt lat="45.16594" lon="5.41403">
        <ele>432.90899658203</ele>
        <time>2009-07-25T15:01:49Z</time>
      </trkpt>
      <trkpt lat="45.16648" lon="5.41454">
        <ele>426.48199462891</ele>
        <time>2009-07-25T15:01:55Z</time>
      </trkpt>
      <trkpt lat="45.16658" lon="5.41446">
        <ele>424.68301391602</ele>
        <time>2009-07-25T15:02:00Z</time>
      </trkpt>
      <trkpt lat="45.16655" lon="5.41439">
        <ele>423.2919921875</ele>
        <time>2009-07-25T15:02:01Z</time>
      </trkpt>
      <trkpt lat="45.16624" lon="5.41355">
        <ele>411.93499755859</ele>
        <time>2009-07-25T15:02:08Z</time>
      </trkpt>
      <trkpt lat="45.16597" lon="5.41311">
        <ele>405.47500610352</ele>
        <time>2009-07-25T15:02:12Z</time>
      </trkpt>
      <trkpt lat="45.16582" lon="5.41288">
        <ele>402.68099975586</ele>
        <time>2009-07-25T15:02:15Z</time>
      </trkpt>
      <trkpt lat="45.16566" lon="5.4122">
        <ele>395.80801391602</ele>
        <time>2009-07-25T15:02:20Z</time>
      </trkpt>
      <trkpt lat="45.16563" lon="5.41189">
        <ele>394.75399780273</ele>
        <time>2009-07-25T15:02:22Z</time>
      </trkpt>
      <trkpt lat="45.1657" lon="5.41121">
        <ele>391.70199584961</ele>
        <time>2009-07-25T15:02:27Z</time>
      </trkpt>
      <trkpt lat="45.16556" lon="5.41067">
        <ele>387.46499633789</ele>
        <time>2009-07-25T15:02:31Z</time>
      </trkpt>
      <trkpt lat="45.16542" lon="5.41044">
        <ele>385.61700439453</ele>
        <time>2009-07-25T15:02:33Z</time>
      </trkpt>
      <trkpt lat="45.16516" lon="5.41011">
        <ele>381.63598632812</ele>
        <time>2009-07-25T15:02:37Z</time>
      </trkpt>
      <trkpt lat="45.16501" lon="5.4098">
        <ele>378.05099487305</ele>
        <time>2009-07-25T15:02:40Z</time>
      </trkpt>
      <trkpt lat="45.16489" lon="5.409">
        <ele>372.77801513672</ele>
        <time>2009-07-25T15:02:46Z</time>
      </trkpt>
      <trkpt lat="45.16478" lon="5.40871">
        <ele>370.44299316406</ele>
        <time>2009-07-25T15:02:48Z</time>
      </trkpt>
      <trkpt lat="45.16465" lon="5.40845">
        <ele>369.79299926758</ele>
        <time>2009-07-25T15:02:50Z</time>
      </trkpt>
      <trkpt lat="45.16446" lon="5.40819">
        <ele>371.51800537109</ele>
        <time>2009-07-25T15:02:54Z</time>
      </trkpt>
      <trkpt lat="45.16458" lon="5.4081">
        <ele>369.66299438477</ele>
        <time>2009-07-25T15:02:59Z</time>
      </trkpt>
      <trkpt lat="45.16462" lon="5.40816">
        <ele>368.89199829102</ele>
        <time>2009-07-25T15:03:00Z</time>
      </trkpt>
      <trkpt lat="45.16512" lon="5.40916">
        <ele>358.02700805664</ele>
        <time>2009-07-25T15:03:10Z</time>
      </trkpt>
      <trkpt lat="45.16527" lon="5.40957">
        <ele>356.1969909668</ele>
        <time>2009-07-25T15:03:13Z</time>
      </trkpt>
      <trkpt lat="45.16536" lon="5.40968">
        <ele>354.7619934082</ele>
        <time>2009-07-25T15:03:14Z</time>
      </trkpt>
      <trkpt lat="45.16579" lon="5.41023">
        <ele>348.46398925781</ele>
        <time>2009-07-25T15:03:19Z</time>
      </trkpt>
      <trkpt lat="45.16607" lon="5.41078">
        <ele>343.44900512695</ele>
        <time>2009-07-25T15:03:23Z</time>
      </trkpt>
      <trkpt lat="45.16624" lon="5.4113">
        <ele>339.15301513672</ele>
        <time>2009-07-25T15:03:27Z</time>
      </trkpt>
      <trkpt lat="45.16639" lon="5.41149">
        <ele>338.44299316406</ele>
        <time>2009-07-25T15:03:29Z</time>
      </trkpt>
      <trkpt lat="45.16663" lon="5.41161">
        <ele>337.94400024414</ele>
        <time>2009-07-25T15:03:33Z</time>
      </trkpt>
      <trkpt lat="45.1666" lon="5.41163">
        <ele>337.75799560547</ele>
        <time>2009-07-25T15:03:36Z</time>
      </trkpt>
      <trkpt lat="45.16667" lon="5.41155">
        <ele>337.49099731445</ele>
        <time>2009-07-25T15:04:05Z</time>
      </trkpt>
      <trkpt lat="45.1666" lon="5.41158">
        <ele>337.0950012207</ele>
        <time>2009-07-25T15:04:20Z</time>
      </trkpt>
      <trkpt lat="45.16659" lon="5.41158">
        <ele>337.30700683594</ele>
        <time>2009-07-25T15:04:22Z</time>
      </trkpt>
      <trkpt lat="45.16667" lon="5.41157">
        <ele>337.38500976562</ele>
        <time>2009-07-25T15:04:38Z</time>
      </trkpt>
      <trkpt lat="45.16646" lon="5.4113">
        <ele>334.26098632812</ele>
        <time>2009-07-25T15:04:58Z</time>
      </trkpt>
      <trkpt lat="45.16631" lon="5.41074">
        <ele>330.42599487305</ele>
        <time>2009-07-25T15:05:07Z</time>
      </trkpt>
      <trkpt lat="45.16628" lon="5.41065">
        <ele>329.74600219727</ele>
        <time>2009-07-25T15:05:12Z</time>
      </trkpt>
      <trkpt lat="45.16625" lon="5.41061">
        <ele>329.1789855957</ele>
        <time>2009-07-25T15:05:26Z</time>
      </trkpt>
      <trkpt lat="45.16625" lon="5.41061">
        <ele>328.94400024414</ele>
        <time>2009-07-25T15:05:27Z</time>
      </trkpt>
      <trkpt lat="45.16627" lon="5.41048">
        <ele>327.34698486328</ele>
        <time>2009-07-25T15:09:01Z</time>
      </trkpt>
      <trkpt lat="45.16625" lon="5.41035">
        <ele>325.75</ele>
        <time>2009-07-25T15:09:03Z</time>
      </trkpt>
      <trkpt lat="45.16615" lon="5.40987">
        <ele>321.6789855957</ele>
        <time>2009-07-25T15:09:08Z</time>
      </trkpt>
      <trkpt lat="45.16601" lon="5.40932">
        <ele>317.54000854492</ele>
        <time>2009-07-25T15:09:13Z</time>
      </trkpt>
      <trkpt lat="45.16577" lon="5.40864">
        <ele>311.49700927734</ele>
        <time>2009-07-25T15:09:20Z</time>
      </trkpt>
      <trkpt lat="45.16549" lon="5.40775">
        <ele>303.01000976562</ele>
        <time>2009-07-25T15:09:28Z</time>
      </trkpt>
      <trkpt lat="45.16552" lon="5.40764">
        <ele>301.76901245117</ele>
        <time>2009-07-25T15:09:29Z</time>
      </trkpt>
      <trkpt lat="45.16547" lon="5.40686">
        <ele>296.98300170898</ele>
        <time>2009-07-25T15:09:35Z</time>
      </trkpt>
      <trkpt lat="45.16548" lon="5.4067">
        <ele>296.19100952148</ele>
        <time>2009-07-25T15:09:37Z</time>
      </trkpt>
      <trkpt lat="45.16566" lon="5.40663">
        <ele>293.67401123047</ele>
        <time>2009-07-25T15:09:40Z</time>
      </trkpt>
      <trkpt lat="45.16613" lon="5.40639">
        <ele>288.57800292969</ele>
        <time>2009-07-25T15:09:46Z</time>
      </trkpt>
      <trkpt lat="45.16654" lon="5.40592">
        <ele>284.55700683594</ele>
        <time>2009-07-25T15:09:51Z</time>
      </trkpt>
      <trkpt lat="45.16661" lon="5.40585">
        <ele>284.26699829102</ele>
        <time>2009-07-25T15:09:52Z</time>
      </trkpt>
      <trkpt lat="45.16691" lon="5.4057">
        <ele>283.92599487305</ele>
        <time>2009-07-25T15:09:56Z</time>
      </trkpt>
      <trkpt lat="45.16713" lon="5.40566">
        <ele>284.03201293945</ele>
        <time>2009-07-25T15:09:59Z</time>
      </trkpt>
      <trkpt lat="45.16743" lon="5.40579">
        <ele>284.36999511719</ele>
        <time>2009-07-25T15:10:04Z</time>
      </trkpt>
      <trkpt lat="45.16763" lon="5.40597">
        <ele>283.8869934082</ele>
        <time>2009-07-25T15:10:08Z</time>
      </trkpt>
      <trkpt lat="45.1678" lon="5.40619">
        <ele>283.88000488281</ele>
        <time>2009-07-25T15:10:12Z</time>
      </trkpt>
      <trkpt lat="45.16788" lon="5.40629">
        <ele>283.83200073242</ele>
        <time>2009-07-25T15:10:14Z</time>
      </trkpt>
      <trkpt lat="45.16799" lon="5.40656">
        <ele>283.3630065918</ele>
        <time>2009-07-25T15:10:19Z</time>
      </trkpt>
      <trkpt lat="45.16802" lon="5.40685">
        <ele>284.33700561523</ele>
        <time>2009-07-25T15:10:24Z</time>
      </trkpt>
      <trkpt lat="45.16805" lon="5.407">
        <ele>284.62799072266</ele>
        <time>2009-07-25T15:10:27Z</time>
      </trkpt>
      <trkpt lat="45.16827" lon="5.407">
        <ele>282.58099365234</ele>
        <time>2009-07-25T15:10:32Z</time>
      </trkpt>
      <trkpt lat="45.16833" lon="5.40697">
        <ele>281.59899902344</ele>
        <time>2009-07-25T15:10:34Z</time>
      </trkpt>
      <trkpt lat="45.16838" lon="5.40699">
        <ele>281.38000488281</ele>
        <time>2009-07-25T15:10:38Z</time>
      </trkpt>
      <trkpt lat="45.16841" lon="5.40727">
        <ele>279.79400634766</ele>
        <time>2009-07-25T15:11:28Z</time>
      </trkpt>
      <trkpt lat="45.16847" lon="5.4081">
        <ele>278.97299194336</ele>
        <time>2009-07-25T15:11:40Z</time>
      </trkpt>
      <trkpt lat="45.16858" lon="5.40905">
        <ele>278.49301147461</ele>
        <time>2009-07-25T15:11:52Z</time>
      </trkpt>
      <trkpt lat="45.16906" lon="5.4101">
        <ele>279.79699707031</ele>
        <time>2009-07-25T15:12:08Z</time>
      </trkpt>
      <trkpt lat="45.16932" lon="5.41043">
        <ele>280.7200012207</ele>
        <time>2009-07-25T15:12:15Z</time>
      </trkpt>
      <trkpt lat="45.16943" lon="5.41057">
        <ele>281.1780090332</ele>
        <time>2009-07-25T15:12:18Z</time>
      </trkpt>
      <trkpt lat="45.16957" lon="5.41075">
        <ele>281.7619934082</ele>
        <time>2009-07-25T15:12:22Z</time>
      </trkpt>
      <trkpt lat="45.16977" lon="5.41099">
        <ele>283.98400878906</ele>
        <time>2009-07-25T15:12:28Z</time>
      </trkpt>
      <trkpt lat="45.16985" lon="5.41111">
        <ele>285.08099365234</ele>
        <time>2009-07-25T15:12:31Z</time>
      </trkpt>
      <trkpt lat="45.1701" lon="5.41142">
        <ele>286.85598754883</ele>
        <time>2009-07-25T15:12:39Z</time>
      </trkpt>
      <trkpt lat="45.17035" lon="5.41172">
        <ele>287.32901000977</ele>
        <time>2009-07-25T15:12:47Z</time>
      </trkpt>
      <trkpt lat="45.17025" lon="5.41189">
        <ele>289.42098999023</ele>
        <time>2009-07-25T15:12:55Z</time>
      </trkpt>
      <trkpt lat="45.17001" lon="5.41211">
        <ele>290.23901367188</ele>
        <time>2009-07-25T15:13:07Z</time>
      </trkpt>
      <trkpt lat="45.16986" lon="5.41238">
        <ele>290.8630065918</ele>
        <time>2009-07-25T15:13:17Z</time>
      </trkpt>
      <trkpt lat="45.16986" lon="5.41239">
        <ele>290.78601074219</ele>
        <time>2009-07-25T15:13:18Z</time>
      </trkpt>
      <trkpt lat="45.16991" lon="5.41253">
        <ele>291.15200805664</ele>
        <time>2009-07-25T15:13:24Z</time>
      </trkpt>
      <trkpt lat="45.17012" lon="5.41291">
        <ele>291.75900268555</ele>
        <time>2009-07-25T15:13:36Z</time>
      </trkpt>
      <trkpt lat="45.17011" lon="5.41292">
        <ele>291.68701171875</ele>
        <time>2009-07-25T15:13:41Z</time>
      </trkpt>
      <trkpt lat="45.16999" lon="5.41271">
        <ele>291.72100830078</ele>
        <time>2009-07-25T15:13:54Z</time>
      </trkpt>
      <trkpt lat="45.1699" lon="5.41239">
        <ele>291.03100585938</ele>
        <time>2009-07-25T15:14:05Z</time>
      </trkpt>
      <trkpt lat="45.16989" lon="5.41234">
        <ele>290.49398803711</ele>
        <time>2009-07-25T15:14:09Z</time>
      </trkpt>
      <trkpt lat="45.16985" lon="5.41233">
        <ele>290.20700073242</ele>
        <time>2009-07-25T15:14:13Z</time>
      </trkpt>
      <trkpt lat="45.16984" lon="5.41237">
        <ele>290.70599365234</ele>
        <time>2009-07-25T15:14:16Z</time>
      </trkpt>
      <trkpt lat="45.16981" lon="5.41242">
        <ele>291.06698608398</ele>
        <time>2009-07-25T15:14:23Z</time>
      </trkpt>
      <trkpt lat="45.16974" lon="5.41254">
        <ele>291.18399047852</ele>
        <time>2009-07-25T15:14:57Z</time>
      </trkpt>
      <trkpt lat="45.16962" lon="5.41273">
        <ele>292.34201049805</ele>
        <time>2009-07-25T15:15:03Z</time>
      </trkpt>
      <trkpt lat="45.16953" lon="5.41294">
        <ele>293.35998535156</ele>
        <time>2009-07-25T15:15:08Z</time>
      </trkpt>
      <trkpt lat="45.16944" lon="5.41314">
        <ele>295.14401245117</ele>
        <time>2009-07-25T15:15:14Z</time>
      </trkpt>
      <trkpt lat="45.1694" lon="5.41341">
        <ele>296.70098876953</ele>
        <time>2009-07-25T15:15:22Z</time>
      </trkpt>
      <trkpt lat="45.16932" lon="5.41386">
        <ele>298.32901000977</ele>
        <time>2009-07-25T15:15:32Z</time>
      </trkpt>
      <trkpt lat="45.1693" lon="5.41395">
        <ele>298.92700195312</ele>
        <time>2009-07-25T15:15:34Z</time>
      </trkpt>
      <trkpt lat="45.16933" lon="5.41397">
        <ele>298.97100830078</ele>
        <time>2009-07-25T15:15:40Z</time>
      </trkpt>
      <trkpt lat="45.16928" lon="5.41397">
        <ele>299.57299804688</ele>
        <time>2009-07-25T15:17:02Z</time>
      </trkpt>
      <trkpt lat="45.16929" lon="5.41397">
        <ele>299.39199829102</ele>
        <time>2009-07-25T15:17:03Z</time>
      </trkpt>
      <trkpt lat="45.1693" lon="5.41397">
        <ele>299.41101074219</ele>
        <time>2009-07-25T15:17:04Z</time>
      </trkpt>
      <trkpt lat="45.16927" lon="5.41391">
        <ele>299.10699462891</ele>
        <time>2009-07-25T15:18:06Z</time>
      </trkpt>
      <trkpt lat="45.16939" lon="5.41344">
        <ele>296.97198486328</ele>
        <time>2009-07-25T15:18:15Z</time>
      </trkpt>
      <trkpt lat="45.16954" lon="5.41288">
        <ele>292.93701171875</ele>
        <time>2009-07-25T15:18:22Z</time>
      </trkpt>
      <trkpt lat="45.16972" lon="5.41252">
        <ele>291.44799804688</ele>
        <time>2009-07-25T15:18:27Z</time>
      </trkpt>
      <trkpt lat="45.16999" lon="5.41222">
        <ele>289.64599609375</ele>
        <time>2009-07-25T15:18:34Z</time>
      </trkpt>
      <trkpt lat="45.17025" lon="5.41198">
        <ele>288.93399047852</ele>
        <time>2009-07-25T15:18:41Z</time>
      </trkpt>
      <trkpt lat="45.17041" lon="5.41186">
        <ele>288.77099609375</ele>
        <time>2009-07-25T15:18:47Z</time>
      </trkpt>
      <trkpt lat="45.17045" lon="5.4118">
        <ele>288.17999267578</ele>
        <time>2009-07-25T15:19:26Z</time>
      </trkpt>
      <trkpt lat="45.17046" lon="5.41179">
        <ele>288.09399414062</ele>
        <time>2009-07-25T15:19:27Z</time>
      </trkpt>
      <trkpt lat="45.17046" lon="5.41179">
        <ele>288.12298583984</ele>
        <time>2009-07-25T15:19:29Z</time>
      </trkpt>
      <trkpt lat="45.17064" lon="5.4116">
        <ele>287.56201171875</ele>
        <time>2009-07-25T15:19:41Z</time>
      </trkpt>
      <trkpt lat="45.1709" lon="5.41139">
        <ele>287.08801269531</ele>
        <time>2009-07-25T15:19:53Z</time>
      </trkpt>
      <trkpt lat="45.17099" lon="5.41129">
        <ele>286.77099609375</ele>
        <time>2009-07-25T15:19:59Z</time>
      </trkpt>
      <trkpt lat="45.17108" lon="5.41122">
        <ele>286.48999023438</ele>
        <time>2009-07-25T15:20:02Z</time>
      </trkpt>
      <trkpt lat="45.17121" lon="5.41117">
        <ele>286.22799682617</ele>
        <time>2009-07-25T15:20:05Z</time>
      </trkpt>
      <trkpt lat="45.17138" lon="5.4111">
        <ele>285.99301147461</ele>
        <time>2009-07-25T15:20:09Z</time>
      </trkpt>
      <trkpt lat="45.1721" lon="5.41069">
        <ele>284.76300048828</ele>
        <time>2009-07-25T15:20:23Z</time>
      </trkpt>
      <trkpt lat="45.17265" lon="5.41009">
        <ele>285.40899658203</ele>
        <time>2009-07-25T15:20:36Z</time>
      </trkpt>
      <trkpt lat="45.17307" lon="5.40936">
        <ele>284.47100830078</ele>
        <time>2009-07-25T15:20:48Z</time>
      </trkpt>
      <trkpt lat="45.17316" lon="5.40895">
        <ele>282.88900756836</ele>
        <time>2009-07-25T15:20:53Z</time>
      </trkpt>
      <trkpt lat="45.17318" lon="5.40845">
        <ele>279.63598632812</ele>
        <time>2009-07-25T15:20:58Z</time>
      </trkpt>
      <trkpt lat="45.17345" lon="5.40802">
        <ele>272.58099365234</ele>
        <time>2009-07-25T15:21:03Z</time>
      </trkpt>
      <trkpt lat="45.17388" lon="5.40782">
        <ele>269.21099853516</ele>
        <time>2009-07-25T15:21:08Z</time>
      </trkpt>
      <trkpt lat="45.17422" lon="5.40782">
        <ele>264.85598754883</ele>
        <time>2009-07-25T15:21:12Z</time>
      </trkpt>
      <trkpt lat="45.17484" lon="5.40817">
        <ele>255.04600524902</ele>
        <time>2009-07-25T15:21:20Z</time>
      </trkpt>
      <trkpt lat="45.17504" lon="5.40844">
        <ele>249.68600463867</ele>
        <time>2009-07-25T15:21:24Z</time>
      </trkpt>
      <trkpt lat="45.17513" lon="5.40858">
        <ele>247.81900024414</ele>
        <time>2009-07-25T15:21:26Z</time>
      </trkpt>
      <trkpt lat="45.17536" lon="5.40865">
        <ele>241.00300598144</ele>
        <time>2009-07-25T15:21:30Z</time>
      </trkpt>
      <trkpt lat="45.17617" lon="5.40835">
        <ele>227.77499389648</ele>
        <time>2009-07-25T15:21:37Z</time>
      </trkpt>
      <trkpt lat="45.17648" lon="5.40827">
        <ele>224.0119934082</ele>
        <time>2009-07-25T15:21:41Z</time>
      </trkpt>
      <trkpt lat="45.17656" lon="5.40824">
        <ele>223.39300537109</ele>
        <time>2009-07-25T15:21:43Z</time>
      </trkpt>
      <trkpt lat="45.17658" lon="5.40816">
        <ele>222.4940032959</ele>
        <time>2009-07-25T15:21:49Z</time>
      </trkpt>
      <trkpt lat="45.17655" lon="5.40805">
        <ele>221.78399658203</ele>
        <time>2009-07-25T15:22:00Z</time>
      </trkpt>
      <trkpt lat="45.17646" lon="5.40744">
        <ele>221.07499694824</ele>
        <time>2009-07-25T15:22:11Z</time>
      </trkpt>
      <trkpt lat="45.17633" lon="5.40658">
        <ele>223.63600158691</ele>
        <time>2009-07-25T15:22:25Z</time>
      </trkpt>
      <trkpt lat="45.17632" lon="5.40639">
        <ele>224.83399963379</ele>
        <time>2009-07-25T15:22:28Z</time>
      </trkpt>
      <trkpt lat="45.1763" lon="5.40626">
        <ele>225.49299621582</ele>
        <time>2009-07-25T15:22:30Z</time>
      </trkpt>
      <trkpt lat="45.17621" lon="5.40576">
        <ele>226.19200134277</ele>
        <time>2009-07-25T15:22:37Z</time>
      </trkpt>
      <trkpt lat="45.17611" lon="5.40522">
        <ele>226.34800720215</ele>
        <time>2009-07-25T15:22:44Z</time>
      </trkpt>
      <trkpt lat="45.1758" lon="5.40382">
        <ele>227.54800415039</ele>
        <time>2009-07-25T15:23:02Z</time>
      </trkpt>
      <trkpt lat="45.17529" lon="5.40281">
        <ele>227.44400024414</ele>
        <time>2009-07-25T15:23:17Z</time>
      </trkpt>
      <trkpt lat="45.17511" lon="5.40248">
        <ele>227.83299255371</ele>
        <time>2009-07-25T15:23:22Z</time>
      </trkpt>
      <trkpt lat="45.17474" lon="5.40193">
        <ele>227.14300537109</ele>
        <time>2009-07-25T15:23:32Z</time>
      </trkpt>
      <trkpt lat="45.17459" lon="5.40153">
        <ele>226.69900512695</ele>
        <time>2009-07-25T15:23:37Z</time>
      </trkpt>
      <trkpt lat="45.17456" lon="5.40128">
        <ele>227.2440032959</ele>
        <time>2009-07-25T15:23:40Z</time>
      </trkpt>
      <trkpt lat="45.17451" lon="5.40108">
        <ele>226.80900573731</ele>
        <time>2009-07-25T15:23:43Z</time>
      </trkpt>
      <trkpt lat="45.17445" lon="5.40092">
        <ele>225.18600463867</ele>
        <time>2009-07-25T15:23:45Z</time>
      </trkpt>
      <trkpt lat="45.17436" lon="5.40072">
        <ele>221.70199584961</ele>
        <time>2009-07-25T15:23:47Z</time>
      </trkpt>
      <trkpt lat="45.17419" lon="5.40035">
        <ele>217.22500610352</ele>
        <time>2009-07-25T15:23:51Z</time>
      </trkpt>
      <trkpt lat="45.17419" lon="5.40016">
        <ele>215.86599731445</ele>
        <time>2009-07-25T15:23:54Z</time>
      </trkpt>
      <trkpt lat="45.17427" lon="5.40003">
        <ele>215.82800292969</ele>
        <time>2009-07-25T15:23:56Z</time>
      </trkpt>
      <trkpt lat="45.17433" lon="5.39997">
        <ele>212.9109954834</ele>
        <time>2009-07-25T15:23:57Z</time>
      </trkpt>
      <trkpt lat="45.17443" lon="5.39988">
        <ele>209.74099731445</ele>
        <time>2009-07-25T15:23:59Z</time>
      </trkpt>
      <trkpt lat="45.17465" lon="5.39987">
        <ele>207.07099914551</ele>
        <time>2009-07-25T15:24:02Z</time>
      </trkpt>
      <trkpt lat="45.17489" lon="5.39992">
        <ele>206.28799438477</ele>
        <time>2009-07-25T15:24:05Z</time>
      </trkpt>
      <trkpt lat="45.17522" lon="5.3999">
        <ele>204.19799804688</ele>
        <time>2009-07-25T15:24:09Z</time>
      </trkpt>
      <trkpt lat="45.17551" lon="5.39969">
        <ele>203.06199645996</ele>
        <time>2009-07-25T15:24:13Z</time>
      </trkpt>
      <trkpt lat="45.17551" lon="5.39943">
        <ele>202.69799804688</ele>
        <time>2009-07-25T15:24:20Z</time>
      </trkpt>
      <trkpt lat="45.17542" lon="5.39935">
        <ele>202.2440032959</ele>
        <time>2009-07-25T15:24:23Z</time>
      </trkpt>
      <trkpt lat="45.17496" lon="5.39874">
        <ele>201.34199523926</ele>
        <time>2009-07-25T15:24:40Z</time>
      </trkpt>
      <trkpt lat="45.17486" lon="5.3984">
        <ele>201.93200683594</ele>
        <time>2009-07-25T15:24:47Z</time>
      </trkpt>
      <trkpt lat="45.17496" lon="5.39796">
        <ele>203.31100463867</ele>
        <time>2009-07-25T15:24:57Z</time>
      </trkpt>
      <trkpt lat="45.17502" lon="5.39784">
        <ele>203.72500610352</ele>
        <time>2009-07-25T15:25:00Z</time>
      </trkpt>
      <trkpt lat="45.17514" lon="5.39741">
        <ele>204.66600036621</ele>
        <time>2009-07-25T15:25:08Z</time>
      </trkpt>
      <trkpt lat="45.17508" lon="5.39697">
        <ele>206.09199523926</ele>
        <time>2009-07-25T15:25:15Z</time>
      </trkpt>
      <trkpt lat="45.17477" lon="5.39616">
        <ele>207.93400573731</ele>
        <time>2009-07-25T15:25:28Z</time>
      </trkpt>
      <trkpt lat="45.17464" lon="5.39592">
        <ele>208.34300231934</ele>
        <time>2009-07-25T15:25:32Z</time>
      </trkpt>
      <trkpt lat="45.17453" lon="5.39577">
        <ele>209.07099914551</ele>
        <time>2009-07-25T15:25:35Z</time>
      </trkpt>
      <trkpt lat="45.17398" lon="5.39539">
        <ele>210.73399353027</ele>
        <time>2009-07-25T15:25:47Z</time>
      </trkpt>
      <trkpt lat="45.17363" lon="5.39516">
        <ele>211.85499572754</ele>
        <time>2009-07-25T15:25:55Z</time>
      </trkpt>
      <trkpt lat="45.17294" lon="5.39449">
        <ele>214.43099975586</ele>
        <time>2009-07-25T15:26:12Z</time>
      </trkpt>
      <trkpt lat="45.17231" lon="5.39368">
        <ele>216.51499938965</ele>
        <time>2009-07-25T15:26:29Z</time>
      </trkpt>
      <trkpt lat="45.17225" lon="5.39357">
        <ele>217.13999938965</ele>
        <time>2009-07-25T15:26:31Z</time>
      </trkpt>
      <trkpt lat="45.17219" lon="5.39345">
        <ele>217.51699829102</ele>
        <time>2009-07-25T15:26:33Z</time>
      </trkpt>
      <trkpt lat="45.1721" lon="5.3932">
        <ele>218.42999267578</ele>
        <time>2009-07-25T15:26:37Z</time>
      </trkpt>
      <trkpt lat="45.17199" lon="5.39289">
        <ele>218.94599914551</ele>
        <time>2009-07-25T15:26:42Z</time>
      </trkpt>
      <trkpt lat="45.17184" lon="5.39254">
        <ele>219.86199951172</ele>
        <time>2009-07-25T15:26:48Z</time>
      </trkpt>
      <trkpt lat="45.17176" lon="5.39238">
        <ele>220.17300415039</ele>
        <time>2009-07-25T15:26:51Z</time>
      </trkpt>
      <trkpt lat="45.17165" lon="5.39218">
        <ele>221.10400390625</ele>
        <time>2009-07-25T15:26:55Z</time>
      </trkpt>
      <trkpt lat="45.17127" lon="5.39163">
        <ele>222.71600341797</ele>
        <time>2009-07-25T15:27:10Z</time>
      </trkpt>
      <trkpt lat="45.17114" lon="5.39145">
        <ele>223.4700012207</ele>
        <time>2009-07-25T15:27:17Z</time>
      </trkpt>
      <trkpt lat="45.17082" lon="5.39115">
        <ele>224.61199951172</ele>
        <time>2009-07-25T15:27:28Z</time>
      </trkpt>
      <trkpt lat="45.17044" lon="5.39081">
        <ele>226.0950012207</ele>
        <time>2009-07-25T15:27:40Z</time>
      </trkpt>
      <trkpt lat="45.17043" lon="5.39081">
        <ele>226.37800598144</ele>
        <time>2009-07-25T15:27:42Z</time>
      </trkpt>
      <trkpt lat="45.17041" lon="5.39079">
        <ele>224.36099243164</ele>
        <time>2009-07-25T15:35:12Z</time>
      </trkpt>
      <trkpt lat="45.1704" lon="5.39078">
        <ele>224.54800415039</ele>
        <time>2009-07-25T15:35:13Z</time>
      </trkpt>
      <trkpt lat="45.17019" lon="5.3905">
        <ele>225.29600524902</ele>
        <time>2009-07-25T15:35:24Z</time>
      </trkpt>
      <trkpt lat="45.16992" lon="5.39002">
        <ele>226.46099853516</ele>
        <time>2009-07-25T15:35:37Z</time>
      </trkpt>
      <trkpt lat="45.1696" lon="5.38943">
        <ele>227.67399597168</ele>
        <time>2009-07-25T15:35:50Z</time>
      </trkpt>
      <trkpt lat="45.16957" lon="5.38937">
        <ele>227.95899963379</ele>
        <time>2009-07-25T15:35:51Z</time>
      </trkpt>
      <trkpt lat="45.16954" lon="5.38932">
        <ele>228.04699707031</ele>
        <time>2009-07-25T15:35:52Z</time>
      </trkpt>
      <trkpt lat="45.16943" lon="5.38908">
        <ele>228.58700561523</ele>
        <time>2009-07-25T15:35:56Z</time>
      </trkpt>
      <trkpt lat="45.16931" lon="5.38878">
        <ele>229.69799804688</ele>
        <time>2009-07-25T15:36:01Z</time>
      </trkpt>
      <trkpt lat="45.16909" lon="5.38848">
        <ele>230.27299499512</ele>
        <time>2009-07-25T15:36:07Z</time>
      </trkpt>
      <trkpt lat="45.16874" lon="5.38814">
        <ele>231.7859954834</ele>
        <time>2009-07-25T15:36:15Z</time>
      </trkpt>
      <trkpt lat="45.16839" lon="5.38782">
        <ele>233.7140045166</ele>
        <time>2009-07-25T15:36:23Z</time>
      </trkpt>
      <trkpt lat="45.16734" lon="5.38722">
        <ele>234.69299316406</ele>
        <time>2009-07-25T15:36:43Z</time>
      </trkpt>
      <trkpt lat="45.1661" lon="5.38654">
        <ele>235.27400207519</ele>
        <time>2009-07-25T15:37:04Z</time>
      </trkpt>
      <trkpt lat="45.16456" lon="5.38572">
        <ele>235.86199951172</ele>
        <time>2009-07-25T15:37:26Z</time>
      </trkpt>
      <trkpt lat="45.16274" lon="5.38474">
        <ele>235.94799804688</ele>
        <time>2009-07-25T15:37:51Z</time>
      </trkpt>
      <trkpt lat="45.16174" lon="5.38418">
        <ele>236.38499450684</ele>
        <time>2009-07-25T15:38:05Z</time>
      </trkpt>
      <trkpt lat="45.16095" lon="5.38374">
        <ele>236.33299255371</ele>
        <time>2009-07-25T15:38:18Z</time>
      </trkpt>
      <trkpt lat="45.16075" lon="5.38363">
        <ele>236.30799865723</ele>
        <time>2009-07-25T15:38:22Z</time>
      </trkpt>
      <trkpt lat="45.16039" lon="5.38343">
        <ele>236.27099609375</ele>
        <time>2009-07-25T15:38:30Z</time>
      </trkpt>
      <trkpt lat="45.15977" lon="5.38309">
        <ele>236.11500549316</ele>
        <time>2009-07-25T15:38:41Z</time>
      </trkpt>
      <trkpt lat="45.15944" lon="5.38291">
        <ele>237.27499389648</ele>
        <time>2009-07-25T15:38:45Z</time>
      </trkpt>
      <trkpt lat="45.15919" lon="5.38278">
        <ele>237.28199768066</ele>
        <time>2009-07-25T15:38:48Z</time>
      </trkpt>
      <trkpt lat="45.15856" lon="5.38244">
        <ele>236.85299682617</ele>
        <time>2009-07-25T15:38:56Z</time>
      </trkpt>
      <trkpt lat="45.1575" lon="5.38186">
        <ele>237.11799621582</ele>
        <time>2009-07-25T15:39:10Z</time>
      </trkpt>
      <trkpt lat="45.15589" lon="5.38097">
        <ele>236.83399963379</ele>
        <time>2009-07-25T15:39:31Z</time>
      </trkpt>
      <trkpt lat="45.15575" lon="5.3809">
        <ele>236.74299621582</ele>
        <time>2009-07-25T15:39:33Z</time>
      </trkpt>
      <trkpt lat="45.15557" lon="5.3805">
        <ele>236.85200500488</ele>
        <time>2009-07-25T15:39:38Z</time>
      </trkpt>
      <trkpt lat="45.15535" lon="5.37888">
        <ele>236.97300720215</ele>
        <time>2009-07-25T15:39:54Z</time>
      </trkpt>
      <trkpt lat="45.1552" lon="5.37789">
        <ele>238.13200378418</ele>
        <time>2009-07-25T15:40:04Z</time>
      </trkpt>
      <trkpt lat="45.15509" lon="5.37753">
        <ele>238.46099853516</ele>
        <time>2009-07-25T15:40:08Z</time>
      </trkpt>
      <trkpt lat="45.15499" lon="5.37654">
        <ele>238.80299377441</ele>
        <time>2009-07-25T15:40:18Z</time>
      </trkpt>
      <trkpt lat="45.15466" lon="5.37414">
        <ele>237.66799926758</ele>
        <time>2009-07-25T15:40:40Z</time>
      </trkpt>
      <trkpt lat="45.15428" lon="5.37136">
        <ele>233.76300048828</ele>
        <time>2009-07-25T15:41:03Z</time>
      </trkpt>
      <trkpt lat="45.15389" lon="5.36861">
        <ele>230.51699829102</ele>
        <time>2009-07-25T15:41:24Z</time>
      </trkpt>
      <trkpt lat="45.15367" lon="5.36686">
        <ele>226.17199707031</ele>
        <time>2009-07-25T15:41:37Z</time>
      </trkpt>
      <trkpt lat="45.15372" lon="5.36631">
        <ele>223.62699890137</ele>
        <time>2009-07-25T15:41:41Z</time>
      </trkpt>
      <trkpt lat="45.15388" lon="5.36582">
        <ele>223.7200012207</ele>
        <time>2009-07-25T15:41:47Z</time>
      </trkpt>
      <trkpt lat="45.15395" lon="5.36569">
        <ele>223.28999328613</ele>
        <time>2009-07-25T15:41:55Z</time>
      </trkpt>
      <trkpt lat="45.15398" lon="5.36562">
        <ele>222.9109954834</ele>
        <time>2009-07-25T15:42:04Z</time>
      </trkpt>
      <trkpt lat="45.15414" lon="5.36517">
        <ele>220.01300048828</ele>
        <time>2009-07-25T15:42:15Z</time>
      </trkpt>
      <trkpt lat="45.15431" lon="5.36475">
        <ele>219.52099609375</ele>
        <time>2009-07-25T15:42:20Z</time>
      </trkpt>
      <trkpt lat="45.15438" lon="5.36457">
        <ele>218.88400268555</ele>
        <time>2009-07-25T15:42:22Z</time>
      </trkpt>
      <trkpt lat="45.15479" lon="5.36352">
        <ele>218.02000427246</ele>
        <time>2009-07-25T15:42:34Z</time>
      </trkpt>
      <trkpt lat="45.15512" lon="5.36271">
        <ele>220.41999816894</ele>
        <time>2009-07-25T15:42:47Z</time>
      </trkpt>
      <trkpt lat="45.1553" lon="5.36223">
        <ele>219.61700439453</ele>
        <time>2009-07-25T15:42:56Z</time>
      </trkpt>
      <trkpt lat="45.15531" lon="5.36193">
        <ele>221.48599243164</ele>
        <time>2009-07-25T15:43:00Z</time>
      </trkpt>
      <trkpt lat="45.15517" lon="5.36159">
        <ele>223.33700561523</ele>
        <time>2009-07-25T15:43:05Z</time>
      </trkpt>
      <trkpt lat="45.15489" lon="5.36116">
        <ele>225.60200500488</ele>
        <time>2009-07-25T15:43:12Z</time>
      </trkpt>
      <trkpt lat="45.1547" lon="5.36087">
        <ele>227.51600646973</ele>
        <time>2009-07-25T15:43:17Z</time>
      </trkpt>
      <trkpt lat="45.154" lon="5.36003">
        <ele>231.73300170898</ele>
        <time>2009-07-25T15:43:33Z</time>
      </trkpt>
      <trkpt lat="45.15373" lon="5.35972">
        <ele>234.05400085449</ele>
        <time>2009-07-25T15:43:39Z</time>
      </trkpt>
      <trkpt lat="45.15317" lon="5.35909">
        <ele>238.32800292969</ele>
        <time>2009-07-25T15:43:52Z</time>
      </trkpt>
      <trkpt lat="45.15228" lon="5.35859">
        <ele>242.19900512695</ele>
        <time>2009-07-25T15:44:11Z</time>
      </trkpt>
      <trkpt lat="45.15201" lon="5.35846">
        <ele>245.64999389648</ele>
        <time>2009-07-25T15:44:17Z</time>
      </trkpt>
      <trkpt lat="45.15184" lon="5.35833">
        <ele>246.89599609375</ele>
        <time>2009-07-25T15:44:21Z</time>
      </trkpt>
      <trkpt lat="45.15165" lon="5.35802">
        <ele>248.26899719238</ele>
        <time>2009-07-25T15:44:27Z</time>
      </trkpt>
      <trkpt lat="45.15163" lon="5.35763">
        <ele>249.70199584961</ele>
        <time>2009-07-25T15:44:33Z</time>
      </trkpt>
      <trkpt lat="45.15206" lon="5.35642">
        <ele>251.69999694824</ele>
        <time>2009-07-25T15:44:50Z</time>
      </trkpt>
      <trkpt lat="45.15237" lon="5.35552">
        <ele>253.35000610352</ele>
        <time>2009-07-25T15:45:01Z</time>
      </trkpt>
      <trkpt lat="45.15266" lon="5.35448">
        <ele>258.86898803711</ele>
        <time>2009-07-25T15:45:15Z</time>
      </trkpt>
      <trkpt lat="45.15279" lon="5.35404">
        <ele>260.23400878906</ele>
        <time>2009-07-25T15:45:21Z</time>
      </trkpt>
      <trkpt lat="45.15322" lon="5.3529">
        <ele>260.96701049805</ele>
        <time>2009-07-25T15:45:36Z</time>
      </trkpt>
      <trkpt lat="45.1533" lon="5.35253">
        <ele>261.41000366211</ele>
        <time>2009-07-25T15:45:40Z</time>
      </trkpt>
      <trkpt lat="45.15343" lon="5.35069">
        <ele>263.42098999023</ele>
        <time>2009-07-25T15:46:00Z</time>
      </trkpt>
      <trkpt lat="45.15357" lon="5.34883">
        <ele>265.24200439453</ele>
        <time>2009-07-25T15:46:20Z</time>
      </trkpt>
      <trkpt lat="45.15368" lon="5.34718">
        <ele>267.42999267578</ele>
        <time>2009-07-25T15:46:37Z</time>
      </trkpt>
      <trkpt lat="45.15379" lon="5.34566">
        <ele>268.51800537109</ele>
        <time>2009-07-25T15:46:52Z</time>
      </trkpt>
      <trkpt lat="45.15379" lon="5.34537">
        <ele>269.60400390625</ele>
        <time>2009-07-25T15:46:55Z</time>
      </trkpt>
      <trkpt lat="45.15388" lon="5.34482">
        <ele>269.73199462891</ele>
        <time>2009-07-25T15:47:01Z</time>
      </trkpt>
      <trkpt lat="45.15394" lon="5.34366">
        <ele>270.52700805664</ele>
        <time>2009-07-25T15:47:14Z</time>
      </trkpt>
      <trkpt lat="45.154" lon="5.34294">
        <ele>271.23999023438</ele>
        <time>2009-07-25T15:47:24Z</time>
      </trkpt>
      <trkpt lat="45.15404" lon="5.34247">
        <ele>271.23999023438</ele>
        <time>2009-07-25T15:47:31Z</time>
      </trkpt>
      <trkpt lat="45.15403" lon="5.34134">
        <ele>275.02801513672</ele>
        <time>2009-07-25T15:47:46Z</time>
      </trkpt>
      <trkpt lat="45.154" lon="5.3412">
        <ele>275.2200012207</ele>
        <time>2009-07-25T15:47:48Z</time>
      </trkpt>
      <trkpt lat="45.15347" lon="5.34008">
        <ele>278.85501098633</ele>
        <time>2009-07-25T15:48:06Z</time>
      </trkpt>
      <trkpt lat="45.15302" lon="5.33911">
        <ele>283.09799194336</ele>
        <time>2009-07-25T15:48:22Z</time>
      </trkpt>
      <trkpt lat="45.15277" lon="5.33804">
        <ele>286.17199707031</ele>
        <time>2009-07-25T15:48:37Z</time>
      </trkpt>
      <trkpt lat="45.153" lon="5.33695">
        <ele>287.83700561523</ele>
        <time>2009-07-25T15:48:51Z</time>
      </trkpt>
      <trkpt lat="45.15352" lon="5.33529">
        <ele>287.96099853516</ele>
        <time>2009-07-25T15:49:10Z</time>
      </trkpt>
      <trkpt lat="45.1538" lon="5.33442">
        <ele>287.1369934082</ele>
        <time>2009-07-25T15:49:21Z</time>
      </trkpt>
      <trkpt lat="45.15411" lon="5.33324">
        <ele>287.90399169922</ele>
        <time>2009-07-25T15:49:34Z</time>
      </trkpt>
      <trkpt lat="45.15416" lon="5.33293">
        <ele>287.66900634766</ele>
        <time>2009-07-25T15:49:37Z</time>
      </trkpt>
      <trkpt lat="45.15442" lon="5.33208">
        <ele>287.49700927734</ele>
        <time>2009-07-25T15:49:47Z</time>
      </trkpt>
      <trkpt lat="45.15458" lon="5.33175">
        <ele>287.93399047852</ele>
        <time>2009-07-25T15:49:53Z</time>
      </trkpt>
      <trkpt lat="45.15459" lon="5.33172">
        <ele>288.11700439453</ele>
        <time>2009-07-25T15:49:58Z</time>
      </trkpt>
      <trkpt lat="45.15461" lon="5.33166">
        <ele>287.78900146484</ele>
        <time>2009-07-25T15:50:03Z</time>
      </trkpt>
      <trkpt lat="45.15463" lon="5.3316">
        <ele>287.99700927734</ele>
        <time>2009-07-25T15:50:08Z</time>
      </trkpt>
      <trkpt lat="45.1547" lon="5.33149">
        <ele>287.87200927734</ele>
        <time>2009-07-25T15:50:19Z</time>
      </trkpt>
      <trkpt lat="45.1547" lon="5.33144">
        <ele>288.3210144043</ele>
        <time>2009-07-25T15:50:24Z</time>
      </trkpt>
      <trkpt lat="45.15475" lon="5.3313">
        <ele>288.34100341797</ele>
        <time>2009-07-25T15:50:30Z</time>
      </trkpt>
      <trkpt lat="45.155" lon="5.33071">
        <ele>287.29098510742</ele>
        <time>2009-07-25T15:50:41Z</time>
      </trkpt>
      <trkpt lat="45.15564" lon="5.32948">
        <ele>288.17098999023</ele>
        <time>2009-07-25T15:50:59Z</time>
      </trkpt>
      <trkpt lat="45.15585" lon="5.32913">
        <ele>287.94299316406</ele>
        <time>2009-07-25T15:51:04Z</time>
      </trkpt>
      <trkpt lat="45.15643" lon="5.32819">
        <ele>287.8210144043</ele>
        <time>2009-07-25T15:51:18Z</time>
      </trkpt>
      <trkpt lat="45.15659" lon="5.3279">
        <ele>285.81799316406</ele>
        <time>2009-07-25T15:51:23Z</time>
      </trkpt>
      <trkpt lat="45.15669" lon="5.32777">
        <ele>285.8869934082</ele>
        <time>2009-07-25T15:51:29Z</time>
      </trkpt>
      <trkpt lat="45.15668" lon="5.32777">
        <ele>285.85501098633</ele>
        <time>2009-07-25T15:51:40Z</time>
      </trkpt>
      <trkpt lat="45.15671" lon="5.32773">
        <ele>285.76599121094</ele>
        <time>2009-07-25T15:51:55Z</time>
      </trkpt>
      <trkpt lat="45.15673" lon="5.32771">
        <ele>285.84298706055</ele>
        <time>2009-07-25T15:51:56Z</time>
      </trkpt>
      <trkpt lat="45.15672" lon="5.32741">
        <ele>285.04000854492</ele>
        <time>2009-07-25T15:52:02Z</time>
      </trkpt>
      <trkpt lat="45.15638" lon="5.32685">
        <ele>281.24499511719</ele>
        <time>2009-07-25T15:52:09Z</time>
      </trkpt>
      <trkpt lat="45.15619" lon="5.32645">
        <ele>278.87899780273</ele>
        <time>2009-07-25T15:52:13Z</time>
      </trkpt>
      <trkpt lat="45.15595" lon="5.32588">
        <ele>276.35000610352</ele>
        <time>2009-07-25T15:52:18Z</time>
      </trkpt>
      <trkpt lat="45.15548" lon="5.32479">
        <ele>278.57000732422</ele>
        <time>2009-07-25T15:52:28Z</time>
      </trkpt>
      <trkpt lat="45.15522" lon="5.3242">
        <ele>281.38101196289</ele>
        <time>2009-07-25T15:52:36Z</time>
      </trkpt>
      <trkpt lat="45.15499" lon="5.32395">
        <ele>282.44100952148</ele>
        <time>2009-07-25T15:52:41Z</time>
      </trkpt>
      <trkpt lat="45.15471" lon="5.32383">
        <ele>282.83099365234</ele>
        <time>2009-07-25T15:52:46Z</time>
      </trkpt>
      <trkpt lat="45.15454" lon="5.32372">
        <ele>283.37399291992</ele>
        <time>2009-07-25T15:52:49Z</time>
      </trkpt>
      <trkpt lat="45.154" lon="5.32331">
        <ele>284.14599609375</ele>
        <time>2009-07-25T15:52:59Z</time>
      </trkpt>
      <trkpt lat="45.15369" lon="5.32292">
        <ele>285.2799987793</ele>
        <time>2009-07-25T15:53:10Z</time>
      </trkpt>
      <trkpt lat="45.15359" lon="5.32278">
        <ele>285.85000610352</ele>
        <time>2009-07-25T15:53:13Z</time>
      </trkpt>
      <trkpt lat="45.15302" lon="5.32173">
        <ele>285.04598999023</ele>
        <time>2009-07-25T15:53:29Z</time>
      </trkpt>
      <trkpt lat="45.15241" lon="5.32051">
        <ele>285.08499145508</ele>
        <time>2009-07-25T15:53:44Z</time>
      </trkpt>
      <trkpt lat="45.15171" lon="5.31901">
        <ele>283.67199707031</ele>
        <time>2009-07-25T15:54:01Z</time>
      </trkpt>
      <trkpt lat="45.15141" lon="5.3178">
        <ele>284.47299194336</ele>
        <time>2009-07-25T15:54:14Z</time>
      </trkpt>
      <trkpt lat="45.1514" lon="5.31773">
        <ele>284.62399291992</ele>
        <time>2009-07-25T15:54:15Z</time>
      </trkpt>
      <trkpt lat="45.1515" lon="5.3174">
        <ele>284.79598999023</ele>
        <time>2009-07-25T15:54:23Z</time>
      </trkpt>
      <trkpt lat="45.15167" lon="5.31738">
        <ele>284.42999267578</ele>
        <time>2009-07-25T15:54:28Z</time>
      </trkpt>
      <trkpt lat="45.15219" lon="5.31746">
        <ele>284.73699951172</ele>
        <time>2009-07-25T15:54:37Z</time>
      </trkpt>
      <trkpt lat="45.15296" lon="5.31751">
        <ele>285.36099243164</ele>
        <time>2009-07-25T15:54:50Z</time>
      </trkpt>
      <trkpt lat="45.15336" lon="5.31756">
        <ele>285.63400268555</ele>
        <time>2009-07-25T15:55:00Z</time>
      </trkpt>
      <trkpt lat="45.15389" lon="5.31762">
        <ele>286.10501098633</ele>
        <time>2009-07-25T15:55:14Z</time>
      </trkpt>
      <trkpt lat="45.15396" lon="5.31762">
        <ele>285.95700073242</ele>
        <time>2009-07-25T15:55:17Z</time>
      </trkpt>
      <trkpt lat="45.15392" lon="5.31734">
        <ele>286.15899658203</ele>
        <time>2009-07-25T15:55:23Z</time>
      </trkpt>
      <trkpt lat="45.15316" lon="5.31631">
        <ele>283.45199584961</ele>
        <time>2009-07-25T15:55:38Z</time>
      </trkpt>
      <trkpt lat="45.15196" lon="5.3147">
        <ele>281.86599731445</ele>
        <time>2009-07-25T15:55:58Z</time>
      </trkpt>
      <trkpt lat="45.15113" lon="5.31363">
        <ele>281.52801513672</ele>
        <time>2009-07-25T15:56:13Z</time>
      </trkpt>
      <trkpt lat="45.15036" lon="5.31253">
        <ele>280.92098999023</ele>
        <time>2009-07-25T15:56:28Z</time>
      </trkpt>
      <trkpt lat="45.15001" lon="5.31201">
        <ele>281.56100463867</ele>
        <time>2009-07-25T15:56:35Z</time>
      </trkpt>
      <trkpt lat="45.1497" lon="5.31083">
        <ele>280.98599243164</ele>
        <time>2009-07-25T15:56:46Z</time>
      </trkpt>
      <trkpt lat="45.14901" lon="5.30909">
        <ele>279.95300292969</ele>
        <time>2009-07-25T15:57:03Z</time>
      </trkpt>
      <trkpt lat="45.14804" lon="5.30789">
        <ele>279.04000854492</ele>
        <time>2009-07-25T15:57:18Z</time>
      </trkpt>
      <trkpt lat="45.14754" lon="5.30721">
        <ele>279.22100830078</ele>
        <time>2009-07-25T15:57:26Z</time>
      </trkpt>
      <trkpt lat="45.14738" lon="5.30694">
        <ele>279.95599365234</ele>
        <time>2009-07-25T15:57:29Z</time>
      </trkpt>
      <trkpt lat="45.14693" lon="5.30551">
        <ele>278.31399536133</ele>
        <time>2009-07-25T15:57:42Z</time>
      </trkpt>
      <trkpt lat="45.14669" lon="5.30469">
        <ele>278.41101074219</ele>
        <time>2009-07-25T15:57:50Z</time>
      </trkpt>
      <trkpt lat="45.14605" lon="5.30259">
        <ele>276.68600463867</ele>
        <time>2009-07-25T15:58:09Z</time>
      </trkpt>
      <trkpt lat="45.14576" lon="5.30104">
        <ele>276.93600463867</ele>
        <time>2009-07-25T15:58:22Z</time>
      </trkpt>
      <trkpt lat="45.14557" lon="5.29871">
        <ele>276.98999023438</ele>
        <time>2009-07-25T15:58:41Z</time>
      </trkpt>
      <trkpt lat="45.14533" lon="5.29619">
        <ele>277.45098876953</ele>
        <time>2009-07-25T15:59:03Z</time>
      </trkpt>
      <trkpt lat="45.1452" lon="5.29567">
        <ele>277.79901123047</ele>
        <time>2009-07-25T15:59:08Z</time>
      </trkpt>
      <trkpt lat="45.14434" lon="5.29415">
        <ele>276.87701416016</ele>
        <time>2009-07-25T15:59:24Z</time>
      </trkpt>
      <trkpt lat="45.14307" lon="5.29196">
        <ele>277.5830078125</ele>
        <time>2009-07-25T15:59:46Z</time>
      </trkpt>
      <trkpt lat="45.14207" lon="5.2902">
        <ele>280.35299682617</ele>
        <time>2009-07-25T16:00:05Z</time>
      </trkpt>
      <trkpt lat="45.14183" lon="5.28978">
        <ele>281.2200012207</ele>
        <time>2009-07-25T16:00:10Z</time>
      </trkpt>
      <trkpt lat="45.1415" lon="5.28917">
        <ele>281.85699462891</ele>
        <time>2009-07-25T16:00:17Z</time>
      </trkpt>
      <trkpt lat="45.14127" lon="5.28845">
        <ele>282.20901489258</ele>
        <time>2009-07-25T16:00:24Z</time>
      </trkpt>
      <trkpt lat="45.14129" lon="5.288">
        <ele>282.85198974609</ele>
        <time>2009-07-25T16:00:28Z</time>
      </trkpt>
      <trkpt lat="45.14143" lon="5.2875">
        <ele>283.84100341797</ele>
        <time>2009-07-25T16:00:33Z</time>
      </trkpt>
      <trkpt lat="45.14195" lon="5.2866">
        <ele>285.25</ele>
        <time>2009-07-25T16:00:47Z</time>
      </trkpt>
      <trkpt lat="45.1421" lon="5.28625">
        <ele>285.31698608398</ele>
        <time>2009-07-25T16:00:52Z</time>
      </trkpt>
      <trkpt lat="45.14217" lon="5.28609">
        <ele>285.48999023438</ele>
        <time>2009-07-25T16:00:54Z</time>
      </trkpt>
      <trkpt lat="45.14223" lon="5.28594">
        <ele>286.18899536133</ele>
        <time>2009-07-25T16:00:56Z</time>
      </trkpt>
      <trkpt lat="45.14251" lon="5.28491">
        <ele>285.80499267578</ele>
        <time>2009-07-25T16:01:09Z</time>
      </trkpt>
      <trkpt lat="45.14305" lon="5.28362">
        <ele>286.43499755859</ele>
        <time>2009-07-25T16:01:25Z</time>
      </trkpt>
      <trkpt lat="45.14337" lon="5.28283">
        <ele>286.26300048828</ele>
        <time>2009-07-25T16:01:37Z</time>
      </trkpt>
      <trkpt lat="45.14351" lon="5.28175">
        <ele>285.41799926758</ele>
        <time>2009-07-25T16:01:49Z</time>
      </trkpt>
      <trkpt lat="45.14352" lon="5.28116">
        <ele>285.26998901367</ele>
        <time>2009-07-25T16:01:57Z</time>
      </trkpt>
      <trkpt lat="45.14323" lon="5.28089">
        <ele>284.9460144043</ele>
        <time>2009-07-25T16:02:03Z</time>
      </trkpt>
      <trkpt lat="45.14286" lon="5.28079">
        <ele>284.57501220703</ele>
        <time>2009-07-25T16:02:09Z</time>
      </trkpt>
      <trkpt lat="45.1421" lon="5.28076">
        <ele>284.11199951172</ele>
        <time>2009-07-25T16:02:19Z</time>
      </trkpt>
      <trkpt lat="45.14177" lon="5.28028">
        <ele>284.0830078125</ele>
        <time>2009-07-25T16:02:26Z</time>
      </trkpt>
      <trkpt lat="45.14174" lon="5.28006">
        <ele>283.83099365234</ele>
        <time>2009-07-25T16:02:28Z</time>
      </trkpt>
      <trkpt lat="45.14165" lon="5.27963">
        <ele>283.81201171875</ele>
        <time>2009-07-25T16:02:32Z</time>
      </trkpt>
      <trkpt lat="45.14153" lon="5.27825">
        <ele>282.27899169922</ele>
        <time>2009-07-25T16:02:44Z</time>
      </trkpt>
      <trkpt lat="45.14127" lon="5.27753">
        <ele>281.83599853516</ele>
        <time>2009-07-25T16:02:51Z</time>
      </trkpt>
      <trkpt lat="45.1404" lon="5.27645">
        <ele>281.48199462891</ele>
        <time>2009-07-25T16:03:04Z</time>
      </trkpt>
      <trkpt lat="45.13956" lon="5.27543">
        <ele>280.97299194336</ele>
        <time>2009-07-25T16:03:16Z</time>
      </trkpt>
      <trkpt lat="45.13889" lon="5.27396">
        <ele>281.8219909668</ele>
        <time>2009-07-25T16:03:30Z</time>
      </trkpt>
      <trkpt lat="45.13879" lon="5.27357">
        <ele>283.63598632812</ele>
        <time>2009-07-25T16:03:34Z</time>
      </trkpt>
      <trkpt lat="45.13871" lon="5.27332">
        <ele>284.98199462891</ele>
        <time>2009-07-25T16:03:37Z</time>
      </trkpt>
      <trkpt lat="45.13865" lon="5.27317">
        <ele>285.86599731445</ele>
        <time>2009-07-25T16:03:39Z</time>
      </trkpt>
      <trkpt lat="45.13853" lon="5.27299">
        <ele>286.88400268555</ele>
        <time>2009-07-25T16:03:42Z</time>
      </trkpt>
      <trkpt lat="45.13823" lon="5.27275">
        <ele>289.0299987793</ele>
        <time>2009-07-25T16:03:48Z</time>
      </trkpt>
      <trkpt lat="45.1377" lon="5.27245">
        <ele>292.79098510742</ele>
        <time>2009-07-25T16:03:58Z</time>
      </trkpt>
      <trkpt lat="45.13755" lon="5.27236">
        <ele>294.24200439453</ele>
        <time>2009-07-25T16:04:01Z</time>
      </trkpt>
      <trkpt lat="45.1374" lon="5.27225">
        <ele>295.30099487305</ele>
        <time>2009-07-25T16:04:04Z</time>
      </trkpt>
      <trkpt lat="45.13718" lon="5.272">
        <ele>296.59799194336</ele>
        <time>2009-07-25T16:04:09Z</time>
      </trkpt>
      <trkpt lat="45.13704" lon="5.27141">
        <ele>299.65301513672</ele>
        <time>2009-07-25T16:04:17Z</time>
      </trkpt>
      <trkpt lat="45.137" lon="5.26985">
        <ele>302.6130065918</ele>
        <time>2009-07-25T16:04:36Z</time>
      </trkpt>
      <trkpt lat="45.13676" lon="5.26856">
        <ele>302.05599975586</ele>
        <time>2009-07-25T16:04:49Z</time>
      </trkpt>
      <trkpt lat="45.13625" lon="5.26613">
        <ele>298.93301391602</ele>
        <time>2009-07-25T16:05:09Z</time>
      </trkpt>
      <trkpt lat="45.13599" lon="5.26427">
        <ele>293.65200805664</ele>
        <time>2009-07-25T16:05:22Z</time>
      </trkpt>
      <trkpt lat="45.13567" lon="5.26357">
        <ele>288.41101074219</ele>
        <time>2009-07-25T16:05:27Z</time>
      </trkpt>
      <trkpt lat="45.13536" lon="5.26321">
        <ele>287.00399780273</ele>
        <time>2009-07-25T16:05:30Z</time>
      </trkpt>
      <trkpt lat="45.13446" lon="5.26216">
        <ele>291.36801147461</ele>
        <time>2009-07-25T16:05:40Z</time>
      </trkpt>
      <trkpt lat="45.13417" lon="5.26185">
        <ele>293.79299926758</ele>
        <time>2009-07-25T16:05:44Z</time>
      </trkpt>
      <trkpt lat="45.13394" lon="5.26166">
        <ele>295.06698608398</ele>
        <time>2009-07-25T16:05:47Z</time>
      </trkpt>
      <trkpt lat="45.13316" lon="5.2612">
        <ele>293.55499267578</ele>
        <time>2009-07-25T16:05:56Z</time>
      </trkpt>
      <trkpt lat="45.13285" lon="5.26069">
        <ele>294.87600708008</ele>
        <time>2009-07-25T16:06:01Z</time>
      </trkpt>
      <trkpt lat="45.13268" lon="5.26">
        <ele>297.5530090332</ele>
        <time>2009-07-25T16:06:07Z</time>
      </trkpt>
      <trkpt lat="45.13264" lon="5.25979">
        <ele>298.29000854492</ele>
        <time>2009-07-25T16:06:09Z</time>
      </trkpt>
      <trkpt lat="45.13283" lon="5.25913">
        <ele>299.26000976562</ele>
        <time>2009-07-25T16:06:16Z</time>
      </trkpt>
      <trkpt lat="45.13321" lon="5.25831">
        <ele>300.05899047852</ele>
        <time>2009-07-25T16:06:24Z</time>
      </trkpt>
      <trkpt lat="45.13304" lon="5.25745">
        <ele>297.99099731445</ele>
        <time>2009-07-25T16:06:31Z</time>
      </trkpt>
      <trkpt lat="45.13279" lon="5.2564">
        <ele>293.46600341797</ele>
        <time>2009-07-25T16:06:39Z</time>
      </trkpt>
      <trkpt lat="45.13306" lon="5.25549">
        <ele>290.30899047852</ele>
        <time>2009-07-25T16:06:45Z</time>
      </trkpt>
      <trkpt lat="45.13297" lon="5.25498">
        <ele>287.69000244141</ele>
        <time>2009-07-25T16:06:48Z</time>
      </trkpt>
      <trkpt lat="45.13277" lon="5.25434">
        <ele>284.625</ele>
        <time>2009-07-25T16:06:52Z</time>
      </trkpt>
      <trkpt lat="45.13214" lon="5.25312">
        <ele>282.22698974609</ele>
        <time>2009-07-25T16:07:01Z</time>
      </trkpt>
      <trkpt lat="45.13206" lon="5.25299">
        <ele>281.88198852539</ele>
        <time>2009-07-25T16:07:02Z</time>
      </trkpt>
      <trkpt lat="45.13194" lon="5.2522">
        <ele>278.35800170898</ele>
        <time>2009-07-25T16:07:07Z</time>
      </trkpt>
      <trkpt lat="45.13231" lon="5.25165">
        <ele>274.94299316406</ele>
        <time>2009-07-25T16:07:12Z</time>
      </trkpt>
      <trkpt lat="45.13253" lon="5.25116">
        <ele>272.53698730469</ele>
        <time>2009-07-25T16:07:16Z</time>
      </trkpt>
      <trkpt lat="45.13245" lon="5.25105">
        <ele>272.63400268555</ele>
        <time>2009-07-25T16:07:17Z</time>
      </trkpt>
      <trkpt lat="45.13239" lon="5.25062">
        <ele>270.36599731445</ele>
        <time>2009-07-25T16:07:20Z</time>
      </trkpt>
      <trkpt lat="45.13255" lon="5.2504">
        <ele>269.92599487305</ele>
        <time>2009-07-25T16:07:22Z</time>
      </trkpt>
      <trkpt lat="45.13321" lon="5.24973">
        <ele>265.95098876953</ele>
        <time>2009-07-25T16:07:29Z</time>
      </trkpt>
      <trkpt lat="45.13357" lon="5.24928">
        <ele>262.45999145508</ele>
        <time>2009-07-25T16:07:33Z</time>
      </trkpt>
      <trkpt lat="45.13388" lon="5.24901">
        <ele>260.68600463867</ele>
        <time>2009-07-25T16:07:36Z</time>
      </trkpt>
      <trkpt lat="45.13412" lon="5.24893">
        <ele>260.13400268555</ele>
        <time>2009-07-25T16:07:38Z</time>
      </trkpt>
      <trkpt lat="45.13442" lon="5.24873">
        <ele>258.80200195312</ele>
        <time>2009-07-25T16:07:41Z</time>
      </trkpt>
      <trkpt lat="45.13438" lon="5.24814">
        <ele>257.44000244141</ele>
        <time>2009-07-25T16:07:45Z</time>
      </trkpt>
      <trkpt lat="45.13389" lon="5.24785">
        <ele>255.82299804688</ele>
        <time>2009-07-25T16:07:50Z</time>
      </trkpt>
      <trkpt lat="45.13356" lon="5.24792">
        <ele>254.47099304199</ele>
        <time>2009-07-25T16:07:53Z</time>
      </trkpt>
      <trkpt lat="45.13267" lon="5.24821">
        <ele>257.47399902344</ele>
        <time>2009-07-25T16:08:02Z</time>
      </trkpt>
      <trkpt lat="45.13253" lon="5.24792">
        <ele>258.54998779297</ele>
        <time>2009-07-25T16:08:07Z</time>
      </trkpt>
      <trkpt lat="45.13291" lon="5.24767">
        <ele>261.46600341797</ele>
        <time>2009-07-25T16:08:13Z</time>
      </trkpt>
      <trkpt lat="45.13296" lon="5.2476">
        <ele>261.78698730469</ele>
        <time>2009-07-25T16:08:14Z</time>
      </trkpt>
      <trkpt lat="45.13316" lon="5.24731">
        <ele>263.21200561523</ele>
        <time>2009-07-25T16:08:18Z</time>
      </trkpt>
      <trkpt lat="45.13345" lon="5.24685">
        <ele>266.54901123047</ele>
        <time>2009-07-25T16:08:24Z</time>
      </trkpt>
      <trkpt lat="45.13353" lon="5.24668">
        <ele>267.4460144043</ele>
        <time>2009-07-25T16:08:26Z</time>
      </trkpt>
      <trkpt lat="45.13357" lon="5.24659">
        <ele>268.42999267578</ele>
        <time>2009-07-25T16:08:27Z</time>
      </trkpt>
      <trkpt lat="45.13369" lon="5.24621">
        <ele>270.25299072266</ele>
        <time>2009-07-25T16:08:31Z</time>
      </trkpt>
      <trkpt lat="45.13371" lon="5.24593">
        <ele>271.89801025391</ele>
        <time>2009-07-25T16:08:34Z</time>
      </trkpt>
      <trkpt lat="45.13363" lon="5.24561">
        <ele>273.86401367188</ele>
        <time>2009-07-25T16:08:38Z</time>
      </trkpt>
      <trkpt lat="45.13352" lon="5.24538">
        <ele>275.5530090332</ele>
        <time>2009-07-25T16:08:42Z</time>
      </trkpt>
      <trkpt lat="45.13328" lon="5.24434">
        <ele>279.56100463867</ele>
        <time>2009-07-25T16:09:00Z</time>
      </trkpt>
      <trkpt lat="45.13324" lon="5.244">
        <ele>281.16299438477</ele>
        <time>2009-07-25T16:09:05Z</time>
      </trkpt>
      <trkpt lat="45.13317" lon="5.24333">
        <ele>283.31900024414</ele>
        <time>2009-07-25T16:09:15Z</time>
      </trkpt>
      <trkpt lat="45.13303" lon="5.24186">
        <ele>288.03799438477</ele>
        <time>2009-07-25T16:09:36Z</time>
      </trkpt>
      <trkpt lat="45.13306" lon="5.24063">
        <ele>289.69000244141</ele>
        <time>2009-07-25T16:09:51Z</time>
      </trkpt>
      <trkpt lat="45.13324" lon="5.23889">
        <ele>290.82998657227</ele>
        <time>2009-07-25T16:10:08Z</time>
      </trkpt>
      <trkpt lat="45.13341" lon="5.23776">
        <ele>291.14999389648</ele>
        <time>2009-07-25T16:10:19Z</time>
      </trkpt>
      <trkpt lat="45.1335" lon="5.23748">
        <ele>291.33599853516</ele>
        <time>2009-07-25T16:10:22Z</time>
      </trkpt>
      <trkpt lat="45.13403" lon="5.23668">
        <ele>292.34899902344</ele>
        <time>2009-07-25T16:10:33Z</time>
      </trkpt>
      <trkpt lat="45.13493" lon="5.23537">
        <ele>296.79800415039</ele>
        <time>2009-07-25T16:10:52Z</time>
      </trkpt>
      <trkpt lat="45.13581" lon="5.23424">
        <ele>300.01998901367</ele>
        <time>2009-07-25T16:11:10Z</time>
      </trkpt>
      <trkpt lat="45.13702" lon="5.23333">
        <ele>302.29800415039</ele>
        <time>2009-07-25T16:11:30Z</time>
      </trkpt>
      <trkpt lat="45.13812" lon="5.23251">
        <ele>303.99700927734</ele>
        <time>2009-07-25T16:11:48Z</time>
      </trkpt>
      <trkpt lat="45.13935" lon="5.23161">
        <ele>302.72500610352</ele>
        <time>2009-07-25T16:12:07Z</time>
      </trkpt>
      <trkpt lat="45.13985" lon="5.23121">
        <ele>301.41101074219</ele>
        <time>2009-07-25T16:12:14Z</time>
      </trkpt>
      <trkpt lat="45.1405" lon="5.23037">
        <ele>304.2380065918</ele>
        <time>2009-07-25T16:12:27Z</time>
      </trkpt>
      <trkpt lat="45.14104" lon="5.22947">
        <ele>309.71200561523</ele>
        <time>2009-07-25T16:12:43Z</time>
      </trkpt>
      <trkpt lat="45.14123" lon="5.22916">
        <ele>311.34899902344</ele>
        <time>2009-07-25T16:12:49Z</time>
      </trkpt>
      <trkpt lat="45.14129" lon="5.22907">
        <ele>311.97698974609</ele>
        <time>2009-07-25T16:12:51Z</time>
      </trkpt>
      <trkpt lat="45.14153" lon="5.22878">
        <ele>312.76998901367</ele>
        <time>2009-07-25T16:12:57Z</time>
      </trkpt>
      <trkpt lat="45.1422" lon="5.22835">
        <ele>314.28601074219</ele>
        <time>2009-07-25T16:13:11Z</time>
      </trkpt>
      <trkpt lat="45.14331" lon="5.22833">
        <ele>317.0530090332</ele>
        <time>2009-07-25T16:13:30Z</time>
      </trkpt>
      <trkpt lat="45.14428" lon="5.22832">
        <ele>318.85998535156</ele>
        <time>2009-07-25T16:13:46Z</time>
      </trkpt>
      <trkpt lat="45.14473" lon="5.22783">
        <ele>316.98199462891</ele>
        <time>2009-07-25T16:13:54Z</time>
      </trkpt>
      <trkpt lat="45.14508" lon="5.22698">
        <ele>313.24398803711</ele>
        <time>2009-07-25T16:14:02Z</time>
      </trkpt>
      <trkpt lat="45.14596" lon="5.22596">
        <ele>316.86700439453</ele>
        <time>2009-07-25T16:14:17Z</time>
      </trkpt>
      <trkpt lat="45.1468" lon="5.22505">
        <ele>321.35699462891</ele>
        <time>2009-07-25T16:14:34Z</time>
      </trkpt>
      <trkpt lat="45.14685" lon="5.22501">
        <ele>321.30899047852</ele>
        <time>2009-07-25T16:14:35Z</time>
      </trkpt>
      <trkpt lat="45.14719" lon="5.22466">
        <ele>323.8450012207</ele>
        <time>2009-07-25T16:14:43Z</time>
      </trkpt>
      <trkpt lat="45.14733" lon="5.22445">
        <ele>324.71301269531</ele>
        <time>2009-07-25T16:14:47Z</time>
      </trkpt>
      <trkpt lat="45.1475" lon="5.22373">
        <ele>327.32299804688</ele>
        <time>2009-07-25T16:14:58Z</time>
      </trkpt>
      <trkpt lat="45.14753" lon="5.22354">
        <ele>328.39401245117</ele>
        <time>2009-07-25T16:15:00Z</time>
      </trkpt>
      <trkpt lat="45.14786" lon="5.2229">
        <ele>330.45098876953</ele>
        <time>2009-07-25T16:15:10Z</time>
      </trkpt>
      <trkpt lat="45.14852" lon="5.22257">
        <ele>332.72299194336</ele>
        <time>2009-07-25T16:15:23Z</time>
      </trkpt>
      <trkpt lat="45.14873" lon="5.22251">
        <ele>333.25201416016</ele>
        <time>2009-07-25T16:15:27Z</time>
      </trkpt>
      <trkpt lat="45.14919" lon="5.2224">
        <ele>334.13101196289</ele>
        <time>2009-07-25T16:15:36Z</time>
      </trkpt>
      <trkpt lat="45.14995" lon="5.22208">
        <ele>337.53100585938</ele>
        <time>2009-07-25T16:15:50Z</time>
      </trkpt>
      <trkpt lat="45.15026" lon="5.22165">
        <ele>339.01300048828</ele>
        <time>2009-07-25T16:15:58Z</time>
      </trkpt>
      <trkpt lat="45.15048" lon="5.22054">
        <ele>342.14999389648</ele>
        <time>2009-07-25T16:16:13Z</time>
      </trkpt>
      <trkpt lat="45.15057" lon="5.22018">
        <ele>343.38400268555</ele>
        <time>2009-07-25T16:16:18Z</time>
      </trkpt>
      <trkpt lat="45.1507" lon="5.21996">
        <ele>343.82901000977</ele>
        <time>2009-07-25T16:16:22Z</time>
      </trkpt>
      <trkpt lat="45.15092" lon="5.21967">
        <ele>345.45599365234</ele>
        <time>2009-07-25T16:16:28Z</time>
      </trkpt>
      <trkpt lat="45.15103" lon="5.21944">
        <ele>347.26300048828</ele>
        <time>2009-07-25T16:16:32Z</time>
      </trkpt>
      <trkpt lat="45.15098" lon="5.2188">
        <ele>349.99700927734</ele>
        <time>2009-07-25T16:16:42Z</time>
      </trkpt>
      <trkpt lat="45.15095" lon="5.21874">
        <ele>350.23400878906</ele>
        <time>2009-07-25T16:16:43Z</time>
      </trkpt>
      <trkpt lat="45.15044" lon="5.21794">
        <ele>354.07699584961</ele>
        <time>2009-07-25T16:16:58Z</time>
      </trkpt>
      <trkpt lat="45.15043" lon="5.21732">
        <ele>356.93600463867</ele>
        <time>2009-07-25T16:17:08Z</time>
      </trkpt>
      <trkpt lat="45.15045" lon="5.21727">
        <ele>357.44900512695</ele>
        <time>2009-07-25T16:17:09Z</time>
      </trkpt>
      <trkpt lat="45.15055" lon="5.21704">
        <ele>358.35198974609</ele>
        <time>2009-07-25T16:17:13Z</time>
      </trkpt>
      <trkpt lat="45.15086" lon="5.21694">
        <ele>360.73901367188</ele>
        <time>2009-07-25T16:17:20Z</time>
      </trkpt>
      <trkpt lat="45.15108" lon="5.21708">
        <ele>362.0950012207</ele>
        <time>2009-07-25T16:17:25Z</time>
      </trkpt>
      <trkpt lat="45.15154" lon="5.21692">
        <ele>364.51998901367</ele>
        <time>2009-07-25T16:17:35Z</time>
      </trkpt>
      <trkpt lat="45.1516" lon="5.21659">
        <ele>366.40899658203</ele>
        <time>2009-07-25T16:17:40Z</time>
      </trkpt>
      <trkpt lat="45.15159" lon="5.21618">
        <ele>368.09298706055</ele>
        <time>2009-07-25T16:17:46Z</time>
      </trkpt>
      <trkpt lat="45.15168" lon="5.21585">
        <ele>369.65399169922</ele>
        <time>2009-07-25T16:17:51Z</time>
      </trkpt>
      <trkpt lat="45.15186" lon="5.21562">
        <ele>371.25299072266</ele>
        <time>2009-07-25T16:17:56Z</time>
      </trkpt>
      <trkpt lat="45.15229" lon="5.21515">
        <ele>373.72698974609</ele>
        <time>2009-07-25T16:18:07Z</time>
      </trkpt>
      <trkpt lat="45.15247" lon="5.21469">
        <ele>376.66000366211</ele>
        <time>2009-07-25T16:18:16Z</time>
      </trkpt>
      <trkpt lat="45.15248" lon="5.21442">
        <ele>377.17498779297</ele>
        <time>2009-07-25T16:18:20Z</time>
      </trkpt>
      <trkpt lat="45.1524" lon="5.21366">
        <ele>380.35400390625</ele>
        <time>2009-07-25T16:18:30Z</time>
      </trkpt>
      <trkpt lat="45.15241" lon="5.2135">
        <ele>381.05999755859</ele>
        <time>2009-07-25T16:18:32Z</time>
      </trkpt>
      <trkpt lat="45.15245" lon="5.21329">
        <ele>381.65301513672</ele>
        <time>2009-07-25T16:18:35Z</time>
      </trkpt>
      <trkpt lat="45.15257" lon="5.21305">
        <ele>382.86199951172</ele>
        <time>2009-07-25T16:18:39Z</time>
      </trkpt>
      <trkpt lat="45.15287" lon="5.21265">
        <ele>384.10101318359</ele>
        <time>2009-07-25T16:18:47Z</time>
      </trkpt>
      <trkpt lat="45.15298" lon="5.2125">
        <ele>385.42300415039</ele>
        <time>2009-07-25T16:18:50Z</time>
      </trkpt>
      <trkpt lat="45.15298" lon="5.21203">
        <ele>387.5</ele>
        <time>2009-07-25T16:18:58Z</time>
      </trkpt>
      <trkpt lat="45.15273" lon="5.21204">
        <ele>389.29501342773</ele>
        <time>2009-07-25T16:19:03Z</time>
      </trkpt>
      <trkpt lat="45.15249" lon="5.2122">
        <ele>390.33599853516</ele>
        <time>2009-07-25T16:19:08Z</time>
      </trkpt>
      <trkpt lat="45.15228" lon="5.21227">
        <ele>391.32998657227</ele>
        <time>2009-07-25T16:19:12Z</time>
      </trkpt>
      <trkpt lat="45.15139" lon="5.21225">
        <ele>395.31100463867</ele>
        <time>2009-07-25T16:19:28Z</time>
      </trkpt>
      <trkpt lat="45.15039" lon="5.21206">
        <ele>399.5539855957</ele>
        <time>2009-07-25T16:19:46Z</time>
      </trkpt>
      <trkpt lat="45.1503" lon="5.21197">
        <ele>399.68099975586</ele>
        <time>2009-07-25T16:19:48Z</time>
      </trkpt>
      <trkpt lat="45.15011" lon="5.21167">
        <ele>401.30200195312</ele>
        <time>2009-07-25T16:19:53Z</time>
      </trkpt>
      <trkpt lat="45.1501" lon="5.21096">
        <ele>404.12701416016</ele>
        <time>2009-07-25T16:20:03Z</time>
      </trkpt>
      <trkpt lat="45.15013" lon="5.2109">
        <ele>404.32598876953</ele>
        <time>2009-07-25T16:20:04Z</time>
      </trkpt>
      <trkpt lat="45.15044" lon="5.21035">
        <ele>406.66299438477</ele>
        <time>2009-07-25T16:20:13Z</time>
      </trkpt>
      <trkpt lat="45.15047" lon="5.20956">
        <ele>410.1549987793</ele>
        <time>2009-07-25T16:20:24Z</time>
      </trkpt>
      <trkpt lat="45.15043" lon="5.20942">
        <ele>410.67300415039</ele>
        <time>2009-07-25T16:20:26Z</time>
      </trkpt>
      <trkpt lat="45.15044" lon="5.20884">
        <ele>412.87899780273</ele>
        <time>2009-07-25T16:20:34Z</time>
      </trkpt>
      <trkpt lat="45.15062" lon="5.20848">
        <ele>414.51599121094</ele>
        <time>2009-07-25T16:20:40Z</time>
      </trkpt>
      <trkpt lat="45.15074" lon="5.20824">
        <ele>415.69400024414</ele>
        <time>2009-07-25T16:20:44Z</time>
      </trkpt>
      <trkpt lat="45.15093" lon="5.20745">
        <ele>419.34698486328</ele>
        <time>2009-07-25T16:20:56Z</time>
      </trkpt>
      <trkpt lat="45.15097" lon="5.20732">
        <ele>420.11499023438</ele>
        <time>2009-07-25T16:20:58Z</time>
      </trkpt>
      <trkpt lat="45.15107" lon="5.20665">
        <ele>423.34100341797</ele>
        <time>2009-07-25T16:21:08Z</time>
      </trkpt>
      <trkpt lat="45.15083" lon="5.20651">
        <ele>424.87298583984</ele>
        <time>2009-07-25T16:21:13Z</time>
      </trkpt>
      <trkpt lat="45.15063" lon="5.20648">
        <ele>425.97100830078</ele>
        <time>2009-07-25T16:21:17Z</time>
      </trkpt>
      <trkpt lat="45.15023" lon="5.20635">
        <ele>428.51699829102</ele>
        <time>2009-07-25T16:21:25Z</time>
      </trkpt>
      <trkpt lat="45.15016" lon="5.2059">
        <ele>429.62600708008</ele>
        <time>2009-07-25T16:21:32Z</time>
      </trkpt>
      <trkpt lat="45.15019" lon="5.20583">
        <ele>429.69100952148</ele>
        <time>2009-07-25T16:21:33Z</time>
      </trkpt>
      <trkpt lat="45.15084" lon="5.20433">
        <ele>432.51699829102</ele>
        <time>2009-07-25T16:21:52Z</time>
      </trkpt>
      <trkpt lat="45.15079" lon="5.20366">
        <ele>433.08700561523</ele>
        <time>2009-07-25T16:21:59Z</time>
      </trkpt>
      <trkpt lat="45.15051" lon="5.20281">
        <ele>433.97698974609</ele>
        <time>2009-07-25T16:22:10Z</time>
      </trkpt>
      <trkpt lat="45.15064" lon="5.20257">
        <ele>433.34799194336</ele>
        <time>2009-07-25T16:22:17Z</time>
      </trkpt>
      <trkpt lat="45.15123" lon="5.20273">
        <ele>434.91101074219</ele>
        <time>2009-07-25T16:22:32Z</time>
      </trkpt>
      <trkpt lat="45.1519" lon="5.2029">
        <ele>436.60598754883</ele>
        <time>2009-07-25T16:22:47Z</time>
      </trkpt>
      <trkpt lat="45.152" lon="5.20293">
        <ele>436.36199951172</ele>
        <time>2009-07-25T16:22:49Z</time>
      </trkpt>
      <trkpt lat="45.15295" lon="5.20298">
        <ele>437.54598999023</ele>
        <time>2009-07-25T16:23:06Z</time>
      </trkpt>
      <trkpt lat="45.15391" lon="5.20263">
        <ele>440.21600341797</ele>
        <time>2009-07-25T16:23:23Z</time>
      </trkpt>
      <trkpt lat="45.15409" lon="5.20261">
        <ele>440.1789855957</ele>
        <time>2009-07-25T16:23:26Z</time>
      </trkpt>
      <trkpt lat="45.15482" lon="5.20302">
        <ele>441.48400878906</ele>
        <time>2009-07-25T16:23:39Z</time>
      </trkpt>
      <trkpt lat="45.15585" lon="5.20355">
        <ele>443.28698730469</ele>
        <time>2009-07-25T16:23:57Z</time>
      </trkpt>
      <trkpt lat="45.15631" lon="5.20369">
        <ele>445.26901245117</ele>
        <time>2009-07-25T16:24:05Z</time>
      </trkpt>
      <trkpt lat="45.15755" lon="5.20409">
        <ele>446.40600585938</ele>
        <time>2009-07-25T16:24:26Z</time>
      </trkpt>
      <trkpt lat="45.1579" lon="5.2042">
        <ele>446.61999511719</ele>
        <time>2009-07-25T16:24:32Z</time>
      </trkpt>
      <trkpt lat="45.15825" lon="5.20405">
        <ele>448.93301391602</ele>
        <time>2009-07-25T16:24:39Z</time>
      </trkpt>
      <trkpt lat="45.15902" lon="5.20314">
        <ele>454.31298828125</ele>
        <time>2009-07-25T16:25:00Z</time>
      </trkpt>
      <trkpt lat="45.15931" lon="5.20289">
        <ele>456.04098510742</ele>
        <time>2009-07-25T16:25:08Z</time>
      </trkpt>
      <trkpt lat="45.1594" lon="5.20285">
        <ele>456.51098632812</ele>
        <time>2009-07-25T16:25:10Z</time>
      </trkpt>
      <trkpt lat="45.15977" lon="5.20286">
        <ele>458.29598999023</ele>
        <time>2009-07-25T16:25:19Z</time>
      </trkpt>
      <trkpt lat="45.15995" lon="5.20288">
        <ele>459.93899536133</ele>
        <time>2009-07-25T16:25:23Z</time>
      </trkpt>
      <trkpt lat="45.16032" lon="5.20287">
        <ele>461.38598632812</ele>
        <time>2009-07-25T16:25:32Z</time>
      </trkpt>
      <trkpt lat="45.16115" lon="5.2027">
        <ele>464.78799438477</ele>
        <time>2009-07-25T16:25:51Z</time>
      </trkpt>
      <trkpt lat="45.1618" lon="5.20259">
        <ele>468.49200439453</ele>
        <time>2009-07-25T16:26:07Z</time>
      </trkpt>
      <trkpt lat="45.16221" lon="5.20252">
        <ele>470.47100830078</ele>
        <time>2009-07-25T16:26:17Z</time>
      </trkpt>
      <trkpt lat="45.16289" lon="5.20214">
        <ele>473.96701049805</ele>
        <time>2009-07-25T16:26:34Z</time>
      </trkpt>
      <trkpt lat="45.16306" lon="5.20188">
        <ele>475.5530090332</ele>
        <time>2009-07-25T16:26:42Z</time>
      </trkpt>
      <trkpt lat="45.16305" lon="5.20167">
        <ele>475.51699829102</ele>
        <time>2009-07-25T16:26:45Z</time>
      </trkpt>
      <trkpt lat="45.16317" lon="5.20049">
        <ele>473.99301147461</ele>
        <time>2009-07-25T16:26:59Z</time>
      </trkpt>
      <trkpt lat="45.16303" lon="5.19915">
        <ele>472.06500244141</ele>
        <time>2009-07-25T16:27:13Z</time>
      </trkpt>
      <trkpt lat="45.16301" lon="5.19895">
        <ele>471.65600585938</ele>
        <time>2009-07-25T16:27:15Z</time>
      </trkpt>
      <trkpt lat="45.16297" lon="5.19824">
        <ele>471.38400268555</ele>
        <time>2009-07-25T16:27:23Z</time>
      </trkpt>
      <trkpt lat="45.16297" lon="5.19816">
        <ele>471.56799316406</ele>
        <time>2009-07-25T16:27:24Z</time>
      </trkpt>
      <trkpt lat="45.16291" lon="5.19747">
        <ele>471.84298706055</ele>
        <time>2009-07-25T16:27:33Z</time>
      </trkpt>
      <trkpt lat="45.16284" lon="5.1968">
        <ele>470.72399902344</ele>
        <time>2009-07-25T16:27:41Z</time>
      </trkpt>
      <trkpt lat="45.16278" lon="5.19631">
        <ele>470.45199584961</ele>
        <time>2009-07-25T16:27:47Z</time>
      </trkpt>
      <trkpt lat="45.16274" lon="5.19581">
        <ele>470.29000854492</ele>
        <time>2009-07-25T16:27:53Z</time>
      </trkpt>
      <trkpt lat="45.16261" lon="5.19538">
        <ele>469.99099731445</ele>
        <time>2009-07-25T16:27:58Z</time>
      </trkpt>
      <trkpt lat="45.16225" lon="5.19489">
        <ele>469.09399414062</ele>
        <time>2009-07-25T16:28:04Z</time>
      </trkpt>
      <trkpt lat="45.16205" lon="5.19452">
        <ele>469.19900512695</ele>
        <time>2009-07-25T16:28:08Z</time>
      </trkpt>
      <trkpt lat="45.16135" lon="5.19302">
        <ele>469.59100341797</ele>
        <time>2009-07-25T16:28:23Z</time>
      </trkpt>
      <trkpt lat="45.16035" lon="5.19167">
        <ele>469.34399414062</ele>
        <time>2009-07-25T16:28:39Z</time>
      </trkpt>
      <trkpt lat="45.15996" lon="5.19088">
        <ele>470.35998535156</ele>
        <time>2009-07-25T16:28:47Z</time>
      </trkpt>
      <trkpt lat="45.16003" lon="5.19021">
        <ele>470.52600097656</ele>
        <time>2009-07-25T16:28:53Z</time>
      </trkpt>
      <trkpt lat="45.1605" lon="5.18863">
        <ele>471.76901245117</ele>
        <time>2009-07-25T16:29:08Z</time>
      </trkpt>
      <trkpt lat="45.16064" lon="5.18782">
        <ele>472.6369934082</ele>
        <time>2009-07-25T16:29:15Z</time>
      </trkpt>
      <trkpt lat="45.16059" lon="5.18711">
        <ele>473.34298706055</ele>
        <time>2009-07-25T16:29:21Z</time>
      </trkpt>
      <trkpt lat="45.16002" lon="5.18573">
        <ele>473.49600219727</ele>
        <time>2009-07-25T16:29:35Z</time>
      </trkpt>
      <trkpt lat="45.15986" lon="5.18548">
        <ele>472.79598999023</ele>
        <time>2009-07-25T16:29:38Z</time>
      </trkpt>
      <trkpt lat="45.15959" lon="5.18523">
        <ele>471.03399658203</ele>
        <time>2009-07-25T16:29:42Z</time>
      </trkpt>
      <trkpt lat="45.15944" lon="5.18515">
        <ele>470.74099731445</ele>
        <time>2009-07-25T16:29:44Z</time>
      </trkpt>
      <trkpt lat="45.15906" lon="5.18489">
        <ele>469.5830078125</ele>
        <time>2009-07-25T16:29:49Z</time>
      </trkpt>
      <trkpt lat="45.15872" lon="5.18446">
        <ele>467.83499145508</ele>
        <time>2009-07-25T16:29:54Z</time>
      </trkpt>
      <trkpt lat="45.15826" lon="5.18411">
        <ele>466.93701171875</ele>
        <time>2009-07-25T16:30:00Z</time>
      </trkpt>
      <trkpt lat="45.15812" lon="5.18347">
        <ele>465.22299194336</ele>
        <time>2009-07-25T16:30:06Z</time>
      </trkpt>
      <trkpt lat="45.15821" lon="5.18328">
        <ele>465.76300048828</ele>
        <time>2009-07-25T16:30:08Z</time>
      </trkpt>
      <trkpt lat="45.15863" lon="5.18259">
        <ele>465.61599731445</ele>
        <time>2009-07-25T16:30:16Z</time>
      </trkpt>
      <trkpt lat="45.15879" lon="5.18232">
        <ele>464.91101074219</ele>
        <time>2009-07-25T16:30:19Z</time>
      </trkpt>
      <trkpt lat="45.15901" lon="5.18166">
        <ele>464.2619934082</ele>
        <time>2009-07-25T16:30:25Z</time>
      </trkpt>
      <trkpt lat="45.15927" lon="5.18132">
        <ele>463.72900390625</ele>
        <time>2009-07-25T16:30:29Z</time>
      </trkpt>
      <trkpt lat="45.15966" lon="5.18021">
        <ele>462.82000732422</ele>
        <time>2009-07-25T16:30:39Z</time>
      </trkpt>
      <trkpt lat="45.15974" lon="5.17985">
        <ele>462.62799072266</ele>
        <time>2009-07-25T16:30:42Z</time>
      </trkpt>
      <trkpt lat="45.15983" lon="5.17865">
        <ele>461.45901489258</ele>
        <time>2009-07-25T16:30:51Z</time>
      </trkpt>
      <trkpt lat="45.16007" lon="5.17733">
        <ele>459.05999755859</ele>
        <time>2009-07-25T16:31:01Z</time>
      </trkpt>
      <trkpt lat="45.15996" lon="5.17665">
        <ele>458.49301147461</ele>
        <time>2009-07-25T16:31:06Z</time>
      </trkpt>
      <trkpt lat="45.15962" lon="5.17579">
        <ele>456.69400024414</ele>
        <time>2009-07-25T16:31:13Z</time>
      </trkpt>
      <trkpt lat="45.1595" lon="5.17527">
        <ele>455.76998901367</ele>
        <time>2009-07-25T16:31:17Z</time>
      </trkpt>
      <trkpt lat="45.15905" lon="5.17292">
        <ele>450.59100341797</ele>
        <time>2009-07-25T16:31:34Z</time>
      </trkpt>
      <trkpt lat="45.15905" lon="5.17168">
        <ele>446.98400878906</ele>
        <time>2009-07-25T16:31:43Z</time>
      </trkpt>
      <trkpt lat="45.15898" lon="5.17096">
        <ele>445.32998657227</ele>
        <time>2009-07-25T16:31:48Z</time>
      </trkpt>
      <trkpt lat="45.15878" lon="5.16966">
        <ele>443.00500488281</ele>
        <time>2009-07-25T16:31:57Z</time>
      </trkpt>
      <trkpt lat="45.1582" lon="5.16702">
        <ele>437.56500244141</ele>
        <time>2009-07-25T16:32:15Z</time>
      </trkpt>
      <trkpt lat="45.15813" lon="5.16656">
        <ele>436.83200073242</ele>
        <time>2009-07-25T16:32:18Z</time>
      </trkpt>
      <trkpt lat="45.15822" lon="5.16564">
        <ele>434.73199462891</ele>
        <time>2009-07-25T16:32:24Z</time>
      </trkpt>
      <trkpt lat="45.15826" lon="5.16517">
        <ele>434.51599121094</ele>
        <time>2009-07-25T16:32:27Z</time>
      </trkpt>
      <trkpt lat="45.15808" lon="5.16313">
        <ele>430.92001342773</ele>
        <time>2009-07-25T16:32:40Z</time>
      </trkpt>
      <trkpt lat="45.15808" lon="5.16058">
        <ele>426.21798706055</ele>
        <time>2009-07-25T16:32:56Z</time>
      </trkpt>
      <trkpt lat="45.15804" lon="5.16026">
        <ele>425.30599975586</ele>
        <time>2009-07-25T16:32:58Z</time>
      </trkpt>
      <trkpt lat="45.15757" lon="5.15879">
        <ele>422.11401367188</ele>
        <time>2009-07-25T16:33:08Z</time>
      </trkpt>
      <trkpt lat="45.15699" lon="5.15748">
        <ele>419.57598876953</ele>
        <time>2009-07-25T16:33:18Z</time>
      </trkpt>
      <trkpt lat="45.15691" lon="5.15718">
        <ele>418.7080078125</ele>
        <time>2009-07-25T16:33:20Z</time>
      </trkpt>
      <trkpt lat="45.15664" lon="5.15496">
        <ele>413.63299560547</ele>
        <time>2009-07-25T16:33:35Z</time>
      </trkpt>
      <trkpt lat="45.15662" lon="5.15436">
        <ele>412.38299560547</ele>
        <time>2009-07-25T16:33:39Z</time>
      </trkpt>
      <trkpt lat="45.15633" lon="5.15269">
        <ele>407.22299194336</ele>
        <time>2009-07-25T16:33:50Z</time>
      </trkpt>
      <trkpt lat="45.15613" lon="5.15017">
        <ele>398.30999755859</ele>
        <time>2009-07-25T16:34:05Z</time>
      </trkpt>
      <trkpt lat="45.15558" lon="5.14869">
        <ele>388.49700927734</ele>
        <time>2009-07-25T16:34:14Z</time>
      </trkpt>
      <trkpt lat="45.15542" lon="5.14838">
        <ele>387.11199951172</ele>
        <time>2009-07-25T16:34:16Z</time>
      </trkpt>
      <trkpt lat="45.15479" lon="5.14725">
        <ele>385.29998779297</ele>
        <time>2009-07-25T16:34:24Z</time>
      </trkpt>
      <trkpt lat="45.15398" lon="5.14609">
        <ele>380.73699951172</ele>
        <time>2009-07-25T16:34:34Z</time>
      </trkpt>
      <trkpt lat="45.15339" lon="5.14487">
        <ele>380.47900390625</ele>
        <time>2009-07-25T16:34:44Z</time>
      </trkpt>
      <trkpt lat="45.15337" lon="5.14348">
        <ele>378.79400634766</ele>
        <time>2009-07-25T16:34:54Z</time>
      </trkpt>
      <trkpt lat="45.15376" lon="5.14159">
        <ele>373.18798828125</ele>
        <time>2009-07-25T16:35:07Z</time>
      </trkpt>
      <trkpt lat="45.15395" lon="5.14123">
        <ele>372.08599853516</ele>
        <time>2009-07-25T16:35:10Z</time>
      </trkpt>
      <trkpt lat="45.15409" lon="5.14025">
        <ele>371.15798950195</ele>
        <time>2009-07-25T16:35:17Z</time>
      </trkpt>
      <trkpt lat="45.15385" lon="5.13887">
        <ele>368.53399658203</ele>
        <time>2009-07-25T16:35:26Z</time>
      </trkpt>
      <trkpt lat="45.15363" lon="5.13734">
        <ele>365.60501098633</ele>
        <time>2009-07-25T16:35:36Z</time>
      </trkpt>
      <trkpt lat="45.15338" lon="5.13587">
        <ele>362.84399414062</ele>
        <time>2009-07-25T16:35:46Z</time>
      </trkpt>
      <trkpt lat="45.15278" lon="5.1342">
        <ele>358.13299560547</ele>
        <time>2009-07-25T16:35:58Z</time>
      </trkpt>
      <trkpt lat="45.15212" lon="5.13292">
        <ele>356.06698608398</ele>
        <time>2009-07-25T16:36:08Z</time>
      </trkpt>
      <trkpt lat="45.152" lon="5.13266">
        <ele>355.76300048828</ele>
        <time>2009-07-25T16:36:10Z</time>
      </trkpt>
      <trkpt lat="45.151" lon="5.13074">
        <ele>354.66000366211</ele>
        <time>2009-07-25T16:36:26Z</time>
      </trkpt>
      <trkpt lat="45.1507" lon="5.13014">
        <ele>354.2200012207</ele>
        <time>2009-07-25T16:36:31Z</time>
      </trkpt>
      <trkpt lat="45.15052" lon="5.12976">
        <ele>353.77301025391</ele>
        <time>2009-07-25T16:36:34Z</time>
      </trkpt>
      <trkpt lat="45.14971" lon="5.12815">
        <ele>349.80700683594</ele>
        <time>2009-07-25T16:36:46Z</time>
      </trkpt>
      <trkpt lat="45.14919" lon="5.12713">
        <ele>344.8869934082</ele>
        <time>2009-07-25T16:36:53Z</time>
      </trkpt>
      <trkpt lat="45.1477" lon="5.12454">
        <ele>337.23199462891</ele>
        <time>2009-07-25T16:37:12Z</time>
      </trkpt>
      <trkpt lat="45.14638" lon="5.12304">
        <ele>334.62701416016</ele>
        <time>2009-07-25T16:37:27Z</time>
      </trkpt>
      <trkpt lat="45.14604" lon="5.12279">
        <ele>335.2380065918</ele>
        <time>2009-07-25T16:37:31Z</time>
      </trkpt>
      <trkpt lat="45.14578" lon="5.12266">
        <ele>335.96899414062</ele>
        <time>2009-07-25T16:37:34Z</time>
      </trkpt>
      <trkpt lat="45.1451" lon="5.12197">
        <ele>336.95199584961</ele>
        <time>2009-07-25T16:37:44Z</time>
      </trkpt>
      <trkpt lat="45.14481" lon="5.12158">
        <ele>336.76000976562</ele>
        <time>2009-07-25T16:37:49Z</time>
      </trkpt>
      <trkpt lat="45.14472" lon="5.12141">
        <ele>336.48901367188</ele>
        <time>2009-07-25T16:37:51Z</time>
      </trkpt>
      <trkpt lat="45.14405" lon="5.12046">
        <ele>337.0119934082</ele>
        <time>2009-07-25T16:38:04Z</time>
      </trkpt>
      <trkpt lat="45.14389" lon="5.12023">
        <ele>336.9469909668</ele>
        <time>2009-07-25T16:38:07Z</time>
      </trkpt>
      <trkpt lat="45.14272" lon="5.11925">
        <ele>335.25399780273</ele>
        <time>2009-07-25T16:38:23Z</time>
      </trkpt>
      <trkpt lat="45.14123" lon="5.11804">
        <ele>332.54000854492</ele>
        <time>2009-07-25T16:38:40Z</time>
      </trkpt>
      <trkpt lat="45.13913" lon="5.11636">
        <ele>327.95098876953</ele>
        <time>2009-07-25T16:39:01Z</time>
      </trkpt>
      <trkpt lat="45.13711" lon="5.11473">
        <ele>320.46301269531</ele>
        <time>2009-07-25T16:39:19Z</time>
      </trkpt>
      <trkpt lat="45.13622" lon="5.11401">
        <ele>317.81799316406</ele>
        <time>2009-07-25T16:39:27Z</time>
      </trkpt>
      <trkpt lat="45.13409" lon="5.11233">
        <ele>313.58999633789</ele>
        <time>2009-07-25T16:39:46Z</time>
      </trkpt>
      <trkpt lat="45.13367" lon="5.11197">
        <ele>315.16500854492</ele>
        <time>2009-07-25T16:39:50Z</time>
      </trkpt>
      <trkpt lat="45.13303" lon="5.11142">
        <ele>313.29400634766</ele>
        <time>2009-07-25T16:39:56Z</time>
      </trkpt>
      <trkpt lat="45.13243" lon="5.11084">
        <ele>311.67401123047</ele>
        <time>2009-07-25T16:40:02Z</time>
      </trkpt>
      <trkpt lat="45.13137" lon="5.10981">
        <ele>306.29501342773</ele>
        <time>2009-07-25T16:40:12Z</time>
      </trkpt>
      <trkpt lat="45.13042" lon="5.10889">
        <ele>303</ele>
        <time>2009-07-25T16:40:21Z</time>
      </trkpt>
      <trkpt lat="45.12944" lon="5.10794">
        <ele>299.07400512695</ele>
        <time>2009-07-25T16:40:30Z</time>
      </trkpt>
      <trkpt lat="45.12806" lon="5.10705">
        <ele>296.95599365234</ele>
        <time>2009-07-25T16:40:42Z</time>
      </trkpt>
      <trkpt lat="45.1272" lon="5.10699">
        <ele>294.94000244141</ele>
        <time>2009-07-25T16:40:49Z</time>
      </trkpt>
      <trkpt lat="45.12618" lon="5.10695">
        <ele>291.7619934082</ele>
        <time>2009-07-25T16:40:57Z</time>
      </trkpt>
      <trkpt lat="45.12428" lon="5.1072">
        <ele>287.71899414062</ele>
        <time>2009-07-25T16:41:12Z</time>
      </trkpt>
      <trkpt lat="45.12291" lon="5.10758">
        <ele>288.13900756836</ele>
        <time>2009-07-25T16:41:24Z</time>
      </trkpt>
      <trkpt lat="45.12268" lon="5.10768">
        <ele>288.28799438477</ele>
        <time>2009-07-25T16:41:26Z</time>
      </trkpt>
      <trkpt lat="45.12181" lon="5.1076">
        <ele>288.22299194336</ele>
        <time>2009-07-25T16:41:34Z</time>
      </trkpt>
      <trkpt lat="45.11994" lon="5.10613">
        <ele>288.15600585938</ele>
        <time>2009-07-25T16:41:54Z</time>
      </trkpt>
      <trkpt lat="45.11978" lon="5.10593">
        <ele>287.42199707031</ele>
        <time>2009-07-25T16:41:56Z</time>
      </trkpt>
      <trkpt lat="45.11903" lon="5.10437">
        <ele>285.29400634766</ele>
        <time>2009-07-25T16:42:08Z</time>
      </trkpt>
      <trkpt lat="45.11792" lon="5.10261">
        <ele>282.64001464844</ele>
        <time>2009-07-25T16:42:23Z</time>
      </trkpt>
      <trkpt lat="45.11703" lon="5.10048">
        <ele>279.98001098633</ele>
        <time>2009-07-25T16:42:38Z</time>
      </trkpt>
      <trkpt lat="45.1167" lon="5.09977">
        <ele>278.25698852539</ele>
        <time>2009-07-25T16:42:43Z</time>
      </trkpt>
      <trkpt lat="45.11553" lon="5.09809">
        <ele>276.99200439453</ele>
        <time>2009-07-25T16:42:57Z</time>
      </trkpt>
      <trkpt lat="45.11463" lon="5.09738">
        <ele>275.58599853516</ele>
        <time>2009-07-25T16:43:06Z</time>
      </trkpt>
      <trkpt lat="45.11361" lon="5.09679">
        <ele>274.3039855957</ele>
        <time>2009-07-25T16:43:15Z</time>
      </trkpt>
      <trkpt lat="45.11176" lon="5.09584">
        <ele>269.42001342773</ele>
        <time>2009-07-25T16:43:30Z</time>
      </trkpt>
      <trkpt lat="45.11111" lon="5.09563">
        <ele>266.74798583984</ele>
        <time>2009-07-25T16:43:35Z</time>
      </trkpt>
      <trkpt lat="45.11046" lon="5.09545">
        <ele>265.16400146484</ele>
        <time>2009-07-25T16:43:40Z</time>
      </trkpt>
      <trkpt lat="45.10969" lon="5.09533">
        <ele>262.46301269531</ele>
        <time>2009-07-25T16:43:46Z</time>
      </trkpt>
      <trkpt lat="45.10956" lon="5.09532">
        <ele>262.87899780273</ele>
        <time>2009-07-25T16:43:47Z</time>
      </trkpt>
      <trkpt lat="45.1088" lon="5.09544">
        <ele>260.34698486328</ele>
        <time>2009-07-25T16:43:53Z</time>
      </trkpt>
      <trkpt lat="45.10786" lon="5.09618">
        <ele>259.53399658203</ele>
        <time>2009-07-25T16:44:02Z</time>
      </trkpt>
      <trkpt lat="45.10733" lon="5.09664">
        <ele>257.7919921875</ele>
        <time>2009-07-25T16:44:07Z</time>
      </trkpt>
      <trkpt lat="45.10697" lon="5.0968">
        <ele>256.44900512695</ele>
        <time>2009-07-25T16:44:10Z</time>
      </trkpt>
      <trkpt lat="45.10596" lon="5.09681">
        <ele>256.44299316406</ele>
        <time>2009-07-25T16:44:18Z</time>
      </trkpt>
      <trkpt lat="45.10498" lon="5.09675">
        <ele>256.46301269531</ele>
        <time>2009-07-25T16:44:26Z</time>
      </trkpt>
      <trkpt lat="45.10403" lon="5.09671">
        <ele>257.85900878906</ele>
        <time>2009-07-25T16:44:34Z</time>
      </trkpt>
      <trkpt lat="45.10339" lon="5.09666">
        <ele>260.60501098633</ele>
        <time>2009-07-25T16:44:40Z</time>
      </trkpt>
      <trkpt lat="45.10297" lon="5.09642">
        <ele>262.47198486328</ele>
        <time>2009-07-25T16:44:45Z</time>
      </trkpt>
      <trkpt lat="45.10271" lon="5.09612">
        <ele>264.76800537109</ele>
        <time>2009-07-25T16:44:49Z</time>
      </trkpt>
      <trkpt lat="45.10213" lon="5.09548">
        <ele>269.33401489258</ele>
        <time>2009-07-25T16:44:58Z</time>
      </trkpt>
      <trkpt lat="45.10162" lon="5.09504">
        <ele>272.19799804688</ele>
        <time>2009-07-25T16:45:05Z</time>
      </trkpt>
      <trkpt lat="45.10097" lon="5.09448">
        <ele>273.05200195312</ele>
        <time>2009-07-25T16:45:13Z</time>
      </trkpt>
      <trkpt lat="45.09965" lon="5.09338">
        <ele>273.69198608398</ele>
        <time>2009-07-25T16:45:28Z</time>
      </trkpt>
      <trkpt lat="45.09795" lon="5.09194">
        <ele>270.78100585938</ele>
        <time>2009-07-25T16:45:46Z</time>
      </trkpt>
      <trkpt lat="45.09652" lon="5.09078">
        <ele>262.68701171875</ele>
        <time>2009-07-25T16:45:59Z</time>
      </trkpt>
      <trkpt lat="45.0964" lon="5.09069">
        <ele>262.02600097656</ele>
        <time>2009-07-25T16:46:00Z</time>
      </trkpt>
      <trkpt lat="45.09562" lon="5.09057">
        <ele>259.50500488281</ele>
        <time>2009-07-25T16:46:06Z</time>
      </trkpt>
      <trkpt lat="45.09498" lon="5.08998">
        <ele>255.28799438477</ele>
        <time>2009-07-25T16:46:12Z</time>
      </trkpt>
      <trkpt lat="45.09491" lon="5.0894">
        <ele>250.94599914551</ele>
        <time>2009-07-25T16:46:15Z</time>
      </trkpt>
      <trkpt lat="45.09491" lon="5.08882">
        <ele>249.26300048828</ele>
        <time>2009-07-25T16:46:18Z</time>
      </trkpt>
      <trkpt lat="45.09491" lon="5.08863">
        <ele>248.88200378418</ele>
        <time>2009-07-25T16:46:19Z</time>
      </trkpt>
      <trkpt lat="45.09449" lon="5.08798">
        <ele>244.24499511719</ele>
        <time>2009-07-25T16:46:24Z</time>
      </trkpt>
      <trkpt lat="45.09422" lon="5.08799">
        <ele>243.09800720215</ele>
        <time>2009-07-25T16:46:26Z</time>
      </trkpt>
      <trkpt lat="45.09381" lon="5.08804">
        <ele>240.05999755859</ele>
        <time>2009-07-25T16:46:29Z</time>
      </trkpt>
      <trkpt lat="45.09314" lon="5.08784">
        <ele>236.14599609375</ele>
        <time>2009-07-25T16:46:34Z</time>
      </trkpt>
      <trkpt lat="45.09249" lon="5.08742">
        <ele>231.90600585938</ele>
        <time>2009-07-25T16:46:39Z</time>
      </trkpt>
      <trkpt lat="45.09235" lon="5.08735">
        <ele>231.78999328613</ele>
        <time>2009-07-25T16:46:40Z</time>
      </trkpt>
      <trkpt lat="45.09109" lon="5.08689">
        <ele>223.0299987793</ele>
        <time>2009-07-25T16:46:49Z</time>
      </trkpt>
      <trkpt lat="45.09081" lon="5.08682">
        <ele>221.45899963379</ele>
        <time>2009-07-25T16:46:51Z</time>
      </trkpt>
      <trkpt lat="45.08965" lon="5.0865">
        <ele>215.18899536133</ele>
        <time>2009-07-25T16:46:59Z</time>
      </trkpt>
      <trkpt lat="45.08799" lon="5.08605">
        <ele>206.89799499512</ele>
        <time>2009-07-25T16:47:10Z</time>
      </trkpt>
      <trkpt lat="45.08776" lon="5.08595">
        <ele>206.73100280762</ele>
        <time>2009-07-25T16:47:12Z</time>
      </trkpt>
      <trkpt lat="45.08748" lon="5.08535">
        <ele>205.86199951172</ele>
        <time>2009-07-25T16:47:17Z</time>
      </trkpt>
      <trkpt lat="45.08749" lon="5.08506">
        <ele>206.43899536133</ele>
        <time>2009-07-25T16:47:19Z</time>
      </trkpt>
      <trkpt lat="45.08758" lon="5.08438">
        <ele>208.73500061035</ele>
        <time>2009-07-25T16:47:25Z</time>
      </trkpt>
      <trkpt lat="45.08764" lon="5.08394">
        <ele>210.06500244141</ele>
        <time>2009-07-25T16:47:30Z</time>
      </trkpt>
      <trkpt lat="45.0877" lon="5.08358">
        <ele>212.05200195312</ele>
        <time>2009-07-25T16:47:35Z</time>
      </trkpt>
      <trkpt lat="45.08782" lon="5.08287">
        <ele>214.94599914551</ele>
        <time>2009-07-25T16:47:46Z</time>
      </trkpt>
      <trkpt lat="45.08798" lon="5.08176">
        <ele>218.93099975586</ele>
        <time>2009-07-25T16:48:03Z</time>
      </trkpt>
      <trkpt lat="45.08809" lon="5.08123">
        <ele>220.59300231934</ele>
        <time>2009-07-25T16:48:11Z</time>
      </trkpt>
      <trkpt lat="45.08817" lon="5.08082">
        <ele>221.75100708008</ele>
        <time>2009-07-25T16:48:17Z</time>
      </trkpt>
      <trkpt lat="45.08832" lon="5.08002">
        <ele>223.89799499512</ele>
        <time>2009-07-25T16:48:29Z</time>
      </trkpt>
      <trkpt lat="45.08841" lon="5.07957">
        <ele>225.37699890137</ele>
        <time>2009-07-25T16:48:36Z</time>
      </trkpt>
      <trkpt lat="45.08855" lon="5.07901">
        <ele>227.01899719238</ele>
        <time>2009-07-25T16:48:45Z</time>
      </trkpt>
      <trkpt lat="45.08863" lon="5.07887">
        <ele>228.2440032959</ele>
        <time>2009-07-25T16:48:48Z</time>
      </trkpt>
      <trkpt lat="45.08866" lon="5.07882">
        <ele>228.50300598144</ele>
        <time>2009-07-25T16:48:49Z</time>
      </trkpt>
      <trkpt lat="45.08889" lon="5.07849">
        <ele>229.67599487305</ele>
        <time>2009-07-25T16:48:56Z</time>
      </trkpt>
      <trkpt lat="45.08901" lon="5.07838">
        <ele>230.07000732422</ele>
        <time>2009-07-25T16:48:59Z</time>
      </trkpt>
      <trkpt lat="45.08984" lon="5.07788">
        <ele>232.36599731445</ele>
        <time>2009-07-25T16:49:17Z</time>
      </trkpt>
      <trkpt lat="45.09052" lon="5.07736">
        <ele>233.75100708008</ele>
        <time>2009-07-25T16:49:32Z</time>
      </trkpt>
      <trkpt lat="45.09111" lon="5.07677">
        <ele>231.49800109863</ele>
        <time>2009-07-25T16:49:43Z</time>
      </trkpt>
      <trkpt lat="45.09163" lon="5.07588">
        <ele>229.26600646973</ele>
        <time>2009-07-25T16:49:54Z</time>
      </trkpt>
      <trkpt lat="45.092" lon="5.07512">
        <ele>227.13800048828</ele>
        <time>2009-07-25T16:50:02Z</time>
      </trkpt>
      <trkpt lat="45.09237" lon="5.07435">
        <ele>225.42399597168</ele>
        <time>2009-07-25T16:50:10Z</time>
      </trkpt>
      <trkpt lat="45.09287" lon="5.07331">
        <ele>223.26600646973</ele>
        <time>2009-07-25T16:50:21Z</time>
      </trkpt>
      <trkpt lat="45.09291" lon="5.07322">
        <ele>223.21200561523</ele>
        <time>2009-07-25T16:50:22Z</time>
      </trkpt>
      <trkpt lat="45.09323" lon="5.07252">
        <ele>225.11700439453</ele>
        <time>2009-07-25T16:50:31Z</time>
      </trkpt>
      <trkpt lat="45.09345" lon="5.07212">
        <ele>225.88800048828</ele>
        <time>2009-07-25T16:50:37Z</time>
      </trkpt>
      <trkpt lat="45.09368" lon="5.07196">
        <ele>225.70100402832</ele>
        <time>2009-07-25T16:50:41Z</time>
      </trkpt>
      <trkpt lat="45.09395" lon="5.07138">
        <ele>224.99699401856</ele>
        <time>2009-07-25T16:50:49Z</time>
      </trkpt>
      <trkpt lat="45.09395" lon="5.07127">
        <ele>224.68499755859</ele>
        <time>2009-07-25T16:50:50Z</time>
      </trkpt>
      <trkpt lat="45.09393" lon="5.07082">
        <ele>223.00100708008</ele>
        <time>2009-07-25T16:50:54Z</time>
      </trkpt>
      <trkpt lat="45.09381" lon="5.06909">
        <ele>220.02699279785</ele>
        <time>2009-07-25T16:51:09Z</time>
      </trkpt>
      <trkpt lat="45.09373" lon="5.06727">
        <ele>219.18899536133</ele>
        <time>2009-07-25T16:51:24Z</time>
      </trkpt>
      <trkpt lat="45.09387" lon="5.06527">
        <ele>217.2380065918</ele>
        <time>2009-07-25T16:51:40Z</time>
      </trkpt>
      <trkpt lat="45.09376" lon="5.0631">
        <ele>216.78100585938</ele>
        <time>2009-07-25T16:51:57Z</time>
      </trkpt>
      <trkpt lat="45.09371" lon="5.06129">
        <ele>214.35800170898</ele>
        <time>2009-07-25T16:52:11Z</time>
      </trkpt>
      <trkpt lat="45.09381" lon="5.05942">
        <ele>213.07400512695</ele>
        <time>2009-07-25T16:52:26Z</time>
      </trkpt>
      <trkpt lat="45.09409" lon="5.05804">
        <ele>213.51300048828</ele>
        <time>2009-07-25T16:52:38Z</time>
      </trkpt>
      <trkpt lat="45.09439" lon="5.05635">
        <ele>215.43200683594</ele>
        <time>2009-07-25T16:52:54Z</time>
      </trkpt>
      <trkpt lat="45.09439" lon="5.0555">
        <ele>215.99299621582</ele>
        <time>2009-07-25T16:53:02Z</time>
      </trkpt>
      <trkpt lat="45.09411" lon="5.05363">
        <ele>215.25999450684</ele>
        <time>2009-07-25T16:53:19Z</time>
      </trkpt>
      <trkpt lat="45.09343" lon="5.05234">
        <ele>214.09700012207</ele>
        <time>2009-07-25T16:53:32Z</time>
      </trkpt>
      <trkpt lat="45.0928" lon="5.05126">
        <ele>214.24600219727</ele>
        <time>2009-07-25T16:53:44Z</time>
      </trkpt>
      <trkpt lat="45.09245" lon="5.05034">
        <ele>212.07600402832</ele>
        <time>2009-07-25T16:53:53Z</time>
      </trkpt>
      <trkpt lat="45.09245" lon="5.0497">
        <ele>210.22200012207</ele>
        <time>2009-07-25T16:53:58Z</time>
      </trkpt>
      <trkpt lat="45.09266" lon="5.04943">
        <ele>209.63999938965</ele>
        <time>2009-07-25T16:54:01Z</time>
      </trkpt>
      <trkpt lat="45.09302" lon="5.04889">
        <ele>208.35699462891</ele>
        <time>2009-07-25T16:54:07Z</time>
      </trkpt>
      <trkpt lat="45.09312" lon="5.04801">
        <ele>208.22700500488</ele>
        <time>2009-07-25T16:54:16Z</time>
      </trkpt>
      <trkpt lat="45.09312" lon="5.04798">
        <ele>208.39399719238</ele>
        <time>2009-07-25T16:54:17Z</time>
      </trkpt>
      <trkpt lat="45.09325" lon="5.048">
        <ele>208.0890045166</ele>
        <time>2009-07-25T16:54:25Z</time>
      </trkpt>
      <trkpt lat="45.0933" lon="5.04791">
        <ele>208.01300048828</ele>
        <time>2009-07-25T16:54:29Z</time>
      </trkpt>
      <trkpt lat="45.09342" lon="5.04772">
        <ele>208.58999633789</ele>
        <time>2009-07-25T16:54:42Z</time>
      </trkpt>
      <trkpt lat="45.09342" lon="5.04772">
        <ele>208.52499389648</ele>
        <time>2009-07-25T16:54:43Z</time>
      </trkpt>
      <trkpt lat="45.09338" lon="5.04737">
        <ele>208.81900024414</ele>
        <time>2009-07-25T16:55:25Z</time>
      </trkpt>
      <trkpt lat="45.09345" lon="5.04717">
        <ele>208.58399963379</ele>
        <time>2009-07-25T16:55:29Z</time>
      </trkpt>
      <trkpt lat="45.09351" lon="5.0471">
        <ele>208.49200439453</ele>
        <time>2009-07-25T16:55:31Z</time>
      </trkpt>
      <trkpt lat="45.09388" lon="5.04688">
        <ele>210.04200744629</ele>
        <time>2009-07-25T16:55:40Z</time>
      </trkpt>
      <trkpt lat="45.09426" lon="5.04671">
        <ele>210.20199584961</ele>
        <time>2009-07-25T16:55:48Z</time>
      </trkpt>
      <trkpt lat="45.09456" lon="5.0466">
        <ele>210.62699890137</ele>
        <time>2009-07-25T16:55:54Z</time>
      </trkpt>
      <trkpt lat="45.0946" lon="5.04657">
        <ele>210.55999755859</ele>
        <time>2009-07-25T16:55:55Z</time>
      </trkpt>
      <trkpt lat="45.09495" lon="5.04643">
        <ele>211.81900024414</ele>
        <time>2009-07-25T16:56:01Z</time>
      </trkpt>
      <trkpt lat="45.09546" lon="5.04616">
        <ele>213.27200317383</ele>
        <time>2009-07-25T16:56:10Z</time>
      </trkpt>
      <trkpt lat="45.09584" lon="5.04584">
        <ele>213.97200012207</ele>
        <time>2009-07-25T16:56:17Z</time>
      </trkpt>
      <trkpt lat="45.09597" lon="5.04546">
        <ele>214.43099975586</ele>
        <time>2009-07-25T16:56:22Z</time>
      </trkpt>
      <trkpt lat="45.09627" lon="5.04493">
        <ele>216.61700439453</ele>
        <time>2009-07-25T16:56:31Z</time>
      </trkpt>
      <trkpt lat="45.09627" lon="5.04468">
        <ele>217.16700744629</ele>
        <time>2009-07-25T16:56:34Z</time>
      </trkpt>
      <trkpt lat="45.09673" lon="5.04346">
        <ele>218.55099487305</ele>
        <time>2009-07-25T16:56:50Z</time>
      </trkpt>
      <trkpt lat="45.09745" lon="5.04267">
        <ele>216.57099914551</ele>
        <time>2009-07-25T16:57:02Z</time>
      </trkpt>
      <trkpt lat="45.09858" lon="5.04149">
        <ele>215.49800109863</ele>
        <time>2009-07-25T16:57:20Z</time>
      </trkpt>
      <trkpt lat="45.09874" lon="5.04113">
        <ele>215.51300048828</ele>
        <time>2009-07-25T16:57:24Z</time>
      </trkpt>
      <trkpt lat="45.09895" lon="5.04019">
        <ele>215.46299743652</ele>
        <time>2009-07-25T16:57:33Z</time>
      </trkpt>
      <trkpt lat="45.09884" lon="5.03956">
        <ele>216.00199890137</ele>
        <time>2009-07-25T16:57:39Z</time>
      </trkpt>
      <trkpt lat="45.09819" lon="5.03784">
        <ele>216.1549987793</ele>
        <time>2009-07-25T16:57:57Z</time>
      </trkpt>
      <trkpt lat="45.09795" lon="5.03651">
        <ele>219.2799987793</ele>
        <time>2009-07-25T16:58:11Z</time>
      </trkpt>
      <trkpt lat="45.09793" lon="5.03624">
        <ele>219.39300537109</ele>
        <time>2009-07-25T16:58:14Z</time>
      </trkpt>
      <trkpt lat="45.09816" lon="5.03548">
        <ele>217.38000488281</ele>
        <time>2009-07-25T16:58:22Z</time>
      </trkpt>
      <trkpt lat="45.09905" lon="5.03404">
        <ele>217.80299377441</ele>
        <time>2009-07-25T16:58:39Z</time>
      </trkpt>
      <trkpt lat="45.09939" lon="5.03285">
        <ele>221.70799255371</ele>
        <time>2009-07-25T16:58:53Z</time>
      </trkpt>
      <trkpt lat="45.09959" lon="5.03215">
        <ele>224.83599853516</ele>
        <time>2009-07-25T16:59:02Z</time>
      </trkpt>
      <trkpt lat="45.09983" lon="5.03135">
        <ele>226.50900268555</ele>
        <time>2009-07-25T16:59:12Z</time>
      </trkpt>
      <trkpt lat="45.1002" lon="5.03003">
        <ele>229.68499755859</ele>
        <time>2009-07-25T16:59:29Z</time>
      </trkpt>
      <trkpt lat="45.10056" lon="5.02874">
        <ele>235.41700744629</ele>
        <time>2009-07-25T16:59:49Z</time>
      </trkpt>
      <trkpt lat="45.10067" lon="5.0283">
        <ele>237.49600219727</ele>
        <time>2009-07-25T16:59:57Z</time>
      </trkpt>
      <trkpt lat="45.10074" lon="5.02809">
        <ele>238.9109954834</ele>
        <time>2009-07-25T17:00:01Z</time>
      </trkpt>
      <trkpt lat="45.10072" lon="5.02749">
        <ele>241.23300170898</ele>
        <time>2009-07-25T17:00:11Z</time>
      </trkpt>
      <trkpt lat="45.10058" lon="5.02724">
        <ele>243.07400512695</ele>
        <time>2009-07-25T17:00:16Z</time>
      </trkpt>
      <trkpt lat="45.10046" lon="5.02707">
        <ele>243.85000610352</ele>
        <time>2009-07-25T17:00:20Z</time>
      </trkpt>
      <trkpt lat="45.10013" lon="5.02667">
        <ele>246.52799987793</ele>
        <time>2009-07-25T17:00:31Z</time>
      </trkpt>
      <trkpt lat="45.09988" lon="5.02616">
        <ele>249.17399597168</ele>
        <time>2009-07-25T17:00:42Z</time>
      </trkpt>
      <trkpt lat="45.09978" lon="5.02586">
        <ele>250.99899291992</ele>
        <time>2009-07-25T17:00:48Z</time>
      </trkpt>
      <trkpt lat="45.09948" lon="5.02541">
        <ele>253.05499267578</ele>
        <time>2009-07-25T17:00:59Z</time>
      </trkpt>
      <trkpt lat="45.09919" lon="5.02501">
        <ele>255.89399719238</ele>
        <time>2009-07-25T17:01:09Z</time>
      </trkpt>
      <trkpt lat="45.09912" lon="5.02483">
        <ele>257.32998657227</ele>
        <time>2009-07-25T17:01:12Z</time>
      </trkpt>
      <trkpt lat="45.09903" lon="5.0246">
        <ele>258.52801513672</ele>
        <time>2009-07-25T17:01:16Z</time>
      </trkpt>
      <trkpt lat="45.09873" lon="5.02367">
        <ele>260.88299560547</ele>
        <time>2009-07-25T17:01:30Z</time>
      </trkpt>
      <trkpt lat="45.09864" lon="5.02331">
        <ele>259.3210144043</ele>
        <time>2009-07-25T17:01:34Z</time>
      </trkpt>
      <trkpt lat="45.09857" lon="5.02299">
        <ele>257.45498657227</ele>
        <time>2009-07-25T17:01:37Z</time>
      </trkpt>
      <trkpt lat="45.09853" lon="5.02275">
        <ele>255.67599487305</ele>
        <time>2009-07-25T17:01:39Z</time>
      </trkpt>
      <trkpt lat="45.09862" lon="5.02206">
        <ele>251.93699645996</ele>
        <time>2009-07-25T17:01:44Z</time>
      </trkpt>
      <trkpt lat="45.09889" lon="5.02121">
        <ele>247.49600219727</ele>
        <time>2009-07-25T17:01:50Z</time>
      </trkpt>
      <trkpt lat="45.09914" lon="5.0205">
        <ele>244.67799377441</ele>
        <time>2009-07-25T17:01:55Z</time>
      </trkpt>
      <trkpt lat="45.09935" lon="5.01994">
        <ele>243.91200256348</ele>
        <time>2009-07-25T17:01:59Z</time>
      </trkpt>
      <trkpt lat="45.09982" lon="5.01862">
        <ele>240.2440032959</ele>
        <time>2009-07-25T17:02:08Z</time>
      </trkpt>
      <trkpt lat="45.10052" lon="5.01663">
        <ele>237.70599365234</ele>
        <time>2009-07-25T17:02:22Z</time>
      </trkpt>
      <trkpt lat="45.10073" lon="5.01503">
        <ele>238.42700195312</ele>
        <time>2009-07-25T17:02:34Z</time>
      </trkpt>
      <trkpt lat="45.10091" lon="5.01274">
        <ele>239.60800170898</ele>
        <time>2009-07-25T17:02:53Z</time>
      </trkpt>
      <trkpt lat="45.10128" lon="5.0112">
        <ele>238.07899475098</ele>
        <time>2009-07-25T17:03:07Z</time>
      </trkpt>
      <trkpt lat="45.10159" lon="5.01062">
        <ele>238.20300292969</ele>
        <time>2009-07-25T17:03:13Z</time>
      </trkpt>
      <trkpt lat="45.10235" lon="5.00951">
        <ele>234.50999450684</ele>
        <time>2009-07-25T17:03:25Z</time>
      </trkpt>
      <trkpt lat="45.10347" lon="5.0086">
        <ele>233.85499572754</ele>
        <time>2009-07-25T17:03:40Z</time>
      </trkpt>
      <trkpt lat="45.10481" lon="5.00754">
        <ele>233.18200683594</ele>
        <time>2009-07-25T17:03:59Z</time>
      </trkpt>
      <trkpt lat="45.10558" lon="5.00691">
        <ele>236.12699890137</ele>
        <time>2009-07-25T17:04:13Z</time>
      </trkpt>
      <trkpt lat="45.10601" lon="5.00654">
        <ele>238.12300109863</ele>
        <time>2009-07-25T17:04:23Z</time>
      </trkpt>
      <trkpt lat="45.10655" lon="5.00617">
        <ele>239.93499755859</ele>
        <time>2009-07-25T17:04:37Z</time>
      </trkpt>
      <trkpt lat="45.10672" lon="5.0061">
        <ele>242.28799438477</ele>
        <time>2009-07-25T17:04:41Z</time>
      </trkpt>
      <trkpt lat="45.10701" lon="5.00598">
        <ele>244.17500305176</ele>
        <time>2009-07-25T17:04:48Z</time>
      </trkpt>
      <trkpt lat="45.1077" lon="5.00585">
        <ele>248.91400146484</ele>
        <time>2009-07-25T17:05:06Z</time>
      </trkpt>
      <trkpt lat="45.1082" lon="5.00581">
        <ele>252.6369934082</ele>
        <time>2009-07-25T17:05:19Z</time>
      </trkpt>
      <trkpt lat="45.10847" lon="5.00577">
        <ele>254.16200256348</ele>
        <time>2009-07-25T17:05:26Z</time>
      </trkpt>
      <trkpt lat="45.10901" lon="5.00563">
        <ele>255.8630065918</ele>
        <time>2009-07-25T17:05:41Z</time>
      </trkpt>
      <trkpt lat="45.10957" lon="5.00532">
        <ele>257.21600341797</ele>
        <time>2009-07-25T17:05:55Z</time>
      </trkpt>
      <trkpt lat="45.11002" lon="5.005">
        <ele>253.54899597168</ele>
        <time>2009-07-25T17:06:04Z</time>
      </trkpt>
      <trkpt lat="45.11069" lon="5.00453">
        <ele>249.79899597168</ele>
        <time>2009-07-25T17:06:14Z</time>
      </trkpt>
      <trkpt lat="45.11107" lon="5.0043">
        <ele>247.44099426269</ele>
        <time>2009-07-25T17:06:19Z</time>
      </trkpt>
      <trkpt lat="45.11149" lon="5.00407">
        <ele>246.05099487305</ele>
        <time>2009-07-25T17:06:24Z</time>
      </trkpt>
      <trkpt lat="45.11176" lon="5.00393">
        <ele>243.46499633789</ele>
        <time>2009-07-25T17:06:27Z</time>
      </trkpt>
      <trkpt lat="45.11212" lon="5.00375">
        <ele>241.67900085449</ele>
        <time>2009-07-25T17:06:31Z</time>
      </trkpt>
      <trkpt lat="45.11326" lon="5.00303">
        <ele>238.62899780273</ele>
        <time>2009-07-25T17:06:44Z</time>
      </trkpt>
      <trkpt lat="45.1146" lon="5.00181">
        <ele>236.64199829102</ele>
        <time>2009-07-25T17:07:02Z</time>
      </trkpt>
      <trkpt lat="45.1159" lon="5.00051">
        <ele>236.84300231934</ele>
        <time>2009-07-25T17:07:23Z</time>
      </trkpt>
      <trkpt lat="45.11614" lon="5.0002">
        <ele>234.94299316406</ele>
        <time>2009-07-25T17:07:27Z</time>
      </trkpt>
      <trkpt lat="45.11715" lon="4.99918">
        <ele>228.22200012207</ele>
        <time>2009-07-25T17:07:41Z</time>
      </trkpt>
      <trkpt lat="45.1176" lon="4.99897">
        <ele>225.02200317383</ele>
        <time>2009-07-25T17:07:46Z</time>
      </trkpt>
      <trkpt lat="45.11863" lon="4.99852">
        <ele>218.17599487305</ele>
        <time>2009-07-25T17:07:56Z</time>
      </trkpt>
      <trkpt lat="45.1191" lon="4.99814">
        <ele>215.45899963379</ele>
        <time>2009-07-25T17:08:01Z</time>
      </trkpt>
      <trkpt lat="45.11988" lon="4.99699">
        <ele>213.44700622559</ele>
        <time>2009-07-25T17:08:12Z</time>
      </trkpt>
      <trkpt lat="45.12038" lon="4.99607">
        <ele>213.92100524902</ele>
        <time>2009-07-25T17:08:21Z</time>
      </trkpt>
      <trkpt lat="45.12075" lon="4.99539">
        <ele>213.85499572754</ele>
        <time>2009-07-25T17:08:28Z</time>
      </trkpt>
      <trkpt lat="45.12147" lon="4.99383">
        <ele>212.09599304199</ele>
        <time>2009-07-25T17:08:43Z</time>
      </trkpt>
      <trkpt lat="45.12201" lon="4.99179">
        <ele>212.87600708008</ele>
        <time>2009-07-25T17:09:02Z</time>
      </trkpt>
      <trkpt lat="45.12226" lon="4.99094">
        <ele>215.37800598144</ele>
        <time>2009-07-25T17:09:11Z</time>
      </trkpt>
      <trkpt lat="45.12241" lon="4.99067">
        <ele>216.32499694824</ele>
        <time>2009-07-25T17:09:15Z</time>
      </trkpt>
      <trkpt lat="45.12223" lon="4.99037">
        <ele>215.21899414062</ele>
        <time>2009-07-25T17:09:21Z</time>
      </trkpt>
      <trkpt lat="45.12202" lon="4.99028">
        <ele>213.65899658203</ele>
        <time>2009-07-25T17:09:24Z</time>
      </trkpt>
      <trkpt lat="45.12149" lon="4.9897">
        <ele>210.20100402832</ele>
        <time>2009-07-25T17:09:32Z</time>
      </trkpt>
      <trkpt lat="45.12124" lon="4.98932">
        <ele>208.49899291992</ele>
        <time>2009-07-25T17:09:36Z</time>
      </trkpt>
      <trkpt lat="45.12093" lon="4.98875">
        <ele>207.89300537109</ele>
        <time>2009-07-25T17:09:42Z</time>
      </trkpt>
      <trkpt lat="45.12065" lon="4.98806">
        <ele>207.35200500488</ele>
        <time>2009-07-25T17:09:49Z</time>
      </trkpt>
      <trkpt lat="45.12027" lon="4.98633">
        <ele>207.45700073242</ele>
        <time>2009-07-25T17:10:05Z</time>
      </trkpt>
      <trkpt lat="45.12027" lon="4.98493">
        <ele>206.42100524902</ele>
        <time>2009-07-25T17:10:18Z</time>
      </trkpt>
      <trkpt lat="45.12035" lon="4.98453">
        <ele>207.87199401856</ele>
        <time>2009-07-25T17:10:22Z</time>
      </trkpt>
      <trkpt lat="45.12057" lon="4.98387">
        <ele>207.58000183106</ele>
        <time>2009-07-25T17:10:30Z</time>
      </trkpt>
      <trkpt lat="45.12057" lon="4.98359">
        <ele>206.91299438477</ele>
        <time>2009-07-25T17:10:33Z</time>
      </trkpt>
      <trkpt lat="45.12076" lon="4.98182">
        <ele>205.79899597168</ele>
        <time>2009-07-25T17:10:50Z</time>
      </trkpt>
      <trkpt lat="45.12048" lon="4.9803">
        <ele>204.44299316406</ele>
        <time>2009-07-25T17:11:03Z</time>
      </trkpt>
      <trkpt lat="45.11998" lon="4.97807">
        <ele>202.00300598144</ele>
        <time>2009-07-25T17:11:22Z</time>
      </trkpt>
      <trkpt lat="45.11958" lon="4.97575">
        <ele>201.18899536133</ele>
        <time>2009-07-25T17:11:42Z</time>
      </trkpt>
      <trkpt lat="45.11915" lon="4.97335">
        <ele>198.70700073242</ele>
        <time>2009-07-25T17:12:02Z</time>
      </trkpt>
      <trkpt lat="45.11885" lon="4.97153">
        <ele>199.41900634766</ele>
        <time>2009-07-25T17:12:18Z</time>
      </trkpt>
      <trkpt lat="45.11899" lon="4.97095">
        <ele>200.60299682617</ele>
        <time>2009-07-25T17:12:25Z</time>
      </trkpt>
      <trkpt lat="45.1191" lon="4.97076">
        <ele>201.89900207519</ele>
        <time>2009-07-25T17:12:28Z</time>
      </trkpt>
      <trkpt lat="45.11889" lon="4.97048">
        <ele>201.79800415039</ele>
        <time>2009-07-25T17:12:33Z</time>
      </trkpt>
      <trkpt lat="45.11882" lon="4.97042">
        <ele>201.65600585938</ele>
        <time>2009-07-25T17:12:34Z</time>
      </trkpt>
      <trkpt lat="45.11775" lon="4.96888">
        <ele>200.75900268555</ele>
        <time>2009-07-25T17:12:53Z</time>
      </trkpt>
      <trkpt lat="45.1176" lon="4.96823">
        <ele>200.45100402832</ele>
        <time>2009-07-25T17:13:00Z</time>
      </trkpt>
      <trkpt lat="45.11725" lon="4.96802">
        <ele>200.38900756836</ele>
        <time>2009-07-25T17:13:06Z</time>
      </trkpt>
      <trkpt lat="45.1172" lon="4.96796">
        <ele>200.42999267578</ele>
        <time>2009-07-25T17:13:07Z</time>
      </trkpt>
      <trkpt lat="45.11657" lon="4.96681">
        <ele>198.72999572754</ele>
        <time>2009-07-25T17:13:21Z</time>
      </trkpt>
      <trkpt lat="45.11645" lon="4.96651">
        <ele>198.27099609375</ele>
        <time>2009-07-25T17:13:24Z</time>
      </trkpt>
      <trkpt lat="45.11588" lon="4.96501">
        <ele>199.41799926758</ele>
        <time>2009-07-25T17:13:39Z</time>
      </trkpt>
      <trkpt lat="45.11585" lon="4.96465">
        <ele>199.07699584961</ele>
        <time>2009-07-25T17:13:43Z</time>
      </trkpt>
      <trkpt lat="45.11583" lon="4.96448">
        <ele>200.35800170898</ele>
        <time>2009-07-25T17:13:46Z</time>
      </trkpt>
      <trkpt lat="45.11581" lon="4.96445">
        <ele>200.38400268555</ele>
        <time>2009-07-25T17:13:50Z</time>
      </trkpt>
      <trkpt lat="45.11562" lon="4.96429">
        <ele>200.18800354004</ele>
        <time>2009-07-25T17:14:21Z</time>
      </trkpt>
      <trkpt lat="45.1157" lon="4.96427">
        <ele>201.18699645996</ele>
        <time>2009-07-25T17:14:26Z</time>
      </trkpt>
      <trkpt lat="45.1157" lon="4.96427">
        <ele>201.14799499512</ele>
        <time>2009-07-25T17:14:27Z</time>
      </trkpt>
      <trkpt lat="45.11573" lon="4.96426">
        <ele>201.24099731445</ele>
        <time>2009-07-25T17:14:36Z</time>
      </trkpt>
    </trkseg>
  </trk>
</gpx>